<?xml version='1.0' encoding='UTF-8'?>
<gpx version="1.1" creator="https://www.komoot.de" xmlns="http://www.topografix.com/GPX/1/1" xmlns:xsi="http://www.w3.org/2001/XMLSchema-instance" xsi:schemaLocation="http://www.topografix.com/GPX/1/1 http://www.topografix.com/GPX/1/1/gpx.xsd">
  <metadata>
    <name>62_900AlbtalHottingen</name>
    <author>
      <link href="https://www.komoot.de">
        <text>komoot</text>
        <type>text/html</type>
      </link>
    </author>
  </metadata>
  <trk>
    <name>62_900AlbtalHottingen</name>
    <trkseg>
      <trkpt lat="47.541379" lon="7.870817">
        <ele>341.057168</ele>
        <time>2021-11-16T23:18:18.568Z</time>
      </trkpt>
      <trkpt lat="47.541410" lon="7.870791">
        <ele>341.057168</ele>
        <time>2021-11-16T23:18:19.077Z</time>
      </trkpt>
      <trkpt lat="47.541576" lon="7.870664">
        <ele>341.057168</ele>
        <time>2021-11-16T23:18:23.221Z</time>
      </trkpt>
      <trkpt lat="47.541796" lon="7.871042">
        <ele>341.057168</ele>
        <time>2021-11-16T23:18:30.323Z</time>
      </trkpt>
      <trkpt lat="47.541953" lon="7.871286">
        <ele>341.057168</ele>
        <time>2021-11-16T23:18:35.145Z</time>
      </trkpt>
      <trkpt lat="47.542039" lon="7.871556">
        <ele>341.397345</ele>
        <time>2021-11-16T23:18:39.528Z</time>
      </trkpt>
      <trkpt lat="47.542067" lon="7.871664">
        <ele>341.695402</ele>
        <time>2021-11-16T23:18:41.219Z</time>
      </trkpt>
      <trkpt lat="47.542091" lon="7.871721">
        <ele>341.868477</ele>
        <time>2021-11-16T23:18:41.807Z</time>
      </trkpt>
      <trkpt lat="47.542218" lon="7.871866">
        <ele>342.480424</ele>
        <time>2021-11-16T23:18:46.912Z</time>
      </trkpt>
      <trkpt lat="47.542394" lon="7.872341">
        <ele>343.876396</ele>
        <time>2021-11-16T23:18:56.964Z</time>
      </trkpt>
      <trkpt lat="47.542436" lon="7.872494">
        <ele>344.301916</ele>
        <time>2021-11-16T23:19:00.355Z</time>
      </trkpt>
      <trkpt lat="47.542537" lon="7.872430">
        <ele>344.721165</ele>
        <time>2021-11-16T23:19:02.468Z</time>
      </trkpt>
      <trkpt lat="47.542714" lon="7.872334">
        <ele>345.440537</ele>
        <time>2021-11-16T23:19:09.424Z</time>
      </trkpt>
      <trkpt lat="47.542814" lon="7.872280">
        <ele>345.846751</ele>
        <time>2021-11-16T23:19:12.438Z</time>
      </trkpt>
      <trkpt lat="47.542919" lon="7.872226">
        <ele>346.270945</ele>
        <time>2021-11-16T23:19:16.276Z</time>
      </trkpt>
      <trkpt lat="47.543013" lon="7.872182">
        <ele>346.647178</ele>
        <time>2021-11-16T23:19:19.783Z</time>
      </trkpt>
      <trkpt lat="47.543233" lon="7.872082">
        <ele>347.525441</ele>
        <time>2021-11-16T23:19:27.022Z</time>
      </trkpt>
      <trkpt lat="47.543251" lon="7.872152">
        <ele>347.718421</ele>
        <time>2021-11-16T23:19:30.395Z</time>
      </trkpt>
      <trkpt lat="47.543332" lon="7.872237">
        <ele>348.216650</ele>
        <time>2021-11-16T23:19:33.700Z</time>
      </trkpt>
      <trkpt lat="47.544390" lon="7.872423">
        <ele>355.047718</ele>
        <time>2021-11-16T23:20:15.420Z</time>
      </trkpt>
      <trkpt lat="47.544883" lon="7.872555">
        <ele>358.259846</ele>
        <time>2021-11-16T23:20:37.829Z</time>
      </trkpt>
      <trkpt lat="47.545131" lon="7.872664">
        <ele>359.928996</ele>
        <time>2021-11-16T23:20:48.833Z</time>
      </trkpt>
      <trkpt lat="47.545375" lon="7.872836">
        <ele>361.700924</ele>
        <time>2021-11-16T23:20:59.774Z</time>
      </trkpt>
      <trkpt lat="47.545478" lon="7.872968">
        <ele>362.593996</ele>
        <time>2021-11-16T23:21:06.581Z</time>
      </trkpt>
      <trkpt lat="47.545515" lon="7.873015">
        <ele>362.913602</ele>
        <time>2021-11-16T23:21:08.538Z</time>
      </trkpt>
      <trkpt lat="47.545746" lon="7.873302">
        <ele>364.890563</ele>
        <time>2021-11-16T23:21:21.738Z</time>
      </trkpt>
      <trkpt lat="47.545934" lon="7.873549">
        <ele>366.538327</ele>
        <time>2021-11-16T23:21:31.838Z</time>
      </trkpt>
      <trkpt lat="47.546077" lon="7.873763">
        <ele>367.871206</ele>
        <time>2021-11-16T23:21:41.034Z</time>
      </trkpt>
      <trkpt lat="47.546135" lon="7.873859">
        <ele>368.441482</ele>
        <time>2021-11-16T23:21:44.273Z</time>
      </trkpt>
      <trkpt lat="47.546309" lon="7.874154">
        <ele>370.175519</ele>
        <time>2021-11-16T23:21:55.388Z</time>
      </trkpt>
      <trkpt lat="47.547126" lon="7.875801">
        <ele>375.863333</ele>
        <time>2021-11-16T23:22:41.149Z</time>
      </trkpt>
      <trkpt lat="47.547574" lon="7.876801">
        <ele>377.886562</ele>
        <time>2021-11-16T23:23:00.144Z</time>
      </trkpt>
      <trkpt lat="47.547992" lon="7.877974">
        <ele>377.147004</ele>
        <time>2021-11-16T23:23:12.945Z</time>
      </trkpt>
      <trkpt lat="47.548234" lon="7.878638">
        <ele>376.726270</ele>
        <time>2021-11-16T23:23:18.257Z</time>
      </trkpt>
      <trkpt lat="47.548422" lon="7.878959">
        <ele>376.088053</ele>
        <time>2021-11-16T23:23:21.100Z</time>
      </trkpt>
      <trkpt lat="47.548718" lon="7.879258">
        <ele>374.597796</ele>
        <time>2021-11-16T23:23:24.639Z</time>
      </trkpt>
      <trkpt lat="47.549140" lon="7.879391">
        <ele>372.803085</ele>
        <time>2021-11-16T23:23:28.825Z</time>
      </trkpt>
      <trkpt lat="47.549318" lon="7.879398">
        <ele>372.062381</ele>
        <time>2021-11-16T23:23:30.452Z</time>
      </trkpt>
      <trkpt lat="47.549327" lon="7.879547">
        <ele>371.642366</ele>
        <time>2021-11-16T23:23:31.439Z</time>
      </trkpt>
      <trkpt lat="47.549726" lon="7.880786">
        <ele>367.952107</ele>
        <time>2021-11-16T23:23:40.373Z</time>
      </trkpt>
      <trkpt lat="47.549927" lon="7.881490">
        <ele>366.073016</ele>
        <time>2021-11-16T23:23:45.390Z</time>
      </trkpt>
      <trkpt lat="47.550234" lon="7.883221">
        <ele>361.520584</ele>
        <time>2021-11-16T23:23:57.772Z</time>
      </trkpt>
      <trkpt lat="47.550265" lon="7.883690">
        <ele>360.161659</ele>
        <time>2021-11-16T23:24:00.837Z</time>
      </trkpt>
      <trkpt lat="47.550332" lon="7.884727">
        <ele>357.157596</ele>
        <time>2021-11-16T23:24:07.614Z</time>
      </trkpt>
      <trkpt lat="47.550391" lon="7.885109">
        <ele>356.027552</ele>
        <time>2021-11-16T23:24:10.147Z</time>
      </trkpt>
      <trkpt lat="47.550548" lon="7.885799">
        <ele>353.624431</ele>
        <time>2021-11-16T23:24:14.752Z</time>
      </trkpt>
      <trkpt lat="47.550677" lon="7.886476">
        <ele>350.943534</ele>
        <time>2021-11-16T23:24:19.198Z</time>
      </trkpt>
      <trkpt lat="47.550758" lon="7.887295">
        <ele>347.788996</ele>
        <time>2021-11-16T23:24:24.343Z</time>
      </trkpt>
      <trkpt lat="47.550789" lon="7.887816">
        <ele>345.795768</ele>
        <time>2021-11-16T23:24:27.575Z</time>
      </trkpt>
      <trkpt lat="47.550831" lon="7.888611">
        <ele>342.543135</ele>
        <time>2021-11-16T23:24:32.531Z</time>
      </trkpt>
      <trkpt lat="47.550833" lon="7.889069">
        <ele>340.607264</ele>
        <time>2021-11-16T23:24:35.341Z</time>
      </trkpt>
      <trkpt lat="47.550915" lon="7.890600">
        <ele>334.115844</ele>
        <time>2021-11-16T23:24:44.734Z</time>
      </trkpt>
      <trkpt lat="47.550904" lon="7.891725">
        <ele>330.728385</ele>
        <time>2021-11-16T23:24:51.738Z</time>
      </trkpt>
      <trkpt lat="47.550892" lon="7.893176">
        <ele>326.646026</ele>
        <time>2021-11-16T23:25:01.350Z</time>
      </trkpt>
      <trkpt lat="47.550908" lon="7.894308">
        <ele>325.222304</ele>
        <time>2021-11-16T23:25:10.555Z</time>
      </trkpt>
      <trkpt lat="47.550878" lon="7.895158">
        <ele>324.519407</ele>
        <time>2021-11-16T23:25:17.773Z</time>
      </trkpt>
      <trkpt lat="47.550838" lon="7.895509">
        <ele>324.225445</ele>
        <time>2021-11-16T23:25:20.949Z</time>
      </trkpt>
      <trkpt lat="47.550660" lon="7.896255">
        <ele>323.354967</ele>
        <time>2021-11-16T23:25:27.443Z</time>
      </trkpt>
      <trkpt lat="47.550639" lon="7.896345">
        <ele>323.182296</ele>
        <time>2021-11-16T23:25:28.630Z</time>
      </trkpt>
      <trkpt lat="47.550648" lon="7.896481">
        <ele>322.934509</ele>
        <time>2021-11-16T23:25:29.583Z</time>
      </trkpt>
      <trkpt lat="47.550741" lon="7.897360">
        <ele>321.321186</ele>
        <time>2021-11-16T23:25:36.226Z</time>
      </trkpt>
      <trkpt lat="47.550819" lon="7.898109">
        <ele>319.946982</ele>
        <time>2021-11-16T23:25:41.408Z</time>
      </trkpt>
      <trkpt lat="47.550801" lon="7.900244">
        <ele>314.375027</ele>
        <time>2021-11-16T23:25:55.238Z</time>
      </trkpt>
      <trkpt lat="47.550769" lon="7.901362">
        <ele>311.143779</ele>
        <time>2021-11-16T23:26:02.509Z</time>
      </trkpt>
      <trkpt lat="47.550757" lon="7.901591">
        <ele>310.576040</ele>
        <time>2021-11-16T23:26:04.645Z</time>
      </trkpt>
      <trkpt lat="47.550688" lon="7.902451">
        <ele>308.435351</ele>
        <time>2021-11-16T23:26:13.080Z</time>
      </trkpt>
      <trkpt lat="47.550498" lon="7.903445">
        <ele>305.881774</ele>
        <time>2021-11-16T23:26:23.330Z</time>
      </trkpt>
      <trkpt lat="47.550302" lon="7.904164">
        <ele>303.959221</ele>
        <time>2021-11-16T23:26:30.589Z</time>
      </trkpt>
      <trkpt lat="47.550025" lon="7.904774">
        <ele>302.125561</ele>
        <time>2021-11-16T23:26:37.514Z</time>
      </trkpt>
      <trkpt lat="47.549868" lon="7.905010">
        <ele>301.299106</ele>
        <time>2021-11-16T23:26:40.646Z</time>
      </trkpt>
      <trkpt lat="47.549867" lon="7.905155">
        <ele>300.937445</ele>
        <time>2021-11-16T23:26:42.043Z</time>
      </trkpt>
      <trkpt lat="47.550067" lon="7.905245">
        <ele>300.165065</ele>
        <time>2021-11-16T23:26:44.968Z</time>
      </trkpt>
      <trkpt lat="47.550283" lon="7.905413">
        <ele>299.263602</ele>
        <time>2021-11-16T23:26:48.418Z</time>
      </trkpt>
      <trkpt lat="47.550497" lon="7.905558">
        <ele>298.394055</ele>
        <time>2021-11-16T23:26:51.775Z</time>
      </trkpt>
      <trkpt lat="47.549539" lon="7.908625">
        <ele>293.145120</ele>
        <time>2021-11-16T23:27:16.221Z</time>
      </trkpt>
      <trkpt lat="47.549520" lon="7.908678">
        <ele>293.087916</ele>
        <time>2021-11-16T23:27:16.721Z</time>
      </trkpt>
      <trkpt lat="47.549331" lon="7.909305">
        <ele>292.433357</ele>
        <time>2021-11-16T23:27:22.316Z</time>
      </trkpt>
      <trkpt lat="47.549283" lon="7.909463">
        <ele>292.268197</ele>
        <time>2021-11-16T23:27:23.739Z</time>
      </trkpt>
      <trkpt lat="47.549195" lon="7.909756">
        <ele>291.962502</ele>
        <time>2021-11-16T23:27:26.357Z</time>
      </trkpt>
      <trkpt lat="47.549102" lon="7.910058">
        <ele>291.646084</ele>
        <time>2021-11-16T23:27:29.063Z</time>
      </trkpt>
      <trkpt lat="47.549012" lon="7.910340">
        <ele>291.348741</ele>
        <time>2021-11-16T23:27:31.576Z</time>
      </trkpt>
      <trkpt lat="47.548412" lon="7.912168">
        <ele>289.797709</ele>
        <time>2021-11-16T23:27:47.905Z</time>
      </trkpt>
      <trkpt lat="47.548027" lon="7.913334">
        <ele>289.057178</ele>
        <time>2021-11-16T23:27:58.666Z</time>
      </trkpt>
      <trkpt lat="47.547994" lon="7.913433">
        <ele>289.031562</ele>
        <time>2021-11-16T23:27:59.587Z</time>
      </trkpt>
      <trkpt lat="47.547423" lon="7.915080">
        <ele>288.601998</ele>
        <time>2021-11-16T23:28:17.063Z</time>
      </trkpt>
      <trkpt lat="47.547113" lon="7.915971">
        <ele>288.747604</ele>
        <time>2021-11-16T23:28:27.511Z</time>
      </trkpt>
      <trkpt lat="47.547091" lon="7.916039">
        <ele>288.769205</ele>
        <time>2021-11-16T23:28:28.535Z</time>
      </trkpt>
      <trkpt lat="47.547032" lon="7.916218">
        <ele>288.826268</ele>
        <time>2021-11-16T23:28:30.738Z</time>
      </trkpt>
      <trkpt lat="47.546821" lon="7.916867">
        <ele>289.032621</ele>
        <time>2021-11-16T23:28:38.847Z</time>
      </trkpt>
      <trkpt lat="47.546262" lon="7.919081">
        <ele>289.677903</ele>
        <time>2021-11-16T23:29:06.358Z</time>
      </trkpt>
      <trkpt lat="47.546128" lon="7.919617">
        <ele>289.828847</ele>
        <time>2021-11-16T23:29:11.827Z</time>
      </trkpt>
      <trkpt lat="47.545973" lon="7.920313">
        <ele>290.058180</ele>
        <time>2021-11-16T23:29:20.290Z</time>
      </trkpt>
      <trkpt lat="47.545913" lon="7.920765">
        <ele>290.440308</ele>
        <time>2021-11-16T23:29:24.463Z</time>
      </trkpt>
      <trkpt lat="47.545881" lon="7.921096">
        <ele>290.717685</ele>
        <time>2021-11-16T23:29:28.480Z</time>
      </trkpt>
      <trkpt lat="47.545810" lon="7.921755">
        <ele>291.271266</ele>
        <time>2021-11-16T23:29:37.388Z</time>
      </trkpt>
      <trkpt lat="47.545778" lon="7.921947">
        <ele>291.435319</ele>
        <time>2021-11-16T23:29:40.997Z</time>
      </trkpt>
      <trkpt lat="47.545714" lon="7.922249">
        <ele>291.697894</ele>
        <time>2021-11-16T23:29:44.196Z</time>
      </trkpt>
      <trkpt lat="47.545699" lon="7.922325">
        <ele>291.763578</ele>
        <time>2021-11-16T23:29:45.393Z</time>
      </trkpt>
      <trkpt lat="47.545690" lon="7.922369">
        <ele>291.801717</ele>
        <time>2021-11-16T23:29:47.492Z</time>
      </trkpt>
      <trkpt lat="47.545641" lon="7.922610">
        <ele>292.010507</ele>
        <time>2021-11-16T23:29:49.845Z</time>
      </trkpt>
      <trkpt lat="47.545587" lon="7.922895">
        <ele>292.330329</ele>
        <time>2021-11-16T23:29:55.641Z</time>
      </trkpt>
      <trkpt lat="47.545553" lon="7.923142">
        <ele>292.928026</ele>
        <time>2021-11-16T23:29:58.288Z</time>
      </trkpt>
      <trkpt lat="47.545536" lon="7.923407">
        <ele>293.559180</ele>
        <time>2021-11-16T23:30:04.178Z</time>
      </trkpt>
      <trkpt lat="47.545521" lon="7.923709">
        <ele>294.277166</ele>
        <time>2021-11-16T23:30:08.332Z</time>
      </trkpt>
      <trkpt lat="47.545481" lon="7.924396">
        <ele>295.912113</ele>
        <time>2021-11-16T23:30:22.935Z</time>
      </trkpt>
      <trkpt lat="47.545466" lon="7.924880">
        <ele>297.060901</ele>
        <time>2021-11-16T23:30:34.242Z</time>
      </trkpt>
      <trkpt lat="47.545446" lon="7.925350">
        <ele>298.177498</ele>
        <time>2021-11-16T23:30:44.616Z</time>
      </trkpt>
      <trkpt lat="47.545417" lon="7.925848">
        <ele>299.096705</ele>
        <time>2021-11-16T23:30:55.095Z</time>
      </trkpt>
      <trkpt lat="47.545409" lon="7.926773">
        <ele>300.586104</ele>
        <time>2021-11-16T23:31:12.296Z</time>
      </trkpt>
      <trkpt lat="47.545407" lon="7.927001">
        <ele>300.953222</ele>
        <time>2021-11-16T23:31:16.105Z</time>
      </trkpt>
      <trkpt lat="47.545406" lon="7.927306">
        <ele>301.444287</ele>
        <time>2021-11-16T23:31:20.710Z</time>
      </trkpt>
      <trkpt lat="47.545421" lon="7.927686">
        <ele>302.057144</ele>
        <time>2021-11-16T23:31:26.245Z</time>
      </trkpt>
      <trkpt lat="47.545475" lon="7.928419">
        <ele>302.591171</ele>
        <time>2021-11-16T23:31:35.563Z</time>
      </trkpt>
      <trkpt lat="47.545563" lon="7.929641">
        <ele>301.493820</ele>
        <time>2021-11-16T23:31:45.442Z</time>
      </trkpt>
      <trkpt lat="47.545661" lon="7.930955">
        <ele>300.315774</ele>
        <time>2021-11-16T23:31:54.838Z</time>
      </trkpt>
      <trkpt lat="47.545696" lon="7.931497">
        <ele>299.838472</ele>
        <time>2021-11-16T23:31:58.807Z</time>
      </trkpt>
      <trkpt lat="47.545721" lon="7.931992">
        <ele>299.403328</ele>
        <time>2021-11-16T23:32:02.600Z</time>
      </trkpt>
      <trkpt lat="47.545724" lon="7.932758">
        <ele>298.731821</ele>
        <time>2021-11-16T23:32:08.809Z</time>
      </trkpt>
      <trkpt lat="47.545702" lon="7.933290">
        <ele>298.264581</ele>
        <time>2021-11-16T23:32:13.452Z</time>
      </trkpt>
      <trkpt lat="47.545674" lon="7.933625">
        <ele>298.203845</ele>
        <time>2021-11-16T23:32:16.652Z</time>
      </trkpt>
      <trkpt lat="47.545457" lon="7.935110">
        <ele>299.105044</ele>
        <time>2021-11-16T23:32:34.787Z</time>
      </trkpt>
      <trkpt lat="47.545074" lon="7.936484">
        <ele>300.279092</ele>
        <time>2021-11-16T23:32:56.314Z</time>
      </trkpt>
      <trkpt lat="47.544903" lon="7.936917">
        <ele>300.869176</ele>
        <time>2021-11-16T23:33:03.631Z</time>
      </trkpt>
      <trkpt lat="47.544705" lon="7.937395">
        <ele>301.528855</ele>
        <time>2021-11-16T23:33:11.815Z</time>
      </trkpt>
      <trkpt lat="47.544472" lon="7.937932">
        <ele>302.279749</ele>
        <time>2021-11-16T23:33:21.222Z</time>
      </trkpt>
      <trkpt lat="47.543826" lon="7.939433">
        <ele>304.338765</ele>
        <time>2021-11-16T23:33:48.104Z</time>
      </trkpt>
      <trkpt lat="47.543435" lon="7.940670">
        <ele>305.894992</ele>
        <time>2021-11-16T23:34:08.064Z</time>
      </trkpt>
      <trkpt lat="47.543161" lon="7.942213">
        <ele>306.533638</ele>
        <time>2021-11-16T23:34:28.914Z</time>
      </trkpt>
      <trkpt lat="47.543007" lon="7.943867">
        <ele>306.246427</ele>
        <time>2021-11-16T23:34:44.458Z</time>
      </trkpt>
      <trkpt lat="47.542913" lon="7.945267">
        <ele>304.640137</ele>
        <time>2021-11-16T23:34:55.217Z</time>
      </trkpt>
      <trkpt lat="47.542872" lon="7.945781">
        <ele>304.049212</ele>
        <time>2021-11-16T23:34:58.814Z</time>
      </trkpt>
      <trkpt lat="47.542875" lon="7.946089">
        <ele>303.607589</ele>
        <time>2021-11-16T23:35:00.904Z</time>
      </trkpt>
      <trkpt lat="47.542902" lon="7.946514">
        <ele>302.915662</ele>
        <time>2021-11-16T23:35:03.784Z</time>
      </trkpt>
      <trkpt lat="47.542943" lon="7.946806">
        <ele>302.432228</ele>
        <time>2021-11-16T23:35:05.830Z</time>
      </trkpt>
      <trkpt lat="47.542974" lon="7.946965">
        <ele>302.163971</ele>
        <time>2021-11-16T23:35:07.041Z</time>
      </trkpt>
      <trkpt lat="47.542979" lon="7.946989">
        <ele>302.123259</ele>
        <time>2021-11-16T23:35:07.196Z</time>
      </trkpt>
      <trkpt lat="47.543007" lon="7.947104">
        <ele>301.925101</ele>
        <time>2021-11-16T23:35:08.045Z</time>
      </trkpt>
      <trkpt lat="47.543087" lon="7.947317">
        <ele>301.530007</ele>
        <time>2021-11-16T23:35:09.787Z</time>
      </trkpt>
      <trkpt lat="47.543191" lon="7.947615">
        <ele>300.986245</ele>
        <time>2021-11-16T23:35:12.229Z</time>
      </trkpt>
      <trkpt lat="47.543242" lon="7.947745">
        <ele>300.742528</ele>
        <time>2021-11-16T23:35:13.359Z</time>
      </trkpt>
      <trkpt lat="47.543273" lon="7.947816">
        <ele>300.605469</ele>
        <time>2021-11-16T23:35:13.986Z</time>
      </trkpt>
      <trkpt lat="47.543358" lon="7.947967">
        <ele>300.286781</ele>
        <time>2021-11-16T23:35:15.428Z</time>
      </trkpt>
      <trkpt lat="47.543455" lon="7.948127">
        <ele>299.938200</ele>
        <time>2021-11-16T23:35:17.096Z</time>
      </trkpt>
      <trkpt lat="47.543532" lon="7.948214">
        <ele>299.705669</ele>
        <time>2021-11-16T23:35:18.176Z</time>
      </trkpt>
      <trkpt lat="47.543579" lon="7.948287">
        <ele>299.590673</ele>
        <time>2021-11-16T23:35:18.940Z</time>
      </trkpt>
      <trkpt lat="47.543760" lon="7.948548">
        <ele>299.563956</ele>
        <time>2021-11-16T23:35:21.829Z</time>
      </trkpt>
      <trkpt lat="47.543864" lon="7.948694">
        <ele>299.548801</ele>
        <time>2021-11-16T23:35:23.500Z</time>
      </trkpt>
      <trkpt lat="47.544239" lon="7.949202">
        <ele>299.495052</ele>
        <time>2021-11-16T23:35:30.862Z</time>
      </trkpt>
      <trkpt lat="47.544521" lon="7.949558">
        <ele>299.455863</ele>
        <time>2021-11-16T23:35:37.036Z</time>
      </trkpt>
      <trkpt lat="47.544901" lon="7.950044">
        <ele>299.402763</ele>
        <time>2021-11-16T23:35:46.432Z</time>
      </trkpt>
      <trkpt lat="47.545166" lon="7.950366">
        <ele>299.479176</ele>
        <time>2021-11-16T23:35:52.982Z</time>
      </trkpt>
      <trkpt lat="47.545434" lon="7.950668">
        <ele>299.554563</ele>
        <time>2021-11-16T23:35:58.772Z</time>
      </trkpt>
      <trkpt lat="47.545542" lon="7.950842">
        <ele>299.590285</ele>
        <time>2021-11-16T23:36:01.197Z</time>
      </trkpt>
      <trkpt lat="47.545667" lon="7.950979">
        <ele>299.625097</ele>
        <time>2021-11-16T23:36:03.802Z</time>
      </trkpt>
      <trkpt lat="47.545737" lon="7.951055">
        <ele>299.644527</ele>
        <time>2021-11-16T23:36:05.057Z</time>
      </trkpt>
      <trkpt lat="47.545876" lon="7.951233">
        <ele>299.685662</ele>
        <time>2021-11-16T23:36:07.449Z</time>
      </trkpt>
      <trkpt lat="47.546112" lon="7.951485">
        <ele>299.750792</ele>
        <time>2021-11-16T23:36:11.992Z</time>
      </trkpt>
      <trkpt lat="47.546164" lon="7.951520">
        <ele>299.763580</ele>
        <time>2021-11-16T23:36:12.626Z</time>
      </trkpt>
      <trkpt lat="47.546212" lon="7.951535">
        <ele>299.774563</ele>
        <time>2021-11-16T23:36:13.391Z</time>
      </trkpt>
      <trkpt lat="47.546231" lon="7.951558">
        <ele>299.780056</ele>
        <time>2021-11-16T23:36:14.121Z</time>
      </trkpt>
      <trkpt lat="47.546421" lon="7.951793">
        <ele>299.747914</ele>
        <time>2021-11-16T23:36:17.302Z</time>
      </trkpt>
      <trkpt lat="47.546634" lon="7.952024">
        <ele>299.635216</ele>
        <time>2021-11-16T23:36:20.836Z</time>
      </trkpt>
      <trkpt lat="47.546695" lon="7.952091">
        <ele>299.602796</ele>
        <time>2021-11-16T23:36:21.791Z</time>
      </trkpt>
      <trkpt lat="47.546776" lon="7.952185">
        <ele>299.558868</ele>
        <time>2021-11-16T23:36:22.978Z</time>
      </trkpt>
      <trkpt lat="47.546935" lon="7.952372">
        <ele>299.472197</ele>
        <time>2021-11-16T23:36:25.913Z</time>
      </trkpt>
      <trkpt lat="47.547090" lon="7.952543">
        <ele>299.389690</ele>
        <time>2021-11-16T23:36:28.550Z</time>
      </trkpt>
      <trkpt lat="47.547400" lon="7.952910">
        <ele>299.220275</ele>
        <time>2021-11-16T23:36:33.872Z</time>
      </trkpt>
      <trkpt lat="47.547458" lon="7.952975">
        <ele>299.189227</ele>
        <time>2021-11-16T23:36:34.798Z</time>
      </trkpt>
      <trkpt lat="47.547550" lon="7.953078">
        <ele>299.139995</ele>
        <time>2021-11-16T23:36:36.296Z</time>
      </trkpt>
      <trkpt lat="47.547624" lon="7.953160">
        <ele>299.100543</ele>
        <time>2021-11-16T23:36:37.540Z</time>
      </trkpt>
      <trkpt lat="47.547797" lon="7.953355">
        <ele>299.020846</ele>
        <time>2021-11-16T23:36:40.529Z</time>
      </trkpt>
      <trkpt lat="47.547871" lon="7.953437">
        <ele>298.998799</ele>
        <time>2021-11-16T23:36:41.784Z</time>
      </trkpt>
      <trkpt lat="47.547994" lon="7.953584">
        <ele>298.961096</ele>
        <time>2021-11-16T23:36:43.911Z</time>
      </trkpt>
      <trkpt lat="47.548115" lon="7.953729">
        <ele>298.923966</ele>
        <time>2021-11-16T23:36:46.035Z</time>
      </trkpt>
      <trkpt lat="47.548251" lon="7.953895">
        <ele>298.881926</ele>
        <time>2021-11-16T23:36:48.415Z</time>
      </trkpt>
      <trkpt lat="47.548342" lon="7.954009">
        <ele>298.853494</ele>
        <time>2021-11-16T23:36:50.055Z</time>
      </trkpt>
      <trkpt lat="47.548542" lon="7.954269">
        <ele>298.790013</ele>
        <time>2021-11-16T23:36:53.785Z</time>
      </trkpt>
      <trkpt lat="47.548833" lon="7.954652">
        <ele>298.697147</ele>
        <time>2021-11-16T23:36:59.327Z</time>
      </trkpt>
      <trkpt lat="47.549042" lon="7.954942">
        <ele>298.628830</ele>
        <time>2021-11-16T23:37:03.469Z</time>
      </trkpt>
      <trkpt lat="47.549157" lon="7.955099">
        <ele>298.598607</ele>
        <time>2021-11-16T23:37:05.754Z</time>
      </trkpt>
      <trkpt lat="47.549444" lon="7.955496">
        <ele>298.544425</ele>
        <time>2021-11-16T23:37:11.601Z</time>
      </trkpt>
      <trkpt lat="47.550205" lon="7.956552">
        <ele>298.400547</ele>
        <time>2021-11-16T23:37:26.233Z</time>
      </trkpt>
      <trkpt lat="47.550380" lon="7.956806">
        <ele>298.366742</ele>
        <time>2021-11-16T23:37:29.795Z</time>
      </trkpt>
      <trkpt lat="47.550445" lon="7.956918">
        <ele>298.360464</ele>
        <time>2021-11-16T23:37:31.279Z</time>
      </trkpt>
      <trkpt lat="47.550549" lon="7.957126">
        <ele>298.361596</ele>
        <time>2021-11-16T23:37:33.800Z</time>
      </trkpt>
      <trkpt lat="47.550613" lon="7.957254">
        <ele>298.362292</ele>
        <time>2021-11-16T23:37:35.427Z</time>
      </trkpt>
      <trkpt lat="47.550735" lon="7.957541">
        <ele>298.363774</ele>
        <time>2021-11-16T23:37:38.883Z</time>
      </trkpt>
      <trkpt lat="47.550745" lon="7.957569">
        <ele>298.363913</ele>
        <time>2021-11-16T23:37:39.131Z</time>
      </trkpt>
      <trkpt lat="47.550869" lon="7.957700">
        <ele>298.364899</ele>
        <time>2021-11-16T23:37:41.405Z</time>
      </trkpt>
      <trkpt lat="47.551300" lon="7.958844">
        <ele>298.370625</ele>
        <time>2021-11-16T23:37:54.257Z</time>
      </trkpt>
      <trkpt lat="47.551677" lon="7.960100">
        <ele>298.677382</ele>
        <time>2021-11-16T23:38:08.995Z</time>
      </trkpt>
      <trkpt lat="47.551865" lon="7.960528">
        <ele>298.817822</ele>
        <time>2021-11-16T23:38:14.845Z</time>
      </trkpt>
      <trkpt lat="47.551882" lon="7.960631">
        <ele>298.846983</ele>
        <time>2021-11-16T23:38:16.061Z</time>
      </trkpt>
      <trkpt lat="47.551894" lon="7.960729">
        <ele>298.874374</ele>
        <time>2021-11-16T23:38:17.465Z</time>
      </trkpt>
      <trkpt lat="47.551859" lon="7.961133">
        <ele>298.986392</ele>
        <time>2021-11-16T23:38:21.941Z</time>
      </trkpt>
      <trkpt lat="47.551906" lon="7.962453">
        <ele>299.281198</ele>
        <time>2021-11-16T23:38:37.335Z</time>
      </trkpt>
      <trkpt lat="47.551918" lon="7.963725">
        <ele>299.533016</ele>
        <time>2021-11-16T23:38:50.996Z</time>
      </trkpt>
      <trkpt lat="47.551902" lon="7.964650">
        <ele>299.534665</ele>
        <time>2021-11-16T23:39:00.109Z</time>
      </trkpt>
      <trkpt lat="47.551767" lon="7.967910">
        <ele>298.956816</ele>
        <time>2021-11-16T23:39:29.771Z</time>
      </trkpt>
      <trkpt lat="47.551839" lon="7.968208">
        <ele>298.937513</ele>
        <time>2021-11-16T23:39:32.862Z</time>
      </trkpt>
      <trkpt lat="47.551847" lon="7.968315">
        <ele>298.930948</ele>
        <time>2021-11-16T23:39:33.838Z</time>
      </trkpt>
      <trkpt lat="47.551825" lon="7.968445">
        <ele>298.922775</ele>
        <time>2021-11-16T23:39:35.070Z</time>
      </trkpt>
      <trkpt lat="47.551750" lon="7.968659">
        <ele>298.908070</ele>
        <time>2021-11-16T23:39:37.673Z</time>
      </trkpt>
      <trkpt lat="47.551734" lon="7.970034">
        <ele>299.046581</ele>
        <time>2021-11-16T23:39:52.069Z</time>
      </trkpt>
      <trkpt lat="47.551725" lon="7.970823">
        <ele>299.326506</ele>
        <time>2021-11-16T23:40:01.188Z</time>
      </trkpt>
      <trkpt lat="47.551755" lon="7.972603">
        <ele>299.819741</ele>
        <time>2021-11-16T23:40:22.663Z</time>
      </trkpt>
      <trkpt lat="47.551793" lon="7.974325">
        <ele>299.888574</ele>
        <time>2021-11-16T23:40:39.834Z</time>
      </trkpt>
      <trkpt lat="47.551829" lon="7.976305">
        <ele>299.980038</ele>
        <time>2021-11-16T23:40:57.792Z</time>
      </trkpt>
      <trkpt lat="47.551901" lon="7.979190">
        <ele>300.496420</ele>
        <time>2021-11-16T23:41:31.907Z</time>
      </trkpt>
      <trkpt lat="47.551923" lon="7.979308">
        <ele>300.529472</ele>
        <time>2021-11-16T23:41:33.597Z</time>
      </trkpt>
      <trkpt lat="47.551933" lon="7.979363">
        <ele>300.544851</ele>
        <time>2021-11-16T23:41:34.810Z</time>
      </trkpt>
      <trkpt lat="47.551873" lon="7.980135">
        <ele>300.754662</ele>
        <time>2021-11-16T23:41:42.091Z</time>
      </trkpt>
      <trkpt lat="47.551865" lon="7.980584">
        <ele>300.119410</ele>
        <time>2021-11-16T23:41:46.339Z</time>
      </trkpt>
      <trkpt lat="47.551861" lon="7.981113">
        <ele>299.354706</ele>
        <time>2021-11-16T23:41:50.738Z</time>
      </trkpt>
      <trkpt lat="47.551892" lon="7.983447">
        <ele>295.989133</ele>
        <time>2021-11-16T23:42:06.745Z</time>
      </trkpt>
      <trkpt lat="47.551911" lon="7.983632">
        <ele>295.721222</ele>
        <time>2021-11-16T23:42:08.043Z</time>
      </trkpt>
      <trkpt lat="47.552005" lon="7.983849">
        <ele>295.352062</ele>
        <time>2021-11-16T23:42:09.902Z</time>
      </trkpt>
      <trkpt lat="47.552007" lon="7.983931">
        <ele>295.234588</ele>
        <time>2021-11-16T23:42:10.414Z</time>
      </trkpt>
      <trkpt lat="47.551993" lon="7.984014">
        <ele>295.112103</ele>
        <time>2021-11-16T23:42:11.004Z</time>
      </trkpt>
      <trkpt lat="47.551934" lon="7.984260">
        <ele>294.738333</ele>
        <time>2021-11-16T23:42:13.054Z</time>
      </trkpt>
      <trkpt lat="47.551939" lon="7.985151">
        <ele>293.462658</ele>
        <time>2021-11-16T23:42:19.690Z</time>
      </trkpt>
      <trkpt lat="47.551898" lon="7.985654">
        <ele>293.402738</ele>
        <time>2021-11-16T23:42:23.999Z</time>
      </trkpt>
      <trkpt lat="47.551915" lon="7.986209">
        <ele>294.110820</ele>
        <time>2021-11-16T23:42:29.616Z</time>
      </trkpt>
      <trkpt lat="47.551917" lon="7.986288">
        <ele>294.211577</ele>
        <time>2021-11-16T23:42:30.939Z</time>
      </trkpt>
      <trkpt lat="47.551971" lon="7.986555">
        <ele>294.566821</ele>
        <time>2021-11-16T23:42:35.200Z</time>
      </trkpt>
      <trkpt lat="47.552152" lon="7.986883">
        <ele>295.106804</ele>
        <time>2021-11-16T23:42:42.426Z</time>
      </trkpt>
      <trkpt lat="47.552224" lon="7.986975">
        <ele>295.286344</ele>
        <time>2021-11-16T23:42:44.993Z</time>
      </trkpt>
      <trkpt lat="47.552436" lon="7.987273">
        <ele>295.838176</ele>
        <time>2021-11-16T23:42:52.892Z</time>
      </trkpt>
      <trkpt lat="47.552504" lon="7.987369">
        <ele>296.015543</ele>
        <time>2021-11-16T23:42:55.527Z</time>
      </trkpt>
      <trkpt lat="47.552713" lon="7.987638">
        <ele>296.587694</ele>
        <time>2021-11-16T23:43:03.994Z</time>
      </trkpt>
      <trkpt lat="47.552867" lon="7.987810">
        <ele>297.294536</ele>
        <time>2021-11-16T23:43:10.482Z</time>
      </trkpt>
      <trkpt lat="47.553232" lon="7.988247">
        <ele>299.014501</ele>
        <time>2021-11-16T23:43:25.111Z</time>
      </trkpt>
      <trkpt lat="47.553343" lon="7.988401">
        <ele>299.571850</ele>
        <time>2021-11-16T23:43:29.947Z</time>
      </trkpt>
      <trkpt lat="47.553410" lon="7.988607">
        <ele>300.137510</ele>
        <time>2021-11-16T23:43:34.544Z</time>
      </trkpt>
      <trkpt lat="47.553424" lon="7.988762">
        <ele>300.524346</ele>
        <time>2021-11-16T23:43:37.731Z</time>
      </trkpt>
      <trkpt lat="47.553352" lon="7.989142">
        <ele>301.500680</ele>
        <time>2021-11-16T23:43:45.575Z</time>
      </trkpt>
      <trkpt lat="47.553253" lon="7.989578">
        <ele>302.638603</ele>
        <time>2021-11-16T23:43:54.528Z</time>
      </trkpt>
      <trkpt lat="47.553214" lon="7.989758">
        <ele>303.084635</ele>
        <time>2021-11-16T23:43:58.111Z</time>
      </trkpt>
      <trkpt lat="47.553163" lon="7.990004">
        <ele>303.229280</ele>
        <time>2021-11-16T23:44:02.810Z</time>
      </trkpt>
      <trkpt lat="47.553146" lon="7.990113">
        <ele>303.292160</ele>
        <time>2021-11-16T23:44:04.738Z</time>
      </trkpt>
      <trkpt lat="47.553126" lon="7.990240">
        <ele>303.365460</ele>
        <time>2021-11-16T23:44:06.895Z</time>
      </trkpt>
      <trkpt lat="47.553050" lon="7.990744">
        <ele>303.655728</ele>
        <time>2021-11-16T23:44:14.546Z</time>
      </trkpt>
      <trkpt lat="47.553091" lon="7.991915">
        <ele>304.314796</ele>
        <time>2021-11-16T23:44:25.354Z</time>
      </trkpt>
      <trkpt lat="47.553107" lon="7.992226">
        <ele>304.490106</ele>
        <time>2021-11-16T23:44:27.822Z</time>
      </trkpt>
      <trkpt lat="47.553130" lon="7.993014">
        <ele>305.034112</ele>
        <time>2021-11-16T23:44:37.396Z</time>
      </trkpt>
      <trkpt lat="47.553137" lon="7.993190">
        <ele>305.161137</ele>
        <time>2021-11-16T23:44:38.515Z</time>
      </trkpt>
      <trkpt lat="47.553156" lon="7.993696">
        <ele>305.526266</ele>
        <time>2021-11-16T23:44:44.149Z</time>
      </trkpt>
      <trkpt lat="47.553164" lon="7.993925">
        <ele>305.691477</ele>
        <time>2021-11-16T23:44:50.615Z</time>
      </trkpt>
      <trkpt lat="47.553246" lon="7.995617">
        <ele>307.289527</ele>
        <time>2021-11-16T23:45:13.401Z</time>
      </trkpt>
      <trkpt lat="47.553268" lon="7.996252">
        <ele>308.160188</ele>
        <time>2021-11-16T23:45:26.746Z</time>
      </trkpt>
      <trkpt lat="47.553279" lon="7.996528">
        <ele>308.538778</ele>
        <time>2021-11-16T23:45:30.899Z</time>
      </trkpt>
      <trkpt lat="47.553287" lon="7.997190">
        <ele>309.445411</ele>
        <time>2021-11-16T23:45:40.649Z</time>
      </trkpt>
      <trkpt lat="47.553287" lon="7.998380">
        <ele>310.371851</ele>
        <time>2021-11-16T23:45:57.232Z</time>
      </trkpt>
      <trkpt lat="47.553278" lon="7.999508">
        <ele>310.747934</ele>
        <time>2021-11-16T23:46:10.582Z</time>
      </trkpt>
      <trkpt lat="47.553275" lon="7.999860">
        <ele>310.865294</ele>
        <time>2021-11-16T23:46:14.081Z</time>
      </trkpt>
      <trkpt lat="47.553273" lon="8.001687">
        <ele>310.276918</ele>
        <time>2021-11-16T23:46:29.625Z</time>
      </trkpt>
      <trkpt lat="47.553271" lon="8.002109">
        <ele>310.034986</ele>
        <time>2021-11-16T23:46:32.992Z</time>
      </trkpt>
      <trkpt lat="47.553270" lon="8.002465">
        <ele>309.830896</ele>
        <time>2021-11-16T23:46:35.769Z</time>
      </trkpt>
      <trkpt lat="47.553266" lon="8.003502">
        <ele>309.577916</ele>
        <time>2021-11-16T23:46:44.544Z</time>
      </trkpt>
      <trkpt lat="47.553256" lon="8.004837">
        <ele>309.781163</ele>
        <time>2021-11-16T23:46:58.774Z</time>
      </trkpt>
      <trkpt lat="47.553251" lon="8.005657">
        <ele>309.906002</ele>
        <time>2021-11-16T23:47:08.863Z</time>
      </trkpt>
      <trkpt lat="47.553220" lon="8.006182">
        <ele>310.096090</ele>
        <time>2021-11-16T23:47:15.811Z</time>
      </trkpt>
      <trkpt lat="47.553211" lon="8.006270">
        <ele>310.129684</ele>
        <time>2021-11-16T23:47:17.613Z</time>
      </trkpt>
      <trkpt lat="47.553173" lon="8.006642">
        <ele>310.271691</ele>
        <time>2021-11-16T23:47:22.163Z</time>
      </trkpt>
      <trkpt lat="47.552935" lon="8.007851">
        <ele>310.747033</ele>
        <time>2021-11-16T23:47:37.270Z</time>
      </trkpt>
      <trkpt lat="47.552640" lon="8.008615">
        <ele>310.613820</ele>
        <time>2021-11-16T23:47:45.413Z</time>
      </trkpt>
      <trkpt lat="47.552604" lon="8.008677">
        <ele>310.555669</ele>
        <time>2021-11-16T23:47:45.964Z</time>
      </trkpt>
      <trkpt lat="47.551902" lon="8.009884">
        <ele>309.422788</ele>
        <time>2021-11-16T23:47:58.324Z</time>
      </trkpt>
      <trkpt lat="47.551275" lon="8.010934">
        <ele>309.151670</ele>
        <time>2021-11-16T23:48:10.279Z</time>
      </trkpt>
      <trkpt lat="47.551187" lon="8.011080">
        <ele>309.181659</ele>
        <time>2021-11-16T23:48:12.413Z</time>
      </trkpt>
      <trkpt lat="47.550764" lon="8.011985">
        <ele>309.350309</ele>
        <time>2021-11-16T23:48:24.502Z</time>
      </trkpt>
      <trkpt lat="47.550565" lon="8.012461">
        <ele>309.461777</ele>
        <time>2021-11-16T23:48:31.921Z</time>
      </trkpt>
      <trkpt lat="47.550001" lon="8.014034">
        <ele>311.196832</ele>
        <time>2021-11-16T23:48:57.760Z</time>
      </trkpt>
      <trkpt lat="47.549871" lon="8.014427">
        <ele>311.623161</ele>
        <time>2021-11-16T23:49:03.947Z</time>
      </trkpt>
      <trkpt lat="47.549795" lon="8.014667">
        <ele>311.881401</ele>
        <time>2021-11-16T23:49:07.448Z</time>
      </trkpt>
      <trkpt lat="47.549589" lon="8.015316">
        <ele>312.509766</ele>
        <time>2021-11-16T23:49:16.826Z</time>
      </trkpt>
      <trkpt lat="47.549431" lon="8.015998">
        <ele>313.122901</ele>
        <time>2021-11-16T23:49:26.740Z</time>
      </trkpt>
      <trkpt lat="47.549281" lon="8.017304">
        <ele>314.249399</ele>
        <time>2021-11-16T23:49:43.963Z</time>
      </trkpt>
      <trkpt lat="47.549274" lon="8.017401">
        <ele>314.338431</ele>
        <time>2021-11-16T23:49:45.256Z</time>
      </trkpt>
      <trkpt lat="47.549236" lon="8.017402">
        <ele>314.393742</ele>
        <time>2021-11-16T23:49:46.079Z</time>
      </trkpt>
      <trkpt lat="47.549145" lon="8.017497">
        <ele>314.555748</ele>
        <time>2021-11-16T23:49:48.337Z</time>
      </trkpt>
      <trkpt lat="47.549133" lon="8.017550">
        <ele>314.610660</ele>
        <time>2021-11-16T23:49:49.326Z</time>
      </trkpt>
      <trkpt lat="47.549131" lon="8.017604">
        <ele>314.663782</ele>
        <time>2021-11-16T23:49:49.842Z</time>
      </trkpt>
      <trkpt lat="47.549220" lon="8.017761">
        <ele>314.865173</ele>
        <time>2021-11-16T23:49:52.420Z</time>
      </trkpt>
      <trkpt lat="47.549256" lon="8.017769">
        <ele>314.918150</ele>
        <time>2021-11-16T23:49:53.223Z</time>
      </trkpt>
      <trkpt lat="47.549261" lon="8.017878">
        <ele>315.025464</ele>
        <time>2021-11-16T23:49:54.864Z</time>
      </trkpt>
      <trkpt lat="47.549208" lon="8.019997">
        <ele>317.044481</ele>
        <time>2021-11-16T23:50:25.418Z</time>
      </trkpt>
      <trkpt lat="47.549186" lon="8.021006">
        <ele>317.715723</ele>
        <time>2021-11-16T23:50:38.481Z</time>
      </trkpt>
      <trkpt lat="47.549191" lon="8.021436">
        <ele>318.001676</ele>
        <time>2021-11-16T23:50:43.863Z</time>
      </trkpt>
      <trkpt lat="47.549201" lon="8.022146">
        <ele>318.473863</ele>
        <time>2021-11-16T23:50:52.664Z</time>
      </trkpt>
      <trkpt lat="47.549268" lon="8.023385">
        <ele>318.738134</ele>
        <time>2021-11-16T23:51:06.616Z</time>
      </trkpt>
      <trkpt lat="47.549322" lon="8.024323">
        <ele>318.794405</ele>
        <time>2021-11-16T23:51:16.000Z</time>
      </trkpt>
      <trkpt lat="47.549436" lon="8.026046">
        <ele>318.493116</ele>
        <time>2021-11-16T23:51:32.221Z</time>
      </trkpt>
      <trkpt lat="47.549454" lon="8.027138">
        <ele>318.086470</ele>
        <time>2021-11-16T23:51:41.508Z</time>
      </trkpt>
      <trkpt lat="47.549445" lon="8.027599">
        <ele>317.914779</ele>
        <time>2021-11-16T23:51:45.467Z</time>
      </trkpt>
      <trkpt lat="47.549431" lon="8.028306">
        <ele>317.671888</ele>
        <time>2021-11-16T23:51:51.699Z</time>
      </trkpt>
      <trkpt lat="47.549418" lon="8.028906">
        <ele>317.471413</ele>
        <time>2021-11-16T23:51:57.116Z</time>
      </trkpt>
      <trkpt lat="47.549380" lon="8.030702">
        <ele>316.954464</ele>
        <time>2021-11-16T23:52:13.003Z</time>
      </trkpt>
      <trkpt lat="47.549378" lon="8.030790">
        <ele>316.952658</ele>
        <time>2021-11-16T23:52:13.931Z</time>
      </trkpt>
      <trkpt lat="47.549372" lon="8.031883">
        <ele>316.930233</ele>
        <time>2021-11-16T23:52:25.169Z</time>
      </trkpt>
      <trkpt lat="47.549368" lon="8.032544">
        <ele>316.916672</ele>
        <time>2021-11-16T23:52:31.419Z</time>
      </trkpt>
      <trkpt lat="47.549363" lon="8.032869">
        <ele>316.910003</ele>
        <time>2021-11-16T23:52:35.780Z</time>
      </trkpt>
      <trkpt lat="47.549374" lon="8.033423">
        <ele>316.841153</ele>
        <time>2021-11-16T23:52:41.785Z</time>
      </trkpt>
      <trkpt lat="47.549386" lon="8.033799">
        <ele>316.766197</ele>
        <time>2021-11-16T23:52:45.006Z</time>
      </trkpt>
      <trkpt lat="47.549394" lon="8.034003">
        <ele>316.725505</ele>
        <time>2021-11-16T23:52:48.098Z</time>
      </trkpt>
      <trkpt lat="47.549395" lon="8.034029">
        <ele>316.720320</ele>
        <time>2021-11-16T23:52:48.243Z</time>
      </trkpt>
      <trkpt lat="47.549442" lon="8.034584">
        <ele>316.608936</ele>
        <time>2021-11-16T23:52:53.448Z</time>
      </trkpt>
      <trkpt lat="47.549494" lon="8.034935">
        <ele>316.537377</ele>
        <time>2021-11-16T23:52:57.254Z</time>
      </trkpt>
      <trkpt lat="47.549554" lon="8.035288">
        <ele>316.464890</ele>
        <time>2021-11-16T23:53:00.332Z</time>
      </trkpt>
      <trkpt lat="47.549632" lon="8.035633">
        <ele>316.392438</ele>
        <time>2021-11-16T23:53:03.485Z</time>
      </trkpt>
      <trkpt lat="47.549699" lon="8.035900">
        <ele>316.265251</ele>
        <time>2021-11-16T23:53:05.982Z</time>
      </trkpt>
      <trkpt lat="47.549753" lon="8.036077">
        <ele>316.156452</ele>
        <time>2021-11-16T23:53:07.656Z</time>
      </trkpt>
      <trkpt lat="47.549832" lon="8.036349">
        <ele>315.990592</ele>
        <time>2021-11-16T23:53:10.095Z</time>
      </trkpt>
      <trkpt lat="47.550111" lon="8.037123">
        <ele>315.499105</ele>
        <time>2021-11-16T23:53:17.286Z</time>
      </trkpt>
      <trkpt lat="47.550424" lon="8.037956">
        <ele>314.965097</ele>
        <time>2021-11-16T23:53:25.055Z</time>
      </trkpt>
      <trkpt lat="47.550515" lon="8.038174">
        <ele>314.925974</ele>
        <time>2021-11-16T23:53:27.303Z</time>
      </trkpt>
      <trkpt lat="47.551001" lon="8.039426">
        <ele>315.515634</ele>
        <time>2021-11-16T23:53:42.602Z</time>
      </trkpt>
      <trkpt lat="47.551167" lon="8.039905">
        <ele>315.735466</ele>
        <time>2021-11-16T23:53:49.647Z</time>
      </trkpt>
      <trkpt lat="47.551627" lon="8.041127">
        <ele>317.135873</ele>
        <time>2021-11-16T23:54:10.193Z</time>
      </trkpt>
      <trkpt lat="47.552844" lon="8.044355">
        <ele>321.986414</ele>
        <time>2021-11-16T23:55:10.145Z</time>
      </trkpt>
      <trkpt lat="47.553619" lon="8.046372">
        <ele>322.898574</ele>
        <time>2021-11-16T23:55:37.982Z</time>
      </trkpt>
      <trkpt lat="47.553996" lon="8.047557">
        <ele>322.653738</ele>
        <time>2021-11-16T23:55:48.891Z</time>
      </trkpt>
      <trkpt lat="47.554309" lon="8.048719">
        <ele>321.116706</ele>
        <time>2021-11-16T23:55:58.183Z</time>
      </trkpt>
      <trkpt lat="47.554412" lon="8.049127">
        <ele>320.581556</ele>
        <time>2021-11-16T23:56:01.381Z</time>
      </trkpt>
      <trkpt lat="47.554715" lon="8.050527">
        <ele>319.006634</ele>
        <time>2021-11-16T23:56:12.263Z</time>
      </trkpt>
      <trkpt lat="47.554985" lon="8.051466">
        <ele>318.115698</ele>
        <time>2021-11-16T23:56:20.177Z</time>
      </trkpt>
      <trkpt lat="47.554988" lon="8.051475">
        <ele>318.106936</ele>
        <time>2021-11-16T23:56:20.237Z</time>
      </trkpt>
      <trkpt lat="47.555078" lon="8.051695">
        <ele>317.882374</ele>
        <time>2021-11-16T23:56:22.522Z</time>
      </trkpt>
      <trkpt lat="47.555259" lon="8.052135">
        <ele>317.432581</ele>
        <time>2021-11-16T23:56:27.062Z</time>
      </trkpt>
      <trkpt lat="47.555603" lon="8.052757">
        <ele>317.187949</ele>
        <time>2021-11-16T23:56:34.682Z</time>
      </trkpt>
      <trkpt lat="47.555773" lon="8.053070">
        <ele>317.147283</ele>
        <time>2021-11-16T23:56:38.395Z</time>
      </trkpt>
      <trkpt lat="47.555890" lon="8.053286">
        <ele>317.119250</ele>
        <time>2021-11-16T23:56:40.847Z</time>
      </trkpt>
      <trkpt lat="47.556032" lon="8.053510">
        <ele>317.088144</ele>
        <time>2021-11-16T23:56:43.514Z</time>
      </trkpt>
      <trkpt lat="47.556239" lon="8.053780">
        <ele>317.046784</ele>
        <time>2021-11-16T23:56:47.501Z</time>
      </trkpt>
      <trkpt lat="47.556494" lon="8.054073">
        <ele>316.998388</ele>
        <time>2021-11-16T23:56:52.744Z</time>
      </trkpt>
      <trkpt lat="47.557019" lon="8.054678">
        <ele>316.980870</ele>
        <time>2021-11-16T23:57:03.865Z</time>
      </trkpt>
      <trkpt lat="47.557097" lon="8.054768">
        <ele>316.981371</ele>
        <time>2021-11-16T23:57:05.102Z</time>
      </trkpt>
      <trkpt lat="47.557273" lon="8.054941">
        <ele>316.982443</ele>
        <time>2021-11-16T23:57:08.426Z</time>
      </trkpt>
      <trkpt lat="47.557500" lon="8.055133">
        <ele>316.983770</ele>
        <time>2021-11-16T23:57:11.992Z</time>
      </trkpt>
      <trkpt lat="47.557710" lon="8.055283">
        <ele>316.984954</ele>
        <time>2021-11-16T23:57:15.145Z</time>
      </trkpt>
      <trkpt lat="47.557918" lon="8.055409">
        <ele>316.986094</ele>
        <time>2021-11-16T23:57:18.424Z</time>
      </trkpt>
      <trkpt lat="47.558012" lon="8.055477">
        <ele>316.986625</ele>
        <time>2021-11-16T23:57:19.799Z</time>
      </trkpt>
      <trkpt lat="47.558239" lon="8.055639">
        <ele>317.003306</ele>
        <time>2021-11-16T23:57:23.630Z</time>
      </trkpt>
      <trkpt lat="47.558447" lon="8.055831">
        <ele>317.036671</ele>
        <time>2021-11-16T23:57:27.214Z</time>
      </trkpt>
      <trkpt lat="47.558662" lon="8.056061">
        <ele>317.072774</ele>
        <time>2021-11-16T23:57:31.641Z</time>
      </trkpt>
      <trkpt lat="47.559116" lon="8.056760">
        <ele>317.161912</ele>
        <time>2021-11-16T23:57:41.749Z</time>
      </trkpt>
      <trkpt lat="47.559294" lon="8.057130">
        <ele>317.203662</ele>
        <time>2021-11-16T23:57:46.419Z</time>
      </trkpt>
      <trkpt lat="47.559447" lon="8.057490">
        <ele>317.252733</ele>
        <time>2021-11-16T23:57:50.783Z</time>
      </trkpt>
      <trkpt lat="47.559548" lon="8.057827">
        <ele>317.318655</ele>
        <time>2021-11-16T23:57:54.773Z</time>
      </trkpt>
      <trkpt lat="47.559579" lon="8.057955">
        <ele>317.342967</ele>
        <time>2021-11-16T23:57:56.217Z</time>
      </trkpt>
      <trkpt lat="47.559654" lon="8.058257">
        <ele>317.400496</ele>
        <time>2021-11-16T23:57:59.821Z</time>
      </trkpt>
      <trkpt lat="47.559725" lon="8.058554">
        <ele>317.456825</ele>
        <time>2021-11-16T23:58:03.215Z</time>
      </trkpt>
      <trkpt lat="47.559859" lon="8.059093">
        <ele>317.559515</ele>
        <time>2021-11-16T23:58:09.334Z</time>
      </trkpt>
      <trkpt lat="47.559979" lon="8.059591">
        <ele>317.654050</ele>
        <time>2021-11-16T23:58:14.922Z</time>
      </trkpt>
      <trkpt lat="47.560019" lon="8.059741">
        <ele>317.682883</ele>
        <time>2021-11-16T23:58:16.730Z</time>
      </trkpt>
      <trkpt lat="47.560040" lon="8.059827">
        <ele>317.699233</ele>
        <time>2021-11-16T23:58:17.673Z</time>
      </trkpt>
      <trkpt lat="47.560069" lon="8.059943">
        <ele>317.728706</ele>
        <time>2021-11-16T23:58:18.918Z</time>
      </trkpt>
      <trkpt lat="47.560130" lon="8.060196">
        <ele>317.804658</ele>
        <time>2021-11-16T23:58:21.963Z</time>
      </trkpt>
      <trkpt lat="47.560262" lon="8.060729">
        <ele>317.965164</ele>
        <time>2021-11-16T23:58:28.220Z</time>
      </trkpt>
      <trkpt lat="47.560293" lon="8.060828">
        <ele>317.996018</ele>
        <time>2021-11-16T23:58:29.388Z</time>
      </trkpt>
      <trkpt lat="47.560335" lon="8.060984">
        <ele>318.043500</ele>
        <time>2021-11-16T23:58:31.226Z</time>
      </trkpt>
      <trkpt lat="47.560570" lon="8.061926">
        <ele>318.327419</ele>
        <time>2021-11-16T23:58:42.674Z</time>
      </trkpt>
      <trkpt lat="47.560765" lon="8.062729">
        <ele>318.482568</ele>
        <time>2021-11-16T23:58:52.496Z</time>
      </trkpt>
      <trkpt lat="47.560837" lon="8.063012">
        <ele>318.498922</ele>
        <time>2021-11-16T23:58:55.935Z</time>
      </trkpt>
      <trkpt lat="47.560923" lon="8.063368">
        <ele>318.519368</ele>
        <time>2021-11-16T23:58:59.980Z</time>
      </trkpt>
      <trkpt lat="47.561318" lon="8.064977">
        <ele>318.520603</ele>
        <time>2021-11-16T23:59:17.227Z</time>
      </trkpt>
      <trkpt lat="47.561397" lon="8.065301">
        <ele>318.236512</ele>
        <time>2021-11-16T23:59:20.212Z</time>
      </trkpt>
      <trkpt lat="47.561638" lon="8.066880">
        <ele>316.901513</ele>
        <time>2021-11-16T23:59:32.738Z</time>
      </trkpt>
      <trkpt lat="47.561669" lon="8.067479">
        <ele>316.409515</ele>
        <time>2021-11-16T23:59:37.312Z</time>
      </trkpt>
      <trkpt lat="47.561678" lon="8.067656">
        <ele>316.491848</ele>
        <time>2021-11-16T23:59:38.731Z</time>
      </trkpt>
      <trkpt lat="47.561666" lon="8.068004">
        <ele>316.653475</ele>
        <time>2021-11-16T23:59:41.479Z</time>
      </trkpt>
      <trkpt lat="47.561643" lon="8.068242">
        <ele>316.764996</ele>
        <time>2021-11-16T23:59:43.500Z</time>
      </trkpt>
      <trkpt lat="47.561615" lon="8.068423">
        <ele>316.851130</ele>
        <time>2021-11-16T23:59:44.939Z</time>
      </trkpt>
      <trkpt lat="47.561500" lon="8.068915">
        <ele>317.092643</ele>
        <time>2021-11-16T23:59:49.376Z</time>
      </trkpt>
      <trkpt lat="47.561013" lon="8.070908">
        <ele>320.037793</ele>
        <time>2021-11-17T00:00:27.708Z</time>
      </trkpt>
      <trkpt lat="47.560980" lon="8.071044">
        <ele>320.409858</ele>
        <time>2021-11-17T00:00:29.727Z</time>
      </trkpt>
      <trkpt lat="47.560962" lon="8.071117">
        <ele>320.609943</ele>
        <time>2021-11-17T00:00:31.109Z</time>
      </trkpt>
      <trkpt lat="47.560885" lon="8.071064">
        <ele>320.933841</ele>
        <time>2021-11-17T00:00:37.025Z</time>
      </trkpt>
      <trkpt lat="47.560636" lon="8.071093">
        <ele>321.886713</ele>
        <time>2021-11-17T00:00:43.780Z</time>
      </trkpt>
      <trkpt lat="47.560553" lon="8.071099">
        <ele>322.203737</ele>
        <time>2021-11-17T00:00:48.156Z</time>
      </trkpt>
      <trkpt lat="47.560553" lon="8.071099">
        <ele>322.203737</ele>
        <time>2021-11-17T00:00:48.399Z</time>
      </trkpt>
      <trkpt lat="47.560524" lon="8.071179">
        <ele>322.437527</ele>
        <time>2021-11-17T00:00:50.702Z</time>
      </trkpt>
      <trkpt lat="47.560318" lon="8.072316">
        <ele>325.164265</ele>
        <time>2021-11-17T00:01:15.542Z</time>
      </trkpt>
      <trkpt lat="47.559811" lon="8.074398">
        <ele>329.061172</ele>
        <time>2021-11-17T00:01:51.700Z</time>
      </trkpt>
      <trkpt lat="47.559426" lon="8.075372">
        <ele>330.409192</ele>
        <time>2021-11-17T00:02:07.196Z</time>
      </trkpt>
      <trkpt lat="47.559046" lon="8.076086">
        <ele>331.456712</ele>
        <time>2021-11-17T00:02:20.399Z</time>
      </trkpt>
      <trkpt lat="47.558613" lon="8.076826">
        <ele>332.478349</ele>
        <time>2021-11-17T00:02:34.997Z</time>
      </trkpt>
      <trkpt lat="47.558295" lon="8.077398">
        <ele>333.043462</ele>
        <time>2021-11-17T00:02:46.090Z</time>
      </trkpt>
      <trkpt lat="47.557793" lon="8.078299">
        <ele>333.934405</ele>
        <time>2021-11-17T00:03:02.766Z</time>
      </trkpt>
      <trkpt lat="47.557256" lon="8.079416">
        <ele>332.901973</ele>
        <time>2021-11-17T00:03:14.545Z</time>
      </trkpt>
      <trkpt lat="47.557099" lon="8.079786">
        <ele>332.214129</ele>
        <time>2021-11-17T00:03:17.765Z</time>
      </trkpt>
      <trkpt lat="47.556853" lon="8.080477">
        <ele>330.984593</ele>
        <time>2021-11-17T00:03:23.145Z</time>
      </trkpt>
      <trkpt lat="47.556470" lon="8.081563">
        <ele>327.857894</ele>
        <time>2021-11-17T00:03:31.160Z</time>
      </trkpt>
      <trkpt lat="47.556083" lon="8.083354">
        <ele>321.524708</ele>
        <time>2021-11-17T00:03:42.964Z</time>
      </trkpt>
      <trkpt lat="47.555956" lon="8.084115">
        <ele>319.041655</ele>
        <time>2021-11-17T00:03:47.967Z</time>
      </trkpt>
      <trkpt lat="47.555899" lon="8.084472">
        <ele>317.892494</ele>
        <time>2021-11-17T00:03:50.287Z</time>
      </trkpt>
      <trkpt lat="47.555764" lon="8.085769">
        <ele>313.781640</ele>
        <time>2021-11-17T00:03:58.752Z</time>
      </trkpt>
      <trkpt lat="47.555733" lon="8.086819">
        <ele>312.058660</ele>
        <time>2021-11-17T00:04:05.680Z</time>
      </trkpt>
      <trkpt lat="47.555737" lon="8.087083">
        <ele>311.797366</ele>
        <time>2021-11-17T00:04:07.478Z</time>
      </trkpt>
      <trkpt lat="47.555780" lon="8.087557">
        <ele>311.324124</ele>
        <time>2021-11-17T00:04:10.969Z</time>
      </trkpt>
      <trkpt lat="47.555809" lon="8.087783">
        <ele>311.096491</ele>
        <time>2021-11-17T00:04:13.403Z</time>
      </trkpt>
      <trkpt lat="47.555829" lon="8.087941">
        <ele>310.937424</ele>
        <time>2021-11-17T00:04:15.000Z</time>
      </trkpt>
      <trkpt lat="47.555887" lon="8.088299">
        <ele>310.573119</ele>
        <time>2021-11-17T00:04:18.565Z</time>
      </trkpt>
      <trkpt lat="47.555939" lon="8.088552">
        <ele>310.311423</ele>
        <time>2021-11-17T00:04:21.360Z</time>
      </trkpt>
      <trkpt lat="47.555991" lon="8.088778">
        <ele>310.336927</ele>
        <time>2021-11-17T00:04:24.795Z</time>
      </trkpt>
      <trkpt lat="47.555997" lon="8.088801">
        <ele>310.402588</ele>
        <time>2021-11-17T00:04:25.388Z</time>
      </trkpt>
      <trkpt lat="47.556065" lon="8.089084">
        <ele>311.202497</ele>
        <time>2021-11-17T00:04:29.681Z</time>
      </trkpt>
      <trkpt lat="47.556111" lon="8.089266">
        <ele>311.719997</ele>
        <time>2021-11-17T00:04:33.489Z</time>
      </trkpt>
      <trkpt lat="47.556151" lon="8.089459">
        <ele>312.257603</ele>
        <time>2021-11-17T00:04:38.131Z</time>
      </trkpt>
      <trkpt lat="47.556137" lon="8.089730">
        <ele>312.981330</ele>
        <time>2021-11-17T00:04:43.349Z</time>
      </trkpt>
      <trkpt lat="47.556110" lon="8.089809">
        <ele>313.217127</ele>
        <time>2021-11-17T00:04:45.621Z</time>
      </trkpt>
      <trkpt lat="47.556193" lon="8.089926">
        <ele>313.669134</ele>
        <time>2021-11-17T00:04:49.599Z</time>
      </trkpt>
      <trkpt lat="47.556259" lon="8.090058">
        <ele>314.106578</ele>
        <time>2021-11-17T00:04:52.642Z</time>
      </trkpt>
      <trkpt lat="47.556527" lon="8.090721">
        <ele>316.164458</ele>
        <time>2021-11-17T00:05:10.897Z</time>
      </trkpt>
      <trkpt lat="47.556692" lon="8.091113">
        <ele>317.416160</ele>
        <time>2021-11-17T00:05:22.680Z</time>
      </trkpt>
      <trkpt lat="47.556850" lon="8.091457">
        <ele>318.681220</ele>
        <time>2021-11-17T00:05:33.189Z</time>
      </trkpt>
      <trkpt lat="47.557677" lon="8.092776">
        <ele>324.154769</ele>
        <time>2021-11-17T00:06:13.242Z</time>
      </trkpt>
      <trkpt lat="47.558531" lon="8.094661">
        <ele>330.319213</ele>
        <time>2021-11-17T00:06:56.425Z</time>
      </trkpt>
      <trkpt lat="47.558776" lon="8.095210">
        <ele>332.061668</ele>
        <time>2021-11-17T00:07:10.764Z</time>
      </trkpt>
      <trkpt lat="47.558857" lon="8.095293">
        <ele>332.466113</ele>
        <time>2021-11-17T00:07:15.586Z</time>
      </trkpt>
      <trkpt lat="47.558983" lon="8.095482">
        <ele>333.444384</ele>
        <time>2021-11-17T00:07:22.322Z</time>
      </trkpt>
      <trkpt lat="47.559606" lon="8.096837">
        <ele>339.481745</ele>
        <time>2021-11-17T00:08:11.266Z</time>
      </trkpt>
      <trkpt lat="47.560171" lon="8.097877">
        <ele>343.156764</ele>
        <time>2021-11-17T00:08:49.061Z</time>
      </trkpt>
      <trkpt lat="47.560787" lon="8.098864">
        <ele>345.291173</ele>
        <time>2021-11-17T00:09:17.308Z</time>
      </trkpt>
      <trkpt lat="47.561466" lon="8.099697">
        <ele>345.393567</ele>
        <time>2021-11-17T00:09:33.598Z</time>
      </trkpt>
      <trkpt lat="47.562207" lon="8.100413">
        <ele>343.002570</ele>
        <time>2021-11-17T00:09:46.191Z</time>
      </trkpt>
      <trkpt lat="47.563031" lon="8.100935">
        <ele>340.578030</ele>
        <time>2021-11-17T00:09:59.093Z</time>
      </trkpt>
      <trkpt lat="47.563202" lon="8.101042">
        <ele>340.075134</ele>
        <time>2021-11-17T00:10:01.680Z</time>
      </trkpt>
      <trkpt lat="47.564165" lon="8.101615">
        <ele>337.263627</ele>
        <time>2021-11-17T00:10:12.643Z</time>
      </trkpt>
      <trkpt lat="47.565727" lon="8.102512">
        <ele>333.969974</ele>
        <time>2021-11-17T00:10:31.830Z</time>
      </trkpt>
      <trkpt lat="47.566684" lon="8.102974">
        <ele>331.641608</ele>
        <time>2021-11-17T00:10:42.431Z</time>
      </trkpt>
      <trkpt lat="47.567683" lon="8.103272">
        <ele>329.063893</ele>
        <time>2021-11-17T00:10:53.051Z</time>
      </trkpt>
      <trkpt lat="47.569557" lon="8.103677">
        <ele>324.376269</ele>
        <time>2021-11-17T00:11:13.283Z</time>
      </trkpt>
      <trkpt lat="47.570159" lon="8.103813">
        <ele>321.996047</ele>
        <time>2021-11-17T00:11:19.588Z</time>
      </trkpt>
      <trkpt lat="47.570286" lon="8.103898">
        <ele>321.449823</ele>
        <time>2021-11-17T00:11:20.967Z</time>
      </trkpt>
      <trkpt lat="47.570517" lon="8.104111">
        <ele>320.383412</ele>
        <time>2021-11-17T00:11:23.530Z</time>
      </trkpt>
      <trkpt lat="47.570786" lon="8.104202">
        <ele>319.301854</ele>
        <time>2021-11-17T00:11:26.121Z</time>
      </trkpt>
      <trkpt lat="47.570863" lon="8.104203">
        <ele>319.000013</ele>
        <time>2021-11-17T00:11:26.876Z</time>
      </trkpt>
      <trkpt lat="47.571140" lon="8.104418">
        <ele>317.774343</ele>
        <time>2021-11-17T00:11:29.834Z</time>
      </trkpt>
      <trkpt lat="47.571149" lon="8.104460">
        <ele>317.657800</ele>
        <time>2021-11-17T00:11:30.149Z</time>
      </trkpt>
      <trkpt lat="47.571165" lon="8.104498">
        <ele>317.539340</ele>
        <time>2021-11-17T00:11:30.486Z</time>
      </trkpt>
      <trkpt lat="47.571190" lon="8.104530">
        <ele>317.409859</ele>
        <time>2021-11-17T00:11:30.802Z</time>
      </trkpt>
      <trkpt lat="47.571252" lon="8.104556">
        <ele>317.220184</ele>
        <time>2021-11-17T00:11:31.443Z</time>
      </trkpt>
      <trkpt lat="47.571285" lon="8.104547">
        <ele>317.141363</ele>
        <time>2021-11-17T00:11:31.760Z</time>
      </trkpt>
      <trkpt lat="47.571319" lon="8.104520">
        <ele>317.050754</ele>
        <time>2021-11-17T00:11:32.125Z</time>
      </trkpt>
      <trkpt lat="47.571345" lon="8.104476">
        <ele>316.958056</ele>
        <time>2021-11-17T00:11:32.488Z</time>
      </trkpt>
      <trkpt lat="47.571404" lon="8.104462">
        <ele>316.817696</ele>
        <time>2021-11-17T00:11:33.030Z</time>
      </trkpt>
      <trkpt lat="47.571506" lon="8.104457">
        <ele>316.577960</ele>
        <time>2021-11-17T00:11:34.075Z</time>
      </trkpt>
      <trkpt lat="47.571606" lon="8.104456">
        <ele>316.343048</ele>
        <time>2021-11-17T00:11:35.052Z</time>
      </trkpt>
      <trkpt lat="47.571788" lon="8.104486">
        <ele>315.912881</ele>
        <time>2021-11-17T00:11:36.755Z</time>
      </trkpt>
      <trkpt lat="47.572479" lon="8.104559">
        <ele>314.285557</ele>
        <time>2021-11-17T00:11:44.125Z</time>
      </trkpt>
      <trkpt lat="47.573291" lon="8.104448">
        <ele>313.612955</ele>
        <time>2021-11-17T00:11:55.559Z</time>
      </trkpt>
      <trkpt lat="47.573366" lon="8.104434">
        <ele>313.742314</ele>
        <time>2021-11-17T00:11:58.027Z</time>
      </trkpt>
      <trkpt lat="47.573446" lon="8.104418">
        <ele>313.880456</ele>
        <time>2021-11-17T00:12:00.280Z</time>
      </trkpt>
      <trkpt lat="47.573480" lon="8.104411">
        <ele>313.939198</ele>
        <time>2021-11-17T00:12:01.148Z</time>
      </trkpt>
      <trkpt lat="47.573668" lon="8.104380">
        <ele>314.262902</ele>
        <time>2021-11-17T00:12:04.953Z</time>
      </trkpt>
      <trkpt lat="47.573831" lon="8.104354">
        <ele>314.543450</ele>
        <time>2021-11-17T00:12:09.810Z</time>
      </trkpt>
      <trkpt lat="47.574232" lon="8.104312">
        <ele>315.231382</ele>
        <time>2021-11-17T00:12:19.499Z</time>
      </trkpt>
      <trkpt lat="47.574708" lon="8.104323">
        <ele>316.046047</ele>
        <time>2021-11-17T00:12:30.504Z</time>
      </trkpt>
      <trkpt lat="47.574899" lon="8.104362">
        <ele>316.224656</ele>
        <time>2021-11-17T00:12:36.066Z</time>
      </trkpt>
      <trkpt lat="47.575253" lon="8.104463">
        <ele>316.394689</ele>
        <time>2021-11-17T00:12:43.231Z</time>
      </trkpt>
      <trkpt lat="47.576181" lon="8.104949">
        <ele>316.858905</ele>
        <time>2021-11-17T00:12:57.801Z</time>
      </trkpt>
      <trkpt lat="47.576601" lon="8.105189">
        <ele>317.042143</ele>
        <time>2021-11-17T00:13:03.673Z</time>
      </trkpt>
      <trkpt lat="47.576841" lon="8.105315">
        <ele>317.099656</ele>
        <time>2021-11-17T00:13:07.049Z</time>
      </trkpt>
      <trkpt lat="47.577500" lon="8.105730">
        <ele>317.261391</ele>
        <time>2021-11-17T00:13:17.528Z</time>
      </trkpt>
      <trkpt lat="47.578068" lon="8.106263">
        <ele>317.413241</ele>
        <time>2021-11-17T00:13:29.041Z</time>
      </trkpt>
      <trkpt lat="47.578187" lon="8.106429">
        <ele>317.631743</ele>
        <time>2021-11-17T00:13:32.245Z</time>
      </trkpt>
      <trkpt lat="47.578335" lon="8.106654">
        <ele>317.985445</ele>
        <time>2021-11-17T00:13:36.402Z</time>
      </trkpt>
      <trkpt lat="47.579759" lon="8.109482">
        <ele>322.173364</ele>
        <time>2021-11-17T00:14:29.860Z</time>
      </trkpt>
      <trkpt lat="47.579823" lon="8.109617">
        <ele>322.385220</ele>
        <time>2021-11-17T00:14:32.674Z</time>
      </trkpt>
      <trkpt lat="47.579991" lon="8.109948">
        <ele>322.917067</ele>
        <time>2021-11-17T00:14:38.649Z</time>
      </trkpt>
      <trkpt lat="47.580212" lon="8.110399">
        <ele>323.632780</ele>
        <time>2021-11-17T00:14:46.830Z</time>
      </trkpt>
      <trkpt lat="47.580364" lon="8.110708">
        <ele>324.193630</ele>
        <time>2021-11-17T00:14:52.642Z</time>
      </trkpt>
      <trkpt lat="47.580670" lon="8.111332">
        <ele>325.433245</ele>
        <time>2021-11-17T00:15:04.529Z</time>
      </trkpt>
      <trkpt lat="47.581045" lon="8.112180">
        <ele>327.062533</ele>
        <time>2021-11-17T00:15:20.828Z</time>
      </trkpt>
      <trkpt lat="47.581182" lon="8.112552">
        <ele>327.743552</ele>
        <time>2021-11-17T00:15:28.269Z</time>
      </trkpt>
      <trkpt lat="47.581277" lon="8.112870">
        <ele>328.368197</ele>
        <time>2021-11-17T00:15:34.701Z</time>
      </trkpt>
      <trkpt lat="47.581391" lon="8.113276">
        <ele>329.345586</ele>
        <time>2021-11-17T00:15:43.633Z</time>
      </trkpt>
      <trkpt lat="47.581427" lon="8.113428">
        <ele>329.703624</ele>
        <time>2021-11-17T00:15:46.745Z</time>
      </trkpt>
      <trkpt lat="47.581503" lon="8.113781">
        <ele>330.527156</ele>
        <time>2021-11-17T00:15:54.200Z</time>
      </trkpt>
      <trkpt lat="47.581610" lon="8.114392">
        <ele>331.930113</ele>
        <time>2021-11-17T00:16:06.522Z</time>
      </trkpt>
      <trkpt lat="47.581698" lon="8.115075">
        <ele>333.475512</ele>
        <time>2021-11-17T00:16:19.562Z</time>
      </trkpt>
      <trkpt lat="47.581747" lon="8.115421">
        <ele>334.201057</ele>
        <time>2021-11-17T00:16:26.034Z</time>
      </trkpt>
      <trkpt lat="47.581851" lon="8.116146">
        <ele>335.363265</ele>
        <time>2021-11-17T00:16:38.695Z</time>
      </trkpt>
      <trkpt lat="47.582058" lon="8.118074">
        <ele>338.531357</ele>
        <time>2021-11-17T00:17:07.687Z</time>
      </trkpt>
      <trkpt lat="47.581997" lon="8.119489">
        <ele>342.029554</ele>
        <time>2021-11-17T00:17:34.902Z</time>
      </trkpt>
      <trkpt lat="47.581925" lon="8.120891">
        <ele>345.137248</ele>
        <time>2021-11-17T00:18:07.253Z</time>
      </trkpt>
      <trkpt lat="47.581872" lon="8.121939">
        <ele>346.356379</ele>
        <time>2021-11-17T00:18:27.861Z</time>
      </trkpt>
      <trkpt lat="47.581853" lon="8.122293">
        <ele>346.768331</ele>
        <time>2021-11-17T00:18:33.604Z</time>
      </trkpt>
      <trkpt lat="47.581616" lon="8.126107">
        <ele>344.462480</ele>
        <time>2021-11-17T00:19:03.213Z</time>
      </trkpt>
      <trkpt lat="47.581682" lon="8.126961">
        <ele>343.125409</ele>
        <time>2021-11-17T00:19:08.808Z</time>
      </trkpt>
      <trkpt lat="47.581995" lon="8.128036">
        <ele>341.304145</ele>
        <time>2021-11-17T00:19:17.145Z</time>
      </trkpt>
      <trkpt lat="47.582054" lon="8.128175">
        <ele>341.048689</ele>
        <time>2021-11-17T00:19:18.334Z</time>
      </trkpt>
      <trkpt lat="47.582271" lon="8.128732">
        <ele>340.857142</ele>
        <time>2021-11-17T00:19:24.340Z</time>
      </trkpt>
      <trkpt lat="47.582333" lon="8.128926">
        <ele>341.017873</ele>
        <time>2021-11-17T00:19:26.986Z</time>
      </trkpt>
      <trkpt lat="47.582383" lon="8.129121">
        <ele>341.174067</ele>
        <time>2021-11-17T00:19:28.939Z</time>
      </trkpt>
      <trkpt lat="47.582452" lon="8.129518">
        <ele>341.481018</ele>
        <time>2021-11-17T00:19:34.476Z</time>
      </trkpt>
      <trkpt lat="47.582476" lon="8.129918">
        <ele>341.781690</ele>
        <time>2021-11-17T00:19:39.980Z</time>
      </trkpt>
      <trkpt lat="47.582502" lon="8.130347">
        <ele>342.104185</ele>
        <time>2021-11-17T00:19:46.448Z</time>
      </trkpt>
      <trkpt lat="47.582401" lon="8.132729">
        <ele>343.215929</ele>
        <time>2021-11-17T00:20:25.965Z</time>
      </trkpt>
      <trkpt lat="47.582405" lon="8.133220">
        <ele>343.392677</ele>
        <time>2021-11-17T00:20:29.852Z</time>
      </trkpt>
      <trkpt lat="47.582445" lon="8.133813">
        <ele>343.002725</ele>
        <time>2021-11-17T00:20:34.081Z</time>
      </trkpt>
      <trkpt lat="47.582702" lon="8.135441">
        <ele>337.179866</ele>
        <time>2021-11-17T00:20:44.720Z</time>
      </trkpt>
      <trkpt lat="47.583161" lon="8.137044">
        <ele>330.265453</ele>
        <time>2021-11-17T00:20:55.272Z</time>
      </trkpt>
      <trkpt lat="47.583437" lon="8.137880">
        <ele>326.149404</ele>
        <time>2021-11-17T00:21:00.988Z</time>
      </trkpt>
      <trkpt lat="47.583514" lon="8.138100">
        <ele>325.053344</ele>
        <time>2021-11-17T00:21:02.554Z</time>
      </trkpt>
      <trkpt lat="47.583879" lon="8.139148">
        <ele>320.236488</ele>
        <time>2021-11-17T00:21:09.711Z</time>
      </trkpt>
      <trkpt lat="47.584040" lon="8.139585">
        <ele>318.367963</ele>
        <time>2021-11-17T00:21:12.835Z</time>
      </trkpt>
      <trkpt lat="47.584156" lon="8.139467">
        <ele>317.585313</ele>
        <time>2021-11-17T00:21:14.094Z</time>
      </trkpt>
      <trkpt lat="47.584278" lon="8.139277">
        <ele>316.600932</ele>
        <time>2021-11-17T00:21:15.844Z</time>
      </trkpt>
      <trkpt lat="47.584308" lon="8.139232">
        <ele>316.363508</ele>
        <time>2021-11-17T00:21:16.223Z</time>
      </trkpt>
      <trkpt lat="47.584365" lon="8.139157">
        <ele>315.939521</ele>
        <time>2021-11-17T00:21:16.899Z</time>
      </trkpt>
      <trkpt lat="47.584557" lon="8.139005">
        <ele>314.728613</ele>
        <time>2021-11-17T00:21:19.077Z</time>
      </trkpt>
      <trkpt lat="47.584717" lon="8.138979">
        <ele>313.833148</ele>
        <time>2021-11-17T00:21:20.540Z</time>
      </trkpt>
      <trkpt lat="47.584806" lon="8.138964">
        <ele>313.334822</ele>
        <time>2021-11-17T00:21:21.424Z</time>
      </trkpt>
      <trkpt lat="47.585340" lon="8.139503">
        <ele>311.004913</ele>
        <time>2021-11-17T00:21:27.549Z</time>
      </trkpt>
      <trkpt lat="47.585467" lon="8.139649">
        <ele>310.525624</ele>
        <time>2021-11-17T00:21:29.149Z</time>
      </trkpt>
      <trkpt lat="47.585520" lon="8.139610">
        <ele>310.349159</ele>
        <time>2021-11-17T00:21:29.741Z</time>
      </trkpt>
      <trkpt lat="47.586064" lon="8.139426">
        <ele>308.685054</ele>
        <time>2021-11-17T00:21:35.510Z</time>
      </trkpt>
      <trkpt lat="47.586400" lon="8.139320">
        <ele>307.660536</ele>
        <time>2021-11-17T00:21:39.338Z</time>
      </trkpt>
      <trkpt lat="47.586494" lon="8.139309">
        <ele>307.379319</ele>
        <time>2021-11-17T00:21:40.309Z</time>
      </trkpt>
      <trkpt lat="47.588355" lon="8.138811">
        <ele>306.373250</ele>
        <time>2021-11-17T00:22:06.173Z</time>
      </trkpt>
      <trkpt lat="47.588762" lon="8.138925">
        <ele>306.755442</ele>
        <time>2021-11-17T00:22:13.586Z</time>
      </trkpt>
      <trkpt lat="47.588849" lon="8.139014">
        <ele>306.853240</ele>
        <time>2021-11-17T00:22:15.719Z</time>
      </trkpt>
      <trkpt lat="47.588921" lon="8.138996">
        <ele>306.920799</ele>
        <time>2021-11-17T00:22:24.018Z</time>
      </trkpt>
      <trkpt lat="47.588961" lon="8.138999">
        <ele>306.957856</ele>
        <time>2021-11-17T00:22:28.565Z</time>
      </trkpt>
      <trkpt lat="47.588988" lon="8.138979">
        <ele>306.985783</ele>
        <time>2021-11-17T00:22:31.997Z</time>
      </trkpt>
      <trkpt lat="47.589010" lon="8.138950">
        <ele>307.013020</ele>
        <time>2021-11-17T00:22:35.484Z</time>
      </trkpt>
      <trkpt lat="47.589034" lon="8.138899">
        <ele>307.051827</ele>
        <time>2021-11-17T00:22:40.207Z</time>
      </trkpt>
      <trkpt lat="47.589035" lon="8.138792">
        <ele>307.118605</ele>
        <time>2021-11-17T00:22:48.595Z</time>
      </trkpt>
      <trkpt lat="47.589075" lon="8.137452">
        <ele>307.955631</ele>
        <time>2021-11-17T00:23:10.951Z</time>
      </trkpt>
      <trkpt lat="47.589120" lon="8.136200">
        <ele>309.242434</ele>
        <time>2021-11-17T00:23:28.248Z</time>
      </trkpt>
      <trkpt lat="47.589138" lon="8.135853">
        <ele>309.615909</ele>
        <time>2021-11-17T00:23:34.116Z</time>
      </trkpt>
      <trkpt lat="47.589491" lon="8.135869">
        <ele>310.177841</ele>
        <time>2021-11-17T00:23:42.129Z</time>
      </trkpt>
      <trkpt lat="47.589730" lon="8.135855">
        <ele>310.558418</ele>
        <time>2021-11-17T00:23:47.256Z</time>
      </trkpt>
      <trkpt lat="47.589749" lon="8.135792">
        <ele>310.632476</ele>
        <time>2021-11-17T00:23:48.025Z</time>
      </trkpt>
      <trkpt lat="47.589862" lon="8.134673">
        <ele>311.639610</ele>
        <time>2021-11-17T00:24:03.331Z</time>
      </trkpt>
      <trkpt lat="47.589882" lon="8.134609">
        <ele>311.698764</ele>
        <time>2021-11-17T00:24:04.402Z</time>
      </trkpt>
      <trkpt lat="47.589915" lon="8.134585">
        <ele>311.744468</ele>
        <time>2021-11-17T00:24:04.818Z</time>
      </trkpt>
      <trkpt lat="47.590548" lon="8.134710">
        <ele>312.538531</ele>
        <time>2021-11-17T00:24:17.516Z</time>
      </trkpt>
      <trkpt lat="47.590681" lon="8.134711">
        <ele>312.703913</ele>
        <time>2021-11-17T00:24:19.950Z</time>
      </trkpt>
      <trkpt lat="47.590729" lon="8.134772">
        <ele>312.782522</ele>
        <time>2021-11-17T00:24:21.349Z</time>
      </trkpt>
      <trkpt lat="47.591316" lon="8.134958">
        <ele>313.726995</ele>
        <time>2021-11-17T00:24:33.340Z</time>
      </trkpt>
      <trkpt lat="47.591403" lon="8.134907">
        <ele>313.901903</ele>
        <time>2021-11-17T00:24:34.722Z</time>
      </trkpt>
      <trkpt lat="47.591423" lon="8.134826">
        <ele>314.010667</ele>
        <time>2021-11-17T00:24:35.700Z</time>
      </trkpt>
      <trkpt lat="47.591492" lon="8.134487">
        <ele>314.457157</ele>
        <time>2021-11-17T00:24:40.378Z</time>
      </trkpt>
      <trkpt lat="47.591519" lon="8.134311">
        <ele>314.684745</ele>
        <time>2021-11-17T00:24:42.630Z</time>
      </trkpt>
      <trkpt lat="47.591534" lon="8.134213">
        <ele>314.811457</ele>
        <time>2021-11-17T00:24:44.348Z</time>
      </trkpt>
      <trkpt lat="47.591574" lon="8.134124">
        <ele>314.946313</ele>
        <time>2021-11-17T00:24:46.096Z</time>
      </trkpt>
      <trkpt lat="47.591641" lon="8.133972">
        <ele>315.175276</ele>
        <time>2021-11-17T00:24:48.381Z</time>
      </trkpt>
      <trkpt lat="47.592031" lon="8.133513">
        <ele>316.106204</ele>
        <time>2021-11-17T00:25:00.690Z</time>
      </trkpt>
      <trkpt lat="47.592062" lon="8.133399">
        <ele>316.261191</ele>
        <time>2021-11-17T00:25:03.263Z</time>
      </trkpt>
      <trkpt lat="47.592571" lon="8.132886">
        <ele>317.999753</ele>
        <time>2021-11-17T00:25:19.933Z</time>
      </trkpt>
      <trkpt lat="47.592658" lon="8.132770">
        <ele>318.359284</ele>
        <time>2021-11-17T00:25:23.652Z</time>
      </trkpt>
      <trkpt lat="47.592719" lon="8.132686">
        <ele>318.615096</ele>
        <time>2021-11-17T00:25:25.794Z</time>
      </trkpt>
      <trkpt lat="47.592814" lon="8.132534">
        <ele>319.044567</ele>
        <time>2021-11-17T00:25:29.209Z</time>
      </trkpt>
      <trkpt lat="47.592836" lon="8.132464">
        <ele>319.204611</ele>
        <time>2021-11-17T00:25:30.627Z</time>
      </trkpt>
      <trkpt lat="47.592867" lon="8.132225">
        <ele>319.708982</ele>
        <time>2021-11-17T00:25:35.391Z</time>
      </trkpt>
      <trkpt lat="47.592852" lon="8.131926">
        <ele>320.330328</ele>
        <time>2021-11-17T00:25:40.679Z</time>
      </trkpt>
      <trkpt lat="47.592756" lon="8.131619">
        <ele>321.031607</ele>
        <time>2021-11-17T00:25:47.229Z</time>
      </trkpt>
      <trkpt lat="47.592645" lon="8.131446">
        <ele>321.526461</ele>
        <time>2021-11-17T00:25:51.678Z</time>
      </trkpt>
      <trkpt lat="47.592405" lon="8.131115">
        <ele>322.562766</ele>
        <time>2021-11-17T00:26:00.212Z</time>
      </trkpt>
      <trkpt lat="47.592252" lon="8.130776">
        <ele>323.456532</ele>
        <time>2021-11-17T00:26:07.791Z</time>
      </trkpt>
      <trkpt lat="47.592238" lon="8.130462">
        <ele>324.146037</ele>
        <time>2021-11-17T00:26:13.315Z</time>
      </trkpt>
      <trkpt lat="47.592250" lon="8.130375">
        <ele>324.340609</ele>
        <time>2021-11-17T00:26:15.095Z</time>
      </trkpt>
      <trkpt lat="47.592262" lon="8.130337">
        <ele>324.432546</ele>
        <time>2021-11-17T00:26:15.958Z</time>
      </trkpt>
      <trkpt lat="47.592418" lon="8.130083">
        <ele>325.185284</ele>
        <time>2021-11-17T00:26:21.495Z</time>
      </trkpt>
      <trkpt lat="47.592466" lon="8.130020">
        <ele>325.393550</ele>
        <time>2021-11-17T00:26:23.564Z</time>
      </trkpt>
      <trkpt lat="47.592515" lon="8.129957">
        <ele>325.604260</ele>
        <time>2021-11-17T00:26:25.638Z</time>
      </trkpt>
      <trkpt lat="47.592584" lon="8.129875">
        <ele>325.891551</ele>
        <time>2021-11-17T00:26:27.977Z</time>
      </trkpt>
      <trkpt lat="47.592610" lon="8.129906">
        <ele>325.999945</ele>
        <time>2021-11-17T00:26:28.834Z</time>
      </trkpt>
      <trkpt lat="47.592642" lon="8.129925">
        <ele>326.111936</ele>
        <time>2021-11-17T00:26:29.875Z</time>
      </trkpt>
      <trkpt lat="47.592708" lon="8.129916">
        <ele>326.327271</ele>
        <time>2021-11-17T00:26:31.686Z</time>
      </trkpt>
      <trkpt lat="47.592737" lon="8.129890">
        <ele>326.437374</ele>
        <time>2021-11-17T00:26:32.889Z</time>
      </trkpt>
      <trkpt lat="47.592762" lon="8.129848">
        <ele>326.560117</ele>
        <time>2021-11-17T00:26:34.120Z</time>
      </trkpt>
      <trkpt lat="47.592775" lon="8.129797">
        <ele>326.679577</ele>
        <time>2021-11-17T00:26:35.273Z</time>
      </trkpt>
      <trkpt lat="47.592776" lon="8.129742">
        <ele>326.800130</ele>
        <time>2021-11-17T00:26:36.518Z</time>
      </trkpt>
      <trkpt lat="47.592769" lon="8.129700">
        <ele>326.894923</ele>
        <time>2021-11-17T00:26:37.181Z</time>
      </trkpt>
      <trkpt lat="47.592734" lon="8.129633">
        <ele>327.080615</ele>
        <time>2021-11-17T00:26:38.600Z</time>
      </trkpt>
      <trkpt lat="47.592710" lon="8.129612">
        <ele>327.171153</ele>
        <time>2021-11-17T00:26:39.251Z</time>
      </trkpt>
      <trkpt lat="47.592730" lon="8.129513">
        <ele>327.397593</ele>
        <time>2021-11-17T00:26:41.095Z</time>
      </trkpt>
      <trkpt lat="47.592790" lon="8.129276">
        <ele>327.983803</ele>
        <time>2021-11-17T00:26:46.784Z</time>
      </trkpt>
      <trkpt lat="47.592842" lon="8.129002">
        <ele>328.844141</ele>
        <time>2021-11-17T00:26:51.695Z</time>
      </trkpt>
      <trkpt lat="47.592890" lon="8.128474">
        <ele>330.454466</ele>
        <time>2021-11-17T00:27:02.672Z</time>
      </trkpt>
      <trkpt lat="47.592904" lon="8.128153">
        <ele>331.426721</ele>
        <time>2021-11-17T00:27:09.927Z</time>
      </trkpt>
      <trkpt lat="47.592940" lon="8.127847">
        <ele>332.365579</ele>
        <time>2021-11-17T00:27:17.020Z</time>
      </trkpt>
      <trkpt lat="47.593010" lon="8.127451">
        <ele>333.602927</ele>
        <time>2021-11-17T00:27:26.809Z</time>
      </trkpt>
      <trkpt lat="47.593149" lon="8.126960">
        <ele>335.212431</ele>
        <time>2021-11-17T00:27:39.735Z</time>
      </trkpt>
      <trkpt lat="47.593221" lon="8.126726">
        <ele>336.005960</ele>
        <time>2021-11-17T00:27:45.060Z</time>
      </trkpt>
      <trkpt lat="47.593285" lon="8.126540">
        <ele>336.808203</ele>
        <time>2021-11-17T00:27:50.583Z</time>
      </trkpt>
      <trkpt lat="47.593382" lon="8.126293">
        <ele>337.906335</ele>
        <time>2021-11-17T00:27:56.612Z</time>
      </trkpt>
      <trkpt lat="47.593457" lon="8.126120">
        <ele>338.696478</ele>
        <time>2021-11-17T00:28:01.710Z</time>
      </trkpt>
      <trkpt lat="47.593536" lon="8.125950">
        <ele>339.489654</ele>
        <time>2021-11-17T00:28:06.287Z</time>
      </trkpt>
      <trkpt lat="47.593606" lon="8.125816">
        <ele>340.140858</ele>
        <time>2021-11-17T00:28:09.119Z</time>
      </trkpt>
      <trkpt lat="47.593621" lon="8.125790">
        <ele>340.272313</ele>
        <time>2021-11-17T00:28:10.338Z</time>
      </trkpt>
      <trkpt lat="47.593722" lon="8.125617">
        <ele>341.151424</ele>
        <time>2021-11-17T00:28:15.609Z</time>
      </trkpt>
      <trkpt lat="47.594022" lon="8.125313">
        <ele>343.221456</ele>
        <time>2021-11-17T00:28:29.631Z</time>
      </trkpt>
      <trkpt lat="47.594324" lon="8.125162">
        <ele>345.037102</ele>
        <time>2021-11-17T00:28:42.725Z</time>
      </trkpt>
      <trkpt lat="47.594630" lon="8.125174">
        <ele>347.024331</ele>
        <time>2021-11-17T00:28:56.099Z</time>
      </trkpt>
      <trkpt lat="47.595021" lon="8.125427">
        <ele>350.434068</ele>
        <time>2021-11-17T00:29:15.280Z</time>
      </trkpt>
      <trkpt lat="47.595068" lon="8.125478">
        <ele>350.899563</ele>
        <time>2021-11-17T00:29:19.236Z</time>
      </trkpt>
      <trkpt lat="47.595440" lon="8.125887">
        <ele>354.600974</ele>
        <time>2021-11-17T00:29:40.935Z</time>
      </trkpt>
      <trkpt lat="47.595832" lon="8.126161">
        <ele>358.064757</ele>
        <time>2021-11-17T00:30:00.613Z</time>
      </trkpt>
      <trkpt lat="47.596245" lon="8.126326">
        <ele>361.371701</ele>
        <time>2021-11-17T00:30:21.567Z</time>
      </trkpt>
      <trkpt lat="47.596396" lon="8.126327">
        <ele>362.433615</ele>
        <time>2021-11-17T00:30:31.224Z</time>
      </trkpt>
      <trkpt lat="47.596572" lon="8.126294">
        <ele>363.681184</ele>
        <time>2021-11-17T00:30:38.709Z</time>
      </trkpt>
      <trkpt lat="47.596737" lon="8.126261">
        <ele>364.852047</ele>
        <time>2021-11-17T00:30:47.683Z</time>
      </trkpt>
      <trkpt lat="47.596990" lon="8.125976">
        <ele>367.086393</ele>
        <time>2021-11-17T00:31:00.823Z</time>
      </trkpt>
      <trkpt lat="47.597203" lon="8.125755">
        <ele>368.914547</ele>
        <time>2021-11-17T00:31:10.665Z</time>
      </trkpt>
      <trkpt lat="47.597372" lon="8.125534">
        <ele>370.499125</ele>
        <time>2021-11-17T00:31:21.093Z</time>
      </trkpt>
      <trkpt lat="47.597805" lon="8.125249">
        <ele>373.674828</ele>
        <time>2021-11-17T00:31:38.499Z</time>
      </trkpt>
      <trkpt lat="47.598391" lon="8.124142">
        <ele>378.694228</ele>
        <time>2021-11-17T00:32:09.644Z</time>
      </trkpt>
      <trkpt lat="47.598500" lon="8.123509">
        <ele>381.024293</ele>
        <time>2021-11-17T00:32:24.914Z</time>
      </trkpt>
      <trkpt lat="47.598619" lon="8.123313">
        <ele>381.964931</ele>
        <time>2021-11-17T00:32:31.573Z</time>
      </trkpt>
      <trkpt lat="47.598969" lon="8.123240">
        <ele>384.327199</ele>
        <time>2021-11-17T00:32:46.164Z</time>
      </trkpt>
      <trkpt lat="47.599133" lon="8.123121">
        <ele>385.718186</ele>
        <time>2021-11-17T00:32:54.203Z</time>
      </trkpt>
      <trkpt lat="47.599554" lon="8.121948">
        <ele>392.544640</ele>
        <time>2021-11-17T00:33:35.002Z</time>
      </trkpt>
      <trkpt lat="47.599666" lon="8.121843">
        <ele>393.554120</ele>
        <time>2021-11-17T00:33:41.685Z</time>
      </trkpt>
      <trkpt lat="47.599782" lon="8.121814">
        <ele>394.450341</ele>
        <time>2021-11-17T00:33:47.616Z</time>
      </trkpt>
      <trkpt lat="47.599965" lon="8.121910">
        <ele>395.929193</ele>
        <time>2021-11-17T00:33:57.801Z</time>
      </trkpt>
      <trkpt lat="47.600113" lon="8.122232">
        <ele>397.563797</ele>
        <time>2021-11-17T00:34:12.017Z</time>
      </trkpt>
      <trkpt lat="47.600352" lon="8.123023">
        <ele>400.935444</ele>
        <time>2021-11-17T00:34:36.361Z</time>
      </trkpt>
      <trkpt lat="47.600526" lon="8.123291">
        <ele>402.382608</ele>
        <time>2021-11-17T00:34:46.404Z</time>
      </trkpt>
      <trkpt lat="47.600861" lon="8.123386">
        <ele>404.350144</ele>
        <time>2021-11-17T00:34:58.036Z</time>
      </trkpt>
      <trkpt lat="47.601156" lon="8.123343">
        <ele>406.060117</ele>
        <time>2021-11-17T00:35:07.053Z</time>
      </trkpt>
      <trkpt lat="47.601429" lon="8.123093">
        <ele>406.685047</ele>
        <time>2021-11-17T00:35:15.472Z</time>
      </trkpt>
      <trkpt lat="47.601547" lon="8.122801">
        <ele>406.555630</ele>
        <time>2021-11-17T00:35:20.587Z</time>
      </trkpt>
      <trkpt lat="47.601654" lon="8.122431">
        <ele>406.402579</ele>
        <time>2021-11-17T00:35:26.061Z</time>
      </trkpt>
      <trkpt lat="47.601696" lon="8.121784">
        <ele>406.155477</ele>
        <time>2021-11-17T00:35:30.790Z</time>
      </trkpt>
      <trkpt lat="47.601617" lon="8.121097">
        <ele>405.890534</ele>
        <time>2021-11-17T00:35:35.550Z</time>
      </trkpt>
      <trkpt lat="47.601430" lon="8.120710">
        <ele>405.681039</ele>
        <time>2021-11-17T00:35:38.838Z</time>
      </trkpt>
      <trkpt lat="47.601109" lon="8.120324">
        <ele>405.353975</ele>
        <time>2021-11-17T00:35:43.661Z</time>
      </trkpt>
      <trkpt lat="47.601014" lon="8.120104">
        <ele>405.214562</ele>
        <time>2021-11-17T00:35:45.468Z</time>
      </trkpt>
      <trkpt lat="47.601015" lon="8.119536">
        <ele>404.911448</ele>
        <time>2021-11-17T00:35:49.971Z</time>
      </trkpt>
      <trkpt lat="47.601146" lon="8.118886">
        <ele>404.549415</ele>
        <time>2021-11-17T00:35:55.847Z</time>
      </trkpt>
      <trkpt lat="47.601754" lon="8.117487">
        <ele>408.477686</ele>
        <time>2021-11-17T00:36:24.715Z</time>
      </trkpt>
      <trkpt lat="47.602008" lon="8.116660">
        <ele>411.351494</ele>
        <time>2021-11-17T00:36:50.249Z</time>
      </trkpt>
      <trkpt lat="47.602040" lon="8.116422">
        <ele>412.118952</ele>
        <time>2021-11-17T00:36:59.278Z</time>
      </trkpt>
      <trkpt lat="47.602070" lon="8.116218">
        <ele>412.779238</ele>
        <time>2021-11-17T00:37:04.305Z</time>
      </trkpt>
      <trkpt lat="47.602160" lon="8.115597">
        <ele>415.446996</ele>
        <time>2021-11-17T00:37:22.428Z</time>
      </trkpt>
      <trkpt lat="47.602190" lon="8.115387">
        <ele>416.350024</ele>
        <time>2021-11-17T00:37:30.544Z</time>
      </trkpt>
      <trkpt lat="47.602299" lon="8.115102">
        <ele>417.728385</ele>
        <time>2021-11-17T00:37:38.273Z</time>
      </trkpt>
      <trkpt lat="47.602486" lon="8.114839">
        <ele>419.336243</ele>
        <time>2021-11-17T00:37:49.989Z</time>
      </trkpt>
      <trkpt lat="47.603292" lon="8.114537">
        <ele>424.333715</ele>
        <time>2021-11-17T00:38:20.069Z</time>
      </trkpt>
      <trkpt lat="47.603491" lon="8.114397">
        <ele>425.197258</ele>
        <time>2021-11-17T00:38:27.773Z</time>
      </trkpt>
      <trkpt lat="47.603875" lon="8.113901">
        <ele>427.193724</ele>
        <time>2021-11-17T00:38:40.927Z</time>
      </trkpt>
      <trkpt lat="47.604126" lon="8.113234">
        <ele>429.212981</ele>
        <time>2021-11-17T00:38:54.493Z</time>
      </trkpt>
      <trkpt lat="47.604115" lon="8.112594">
        <ele>430.905379</ele>
        <time>2021-11-17T00:39:07.750Z</time>
      </trkpt>
      <trkpt lat="47.604174" lon="8.112238">
        <ele>432.515153</ele>
        <time>2021-11-17T00:39:16.577Z</time>
      </trkpt>
      <trkpt lat="47.604293" lon="8.111846">
        <ele>434.551921</ele>
        <time>2021-11-17T00:39:27.773Z</time>
      </trkpt>
      <trkpt lat="47.604385" lon="8.111694">
        <ele>435.519658</ele>
        <time>2021-11-17T00:39:32.606Z</time>
      </trkpt>
      <trkpt lat="47.604629" lon="8.111584">
        <ele>437.311642</ele>
        <time>2021-11-17T00:39:43.003Z</time>
      </trkpt>
      <trkpt lat="47.604886" lon="8.111678">
        <ele>439.171621</ele>
        <time>2021-11-17T00:39:55.298Z</time>
      </trkpt>
      <trkpt lat="47.605059" lon="8.111643">
        <ele>440.398507</ele>
        <time>2021-11-17T00:40:03.010Z</time>
      </trkpt>
      <trkpt lat="47.605242" lon="8.111516">
        <ele>441.818210</ele>
        <time>2021-11-17T00:40:14.356Z</time>
      </trkpt>
      <trkpt lat="47.606083" lon="8.110932">
        <ele>449.037661</ele>
        <time>2021-11-17T00:41:01.651Z</time>
      </trkpt>
      <trkpt lat="47.606243" lon="8.110732">
        <ele>450.728033</ele>
        <time>2021-11-17T00:41:13.305Z</time>
      </trkpt>
      <trkpt lat="47.606336" lon="8.110850">
        <ele>451.716731</ele>
        <time>2021-11-17T00:41:18.805Z</time>
      </trkpt>
      <trkpt lat="47.606490" lon="8.111048">
        <ele>453.363175</ele>
        <time>2021-11-17T00:41:30.207Z</time>
      </trkpt>
      <trkpt lat="47.607325" lon="8.112094">
        <ele>459.411853</ele>
        <time>2021-11-17T00:42:13.386Z</time>
      </trkpt>
      <trkpt lat="47.607709" lon="8.112594">
        <ele>460.639546</ele>
        <time>2021-11-17T00:42:26.119Z</time>
      </trkpt>
      <trkpt lat="47.608167" lon="8.113028">
        <ele>461.945362</ele>
        <time>2021-11-17T00:42:34.442Z</time>
      </trkpt>
      <trkpt lat="47.608434" lon="8.113311">
        <ele>462.526087</ele>
        <time>2021-11-17T00:42:38.681Z</time>
      </trkpt>
      <trkpt lat="47.608962" lon="8.113861">
        <ele>462.263113</ele>
        <time>2021-11-17T00:42:46.455Z</time>
      </trkpt>
      <trkpt lat="47.609449" lon="8.114456">
        <ele>462.005951</ele>
        <time>2021-11-17T00:42:54.205Z</time>
      </trkpt>
      <trkpt lat="47.609729" lon="8.114725">
        <ele>461.869980</ele>
        <time>2021-11-17T00:42:59.559Z</time>
      </trkpt>
      <trkpt lat="47.610234" lon="8.115026">
        <ele>462.763199</ele>
        <time>2021-11-17T00:43:10.216Z</time>
      </trkpt>
      <trkpt lat="47.610490" lon="8.115012">
        <ele>463.324221</ele>
        <time>2021-11-17T00:43:15.298Z</time>
      </trkpt>
      <trkpt lat="47.610552" lon="8.114994">
        <ele>463.462578</ele>
        <time>2021-11-17T00:43:17.300Z</time>
      </trkpt>
      <trkpt lat="47.610647" lon="8.114939">
        <ele>463.685914</ele>
        <time>2021-11-17T00:43:20.126Z</time>
      </trkpt>
      <trkpt lat="47.610987" lon="8.114663">
        <ele>464.534725</ele>
        <time>2021-11-17T00:43:30.155Z</time>
      </trkpt>
      <trkpt lat="47.611108" lon="8.114509">
        <ele>464.883890</ele>
        <time>2021-11-17T00:43:33.816Z</time>
      </trkpt>
      <trkpt lat="47.611206" lon="8.114385">
        <ele>465.165986</ele>
        <time>2021-11-17T00:43:37.845Z</time>
      </trkpt>
      <trkpt lat="47.611529" lon="8.113868">
        <ele>466.516204</ele>
        <time>2021-11-17T00:43:50.483Z</time>
      </trkpt>
      <trkpt lat="47.611665" lon="8.113651">
        <ele>467.258260</ele>
        <time>2021-11-17T00:43:56.034Z</time>
      </trkpt>
      <trkpt lat="47.612209" lon="8.112958">
        <ele>469.922240</ele>
        <time>2021-11-17T00:44:16.030Z</time>
      </trkpt>
      <trkpt lat="47.612542" lon="8.112659">
        <ele>471.368343</ele>
        <time>2021-11-17T00:44:28.057Z</time>
      </trkpt>
      <trkpt lat="47.612615" lon="8.112603">
        <ele>471.673661</ele>
        <time>2021-11-17T00:44:30.491Z</time>
      </trkpt>
      <trkpt lat="47.612795" lon="8.112464">
        <ele>472.427559</ele>
        <time>2021-11-17T00:44:36.802Z</time>
      </trkpt>
      <trkpt lat="47.612893" lon="8.112388">
        <ele>473.185305</ele>
        <time>2021-11-17T00:44:41.277Z</time>
      </trkpt>
      <trkpt lat="47.613018" lon="8.112338">
        <ele>474.089585</ele>
        <time>2021-11-17T00:44:45.415Z</time>
      </trkpt>
      <trkpt lat="47.613122" lon="8.112342">
        <ele>474.816243</ele>
        <time>2021-11-17T00:44:48.937Z</time>
      </trkpt>
      <trkpt lat="47.613191" lon="8.112240">
        <ele>475.496643</ele>
        <time>2021-11-17T00:44:53.403Z</time>
      </trkpt>
      <trkpt lat="47.613578" lon="8.111922">
        <ele>478.586753</ele>
        <time>2021-11-17T00:45:11.126Z</time>
      </trkpt>
      <trkpt lat="47.613661" lon="8.111794">
        <ele>479.423020</ele>
        <time>2021-11-17T00:45:15.896Z</time>
      </trkpt>
      <trkpt lat="47.613836" lon="8.111127">
        <ele>482.793134</ele>
        <time>2021-11-17T00:45:38.455Z</time>
      </trkpt>
      <trkpt lat="47.614164" lon="8.110409">
        <ele>487.494497</ele>
        <time>2021-11-17T00:46:08.464Z</time>
      </trkpt>
      <trkpt lat="47.614442" lon="8.109519">
        <ele>493.638382</ele>
        <time>2021-11-17T00:46:45.055Z</time>
      </trkpt>
      <trkpt lat="47.614862" lon="8.108765">
        <ele>499.764734</ele>
        <time>2021-11-17T00:47:19.223Z</time>
      </trkpt>
      <trkpt lat="47.615000" lon="8.108333">
        <ele>502.617383</ele>
        <time>2021-11-17T00:47:35.774Z</time>
      </trkpt>
      <trkpt lat="47.615134" lon="8.107957">
        <ele>504.918523</ele>
        <time>2021-11-17T00:47:49.265Z</time>
      </trkpt>
      <trkpt lat="47.615250" lon="8.107767">
        <ele>506.305454</ele>
        <time>2021-11-17T00:47:57.782Z</time>
      </trkpt>
      <trkpt lat="47.615365" lon="8.107627">
        <ele>507.499476</ele>
        <time>2021-11-17T00:48:04.291Z</time>
      </trkpt>
      <trkpt lat="47.615410" lon="8.107593">
        <ele>507.904800</ele>
        <time>2021-11-17T00:48:06.741Z</time>
      </trkpt>
      <trkpt lat="47.615557" lon="8.107491">
        <ele>509.207328</ele>
        <time>2021-11-17T00:48:14.423Z</time>
      </trkpt>
      <trkpt lat="47.615619" lon="8.107473">
        <ele>509.714388</ele>
        <time>2021-11-17T00:48:17.080Z</time>
      </trkpt>
      <trkpt lat="47.615766" lon="8.107410">
        <ele>510.942479</ele>
        <time>2021-11-17T00:48:24.047Z</time>
      </trkpt>
      <trkpt lat="47.615815" lon="8.107384">
        <ele>511.360160</ele>
        <time>2021-11-17T00:48:26.725Z</time>
      </trkpt>
      <trkpt lat="47.616016" lon="8.107268">
        <ele>513.091192</ele>
        <time>2021-11-17T00:48:37.320Z</time>
      </trkpt>
      <trkpt lat="47.616207" lon="8.107146">
        <ele>514.760247</ele>
        <time>2021-11-17T00:48:46.733Z</time>
      </trkpt>
      <trkpt lat="47.616474" lon="8.106897">
        <ele>517.261343</ele>
        <time>2021-11-17T00:49:00.000Z</time>
      </trkpt>
      <trkpt lat="47.616926" lon="8.106246">
        <ele>522.183447</ele>
        <time>2021-11-17T00:49:27.773Z</time>
      </trkpt>
      <trkpt lat="47.617060" lon="8.106053">
        <ele>523.642667</ele>
        <time>2021-11-17T00:49:36.070Z</time>
      </trkpt>
      <trkpt lat="47.617128" lon="8.105955">
        <ele>524.383385</ele>
        <time>2021-11-17T00:49:41.212Z</time>
      </trkpt>
      <trkpt lat="47.617375" lon="8.105595">
        <ele>527.088760</ele>
        <time>2021-11-17T00:49:57.717Z</time>
      </trkpt>
      <trkpt lat="47.618081" lon="8.104160">
        <ele>536.071041</ele>
        <time>2021-11-17T00:50:54.337Z</time>
      </trkpt>
      <trkpt lat="47.618263" lon="8.103883">
        <ele>537.986028</ele>
        <time>2021-11-17T00:51:06.461Z</time>
      </trkpt>
      <trkpt lat="47.619263" lon="8.103083">
        <ele>544.932126</ele>
        <time>2021-11-17T00:51:52.871Z</time>
      </trkpt>
      <trkpt lat="47.619419" lon="8.103038">
        <ele>545.538948</ele>
        <time>2021-11-17T00:51:59.106Z</time>
      </trkpt>
      <trkpt lat="47.619370" lon="8.102598">
        <ele>546.686765</ele>
        <time>2021-11-17T00:52:08.500Z</time>
      </trkpt>
      <trkpt lat="47.619303" lon="8.102490">
        <ele>547.064543</ele>
        <time>2021-11-17T00:52:11.358Z</time>
      </trkpt>
      <trkpt lat="47.619238" lon="8.102397">
        <ele>547.409354</ele>
        <time>2021-11-17T00:52:13.562Z</time>
      </trkpt>
      <trkpt lat="47.619005" lon="8.102311">
        <ele>548.326157</ele>
        <time>2021-11-17T00:52:20.713Z</time>
      </trkpt>
      <trkpt lat="47.618769" lon="8.102109">
        <ele>549.366519</ele>
        <time>2021-11-17T00:52:27.395Z</time>
      </trkpt>
      <trkpt lat="47.618741" lon="8.102057">
        <ele>549.537818</ele>
        <time>2021-11-17T00:52:28.634Z</time>
      </trkpt>
      <trkpt lat="47.618654" lon="8.101893">
        <ele>550.074968</ele>
        <time>2021-11-17T00:52:31.268Z</time>
      </trkpt>
      <trkpt lat="47.618074" lon="8.100787">
        <ele>550.527681</ele>
        <time>2021-11-17T00:52:45.796Z</time>
      </trkpt>
      <trkpt lat="47.617895" lon="8.100366">
        <ele>550.618839</ele>
        <time>2021-11-17T00:52:50.207Z</time>
      </trkpt>
      <trkpt lat="47.617396" lon="8.099182">
        <ele>551.343641</ele>
        <time>2021-11-17T00:53:04.166Z</time>
      </trkpt>
      <trkpt lat="47.617139" lon="8.098576">
        <ele>552.090907</ele>
        <time>2021-11-17T00:53:13.005Z</time>
      </trkpt>
      <trkpt lat="47.617044" lon="8.098076">
        <ele>552.633107</ele>
        <time>2021-11-17T00:53:20.850Z</time>
      </trkpt>
      <trkpt lat="47.617165" lon="8.096880">
        <ele>554.234702</ele>
        <time>2021-11-17T00:53:41.804Z</time>
      </trkpt>
      <trkpt lat="47.617195" lon="8.096614">
        <ele>554.800737</ele>
        <time>2021-11-17T00:53:47.696Z</time>
      </trkpt>
      <trkpt lat="47.617226" lon="8.096351">
        <ele>555.361092</ele>
        <time>2021-11-17T00:53:52.128Z</time>
      </trkpt>
      <trkpt lat="47.617257" lon="8.096260">
        <ele>555.575084</ele>
        <time>2021-11-17T00:53:54.212Z</time>
      </trkpt>
      <trkpt lat="47.617288" lon="8.096168">
        <ele>555.790952</ele>
        <time>2021-11-17T00:53:56.855Z</time>
      </trkpt>
      <trkpt lat="47.617480" lon="8.095855">
        <ele>556.679155</ele>
        <time>2021-11-17T00:54:04.360Z</time>
      </trkpt>
      <trkpt lat="47.617920" lon="8.095173">
        <ele>558.660458</ele>
        <time>2021-11-17T00:54:22.220Z</time>
      </trkpt>
      <trkpt lat="47.618698" lon="8.093965">
        <ele>561.238542</ele>
        <time>2021-11-17T00:54:51.444Z</time>
      </trkpt>
      <trkpt lat="47.618954" lon="8.093555">
        <ele>562.049335</ele>
        <time>2021-11-17T00:55:00.452Z</time>
      </trkpt>
      <trkpt lat="47.619102" lon="8.093319">
        <ele>562.516977</ele>
        <time>2021-11-17T00:55:05.254Z</time>
      </trkpt>
      <trkpt lat="47.619464" lon="8.092810">
        <ele>562.372131</ele>
        <time>2021-11-17T00:55:13.902Z</time>
      </trkpt>
      <trkpt lat="47.619712" lon="8.092618">
        <ele>561.662906</ele>
        <time>2021-11-17T00:55:17.764Z</time>
      </trkpt>
      <trkpt lat="47.620014" lon="8.092731">
        <ele>560.873261</ele>
        <time>2021-11-17T00:55:21.503Z</time>
      </trkpt>
      <trkpt lat="47.620191" lon="8.092797">
        <ele>560.410552</ele>
        <time>2021-11-17T00:55:23.422Z</time>
      </trkpt>
      <trkpt lat="47.620663" lon="8.093010">
        <ele>559.159743</ele>
        <time>2021-11-17T00:55:28.316Z</time>
      </trkpt>
      <trkpt lat="47.621156" lon="8.092288">
        <ele>555.073968</ele>
        <time>2021-11-17T00:55:34.572Z</time>
      </trkpt>
      <trkpt lat="47.621541" lon="8.091890">
        <ele>551.288119</ele>
        <time>2021-11-17T00:55:38.659Z</time>
      </trkpt>
      <trkpt lat="47.621919" lon="8.091753">
        <ele>548.148746</ele>
        <time>2021-11-17T00:55:42.032Z</time>
      </trkpt>
      <trkpt lat="47.622311" lon="8.091144">
        <ele>543.729364</ele>
        <time>2021-11-17T00:55:46.985Z</time>
      </trkpt>
      <trkpt lat="47.622672" lon="8.090784">
        <ele>541.658686</ele>
        <time>2021-11-17T00:55:50.844Z</time>
      </trkpt>
      <trkpt lat="47.622984" lon="8.090174">
        <ele>539.201662</ele>
        <time>2021-11-17T00:55:55.608Z</time>
      </trkpt>
      <trkpt lat="47.623102" lon="8.090180">
        <ele>538.639590</ele>
        <time>2021-11-17T00:55:56.762Z</time>
      </trkpt>
      <trkpt lat="47.623875" lon="8.090680">
        <ele>534.742373</ele>
        <time>2021-11-17T00:56:06.283Z</time>
      </trkpt>
      <trkpt lat="47.623901" lon="8.090859">
        <ele>534.244049</ele>
        <time>2021-11-17T00:56:08.068Z</time>
      </trkpt>
      <trkpt lat="47.623761" lon="8.091574">
        <ele>532.217760</ele>
        <time>2021-11-17T00:56:13.946Z</time>
      </trkpt>
      <trkpt lat="47.624013" lon="8.093106">
        <ele>527.642491</ele>
        <time>2021-11-17T00:56:23.793Z</time>
      </trkpt>
      <trkpt lat="47.624093" lon="8.093346">
        <ele>525.921815</ele>
        <time>2021-11-17T00:56:25.413Z</time>
      </trkpt>
      <trkpt lat="47.624296" lon="8.093914">
        <ele>521.790137</ele>
        <time>2021-11-17T00:56:29.196Z</time>
      </trkpt>
      <trkpt lat="47.624392" lon="8.094169">
        <ele>519.913074</ele>
        <time>2021-11-17T00:56:30.965Z</time>
      </trkpt>
      <trkpt lat="47.624502" lon="8.094318">
        <ele>518.492877</ele>
        <time>2021-11-17T00:56:32.227Z</time>
      </trkpt>
      <trkpt lat="47.624585" lon="8.094303">
        <ele>517.695626</ele>
        <time>2021-11-17T00:56:32.947Z</time>
      </trkpt>
      <trkpt lat="47.624675" lon="8.094143">
        <ele>516.356348</ele>
        <time>2021-11-17T00:56:34.217Z</time>
      </trkpt>
      <trkpt lat="47.624666" lon="8.093965">
        <ele>515.209232</ele>
        <time>2021-11-17T00:56:35.230Z</time>
      </trkpt>
      <trkpt lat="47.624527" lon="8.093362">
        <ele>511.113718</ele>
        <time>2021-11-17T00:56:38.827Z</time>
      </trkpt>
      <trkpt lat="47.624489" lon="8.093062">
        <ele>509.070380</ele>
        <time>2021-11-17T00:56:40.566Z</time>
      </trkpt>
      <trkpt lat="47.624479" lon="8.092985">
        <ele>508.543986</ele>
        <time>2021-11-17T00:56:41.007Z</time>
      </trkpt>
      <trkpt lat="47.624472" lon="8.092160">
        <ele>503.005480</ele>
        <time>2021-11-17T00:56:45.707Z</time>
      </trkpt>
      <trkpt lat="47.624542" lon="8.091883">
        <ele>501.019626</ele>
        <time>2021-11-17T00:56:47.563Z</time>
      </trkpt>
      <trkpt lat="47.624603" lon="8.091835">
        <ele>500.331919</ele>
        <time>2021-11-17T00:56:48.156Z</time>
      </trkpt>
      <trkpt lat="47.624688" lon="8.091810">
        <ele>499.468859</ele>
        <time>2021-11-17T00:56:48.870Z</time>
      </trkpt>
      <trkpt lat="47.624819" lon="8.091982">
        <ele>497.726607</ele>
        <time>2021-11-17T00:56:50.475Z</time>
      </trkpt>
      <trkpt lat="47.624886" lon="8.092492">
        <ele>494.238669</ele>
        <time>2021-11-17T00:56:53.523Z</time>
      </trkpt>
      <trkpt lat="47.625091" lon="8.093056">
        <ele>491.827968</ele>
        <time>2021-11-17T00:56:57.401Z</time>
      </trkpt>
      <trkpt lat="47.625218" lon="8.093608">
        <ele>490.275479</ele>
        <time>2021-11-17T00:57:00.931Z</time>
      </trkpt>
      <trkpt lat="47.625279" lon="8.093598">
        <ele>490.033112</ele>
        <time>2021-11-17T00:57:01.461Z</time>
      </trkpt>
      <trkpt lat="47.625322" lon="8.093542">
        <ele>489.807161</ele>
        <time>2021-11-17T00:57:01.927Z</time>
      </trkpt>
      <trkpt lat="47.625274" lon="8.093406">
        <ele>489.398544</ele>
        <time>2021-11-17T00:57:03.814Z</time>
      </trkpt>
      <trkpt lat="47.625054" lon="8.091704">
        <ele>485.359805</ele>
        <time>2021-11-17T00:57:19.028Z</time>
      </trkpt>
      <trkpt lat="47.625051" lon="8.091437">
        <ele>484.994411</ele>
        <time>2021-11-17T00:57:21.233Z</time>
      </trkpt>
      <trkpt lat="47.625062" lon="8.091129">
        <ele>484.572376</ele>
        <time>2021-11-17T00:57:28.727Z</time>
      </trkpt>
      <trkpt lat="47.624990" lon="8.090705">
        <ele>483.974074</ele>
        <time>2021-11-17T00:57:32.405Z</time>
      </trkpt>
      <trkpt lat="47.624337" lon="8.089618">
        <ele>480.873597</ele>
        <time>2021-11-17T00:57:41.913Z</time>
      </trkpt>
      <trkpt lat="47.624167" lon="8.089495">
        <ele>479.215003</ele>
        <time>2021-11-17T00:57:43.867Z</time>
      </trkpt>
      <trkpt lat="47.624052" lon="8.089412">
        <ele>478.093545</ele>
        <time>2021-11-17T00:57:44.915Z</time>
      </trkpt>
      <trkpt lat="47.623845" lon="8.089179">
        <ele>475.815032</ele>
        <time>2021-11-17T00:57:47.256Z</time>
      </trkpt>
      <trkpt lat="47.623782" lon="8.088589">
        <ele>472.284363</ele>
        <time>2021-11-17T00:57:50.699Z</time>
      </trkpt>
      <trkpt lat="47.623614" lon="8.088310">
        <ele>470.073089</ele>
        <time>2021-11-17T00:57:53.051Z</time>
      </trkpt>
      <trkpt lat="47.623531" lon="8.088246">
        <ele>469.252810</ele>
        <time>2021-11-17T00:57:53.817Z</time>
      </trkpt>
      <trkpt lat="47.623408" lon="8.088193">
        <ele>468.129618</ele>
        <time>2021-11-17T00:57:54.919Z</time>
      </trkpt>
      <trkpt lat="47.623129" lon="8.088202">
        <ele>465.936783</ele>
        <time>2021-11-17T00:57:57.265Z</time>
      </trkpt>
      <trkpt lat="47.622931" lon="8.088318">
        <ele>464.622063</ele>
        <time>2021-11-17T00:57:59.365Z</time>
      </trkpt>
      <trkpt lat="47.622774" lon="8.088485">
        <ele>463.428993</ele>
        <time>2021-11-17T00:58:00.976Z</time>
      </trkpt>
      <trkpt lat="47.622641" lon="8.088690">
        <ele>462.244556</ele>
        <time>2021-11-17T00:58:02.858Z</time>
      </trkpt>
      <trkpt lat="47.622504" lon="8.089006">
        <ele>460.680533</ele>
        <time>2021-11-17T00:58:05.140Z</time>
      </trkpt>
      <trkpt lat="47.622349" lon="8.088752">
        <ele>459.254248</ele>
        <time>2021-11-17T00:58:07.104Z</time>
      </trkpt>
      <trkpt lat="47.622238" lon="8.088481">
        <ele>457.934199</ele>
        <time>2021-11-17T00:58:10.526Z</time>
      </trkpt>
      <trkpt lat="47.622166" lon="8.088212">
        <ele>456.729376</ele>
        <time>2021-11-17T00:58:12.547Z</time>
      </trkpt>
      <trkpt lat="47.622158" lon="8.088022">
        <ele>455.936924</ele>
        <time>2021-11-17T00:58:15.702Z</time>
      </trkpt>
      <trkpt lat="47.622158" lon="8.088022">
        <ele>455.936924</ele>
        <time>2021-11-17T00:58:15.881Z</time>
      </trkpt>
      <trkpt lat="47.622158" lon="8.088022">
        <ele>455.936924</ele>
        <time>2021-11-17T00:58:15.894Z</time>
      </trkpt>
      <trkpt lat="47.622166" lon="8.088212">
        <ele>455.347874</ele>
        <time>2021-11-17T00:58:17.076Z</time>
      </trkpt>
      <trkpt lat="47.621986" lon="8.088287">
        <ele>455.003683</ele>
        <time>2021-11-17T00:58:21.115Z</time>
      </trkpt>
      <trkpt lat="47.621158" lon="8.089118">
        <ele>453.163365</ele>
        <time>2021-11-17T00:58:32.402Z</time>
      </trkpt>
      <trkpt lat="47.620822" lon="8.089297">
        <ele>452.506135</ele>
        <time>2021-11-17T00:58:36.396Z</time>
      </trkpt>
      <trkpt lat="47.620046" lon="8.089384">
        <ele>450.474674</ele>
        <time>2021-11-17T00:58:44.527Z</time>
      </trkpt>
      <trkpt lat="47.619489" lon="8.089525">
        <ele>448.840955</ele>
        <time>2021-11-17T00:58:50.311Z</time>
      </trkpt>
      <trkpt lat="47.618942" lon="8.089660">
        <ele>447.237689</ele>
        <time>2021-11-17T00:58:55.937Z</time>
      </trkpt>
      <trkpt lat="47.618628" lon="8.089740">
        <ele>446.494348</ele>
        <time>2021-11-17T00:58:59.203Z</time>
      </trkpt>
      <trkpt lat="47.618221" lon="8.089970">
        <ele>445.604525</ele>
        <time>2021-11-17T00:59:03.539Z</time>
      </trkpt>
      <trkpt lat="47.617753" lon="8.090754">
        <ele>444.162291</ele>
        <time>2021-11-17T00:59:11.069Z</time>
      </trkpt>
      <trkpt lat="47.617482" lon="8.090973">
        <ele>443.531795</ele>
        <time>2021-11-17T00:59:14.906Z</time>
      </trkpt>
      <trkpt lat="47.617313" lon="8.091046">
        <ele>443.322612</ele>
        <time>2021-11-17T00:59:16.957Z</time>
      </trkpt>
      <trkpt lat="47.617111" lon="8.091086">
        <ele>443.733790</ele>
        <time>2021-11-17T00:59:20.298Z</time>
      </trkpt>
      <trkpt lat="47.615489" lon="8.090842">
        <ele>447.270792</ele>
        <time>2021-11-17T00:59:59.532Z</time>
      </trkpt>
      <trkpt lat="47.614945" lon="8.090702">
        <ele>450.270087</ele>
        <time>2021-11-17T01:00:19.941Z</time>
      </trkpt>
      <trkpt lat="47.614060" lon="8.090346">
        <ele>455.251266</ele>
        <time>2021-11-17T01:00:55.223Z</time>
      </trkpt>
      <trkpt lat="47.613748" lon="8.090179">
        <ele>457.137993</ele>
        <time>2021-11-17T01:01:08.787Z</time>
      </trkpt>
      <trkpt lat="47.613365" lon="8.089964">
        <ele>459.828303</ele>
        <time>2021-11-17T01:01:25.701Z</time>
      </trkpt>
      <trkpt lat="47.612632" lon="8.089397">
        <ele>465.259257</ele>
        <time>2021-11-17T01:01:58.986Z</time>
      </trkpt>
      <trkpt lat="47.612341" lon="8.089408">
        <ele>467.171641</ele>
        <time>2021-11-17T01:02:12.224Z</time>
      </trkpt>
      <trkpt lat="47.611923" lon="8.089527">
        <ele>470.324117</ele>
        <time>2021-11-17T01:02:29.466Z</time>
      </trkpt>
      <trkpt lat="47.611446" lon="8.089412">
        <ele>474.251053</ele>
        <time>2021-11-17T01:02:49.988Z</time>
      </trkpt>
      <trkpt lat="47.611177" lon="8.089583">
        <ele>476.629201</ele>
        <time>2021-11-17T01:03:03.820Z</time>
      </trkpt>
      <trkpt lat="47.611099" lon="8.089698">
        <ele>477.522856</ele>
        <time>2021-11-17T01:03:10.737Z</time>
      </trkpt>
      <trkpt lat="47.611009" lon="8.089855">
        <ele>478.651829</ele>
        <time>2021-11-17T01:03:17.042Z</time>
      </trkpt>
      <trkpt lat="47.610832" lon="8.090154">
        <ele>480.831660</ele>
        <time>2021-11-17T01:03:30.802Z</time>
      </trkpt>
      <trkpt lat="47.610412" lon="8.090409">
        <ele>484.759353</ele>
        <time>2021-11-17T01:03:53.075Z</time>
      </trkpt>
      <trkpt lat="47.610240" lon="8.090496">
        <ele>486.482177</ele>
        <time>2021-11-17T01:04:02.122Z</time>
      </trkpt>
      <trkpt lat="47.610020" lon="8.090606">
        <ele>488.683166</ele>
        <time>2021-11-17T01:04:16.568Z</time>
      </trkpt>
      <trkpt lat="47.609713" lon="8.090840">
        <ele>491.955422</ele>
        <time>2021-11-17T01:04:37.063Z</time>
      </trkpt>
      <trkpt lat="47.609559" lon="8.091172">
        <ele>494.531128</ele>
        <time>2021-11-17T01:04:51.119Z</time>
      </trkpt>
      <trkpt lat="47.609494" lon="8.091619">
        <ele>497.453817</ele>
        <time>2021-11-17T01:05:06.443Z</time>
      </trkpt>
      <trkpt lat="47.609485" lon="8.092070">
        <ele>500.220226</ele>
        <time>2021-11-17T01:05:21.528Z</time>
      </trkpt>
      <trkpt lat="47.609510" lon="8.092257">
        <ele>500.744733</ele>
        <time>2021-11-17T01:05:30.324Z</time>
      </trkpt>
      <trkpt lat="47.609548" lon="8.092461">
        <ele>501.327024</ele>
        <time>2021-11-17T01:05:36.435Z</time>
      </trkpt>
      <trkpt lat="47.609583" lon="8.092568">
        <ele>501.654231</ele>
        <time>2021-11-17T01:05:39.941Z</time>
      </trkpt>
      <trkpt lat="47.609642" lon="8.092673">
        <ele>502.030298</ele>
        <time>2021-11-17T01:05:45.024Z</time>
      </trkpt>
      <trkpt lat="47.610027" lon="8.093073">
        <ele>503.948540</ele>
        <time>2021-11-17T01:06:00.314Z</time>
      </trkpt>
      <trkpt lat="47.610087" lon="8.093271">
        <ele>504.545787</ele>
        <time>2021-11-17T01:06:03.772Z</time>
      </trkpt>
      <trkpt lat="47.610036" lon="8.093507">
        <ele>505.227624</ele>
        <time>2021-11-17T01:06:09.262Z</time>
      </trkpt>
      <trkpt lat="47.609851" lon="8.093621">
        <ele>506.045154</ele>
        <time>2021-11-17T01:06:12.928Z</time>
      </trkpt>
      <trkpt lat="47.609729" lon="8.093576">
        <ele>506.558190</ele>
        <time>2021-11-17T01:06:16.927Z</time>
      </trkpt>
      <trkpt lat="47.609595" lon="8.093398">
        <ele>507.292269</ele>
        <time>2021-11-17T01:06:19.164Z</time>
      </trkpt>
      <trkpt lat="47.609542" lon="8.093239">
        <ele>507.346819</ele>
        <time>2021-11-17T01:06:21.257Z</time>
      </trkpt>
      <trkpt lat="47.609479" lon="8.093050">
        <ele>507.112256</ele>
        <time>2021-11-17T01:06:22.643Z</time>
      </trkpt>
      <trkpt lat="47.609325" lon="8.092637">
        <ele>506.587191</ele>
        <time>2021-11-17T01:06:25.908Z</time>
      </trkpt>
      <trkpt lat="47.608975" lon="8.091645">
        <ele>505.341575</ele>
        <time>2021-11-17T01:06:34.041Z</time>
      </trkpt>
      <trkpt lat="47.608828" lon="8.091343">
        <ele>504.927174</ele>
        <time>2021-11-17T01:06:36.973Z</time>
      </trkpt>
      <trkpt lat="47.608649" lon="8.091080">
        <ele>504.511406</ele>
        <time>2021-11-17T01:06:39.563Z</time>
      </trkpt>
      <trkpt lat="47.608681" lon="8.090901">
        <ele>504.757972</ele>
        <time>2021-11-17T01:06:41.034Z</time>
      </trkpt>
      <trkpt lat="47.608680" lon="8.090672">
        <ele>505.085080</ele>
        <time>2021-11-17T01:06:42.914Z</time>
      </trkpt>
      <trkpt lat="47.608634" lon="8.090469">
        <ele>505.390984</ele>
        <time>2021-11-17T01:06:45.198Z</time>
      </trkpt>
      <trkpt lat="47.608560" lon="8.090342">
        <ele>505.630753</ele>
        <time>2021-11-17T01:06:46.748Z</time>
      </trkpt>
      <trkpt lat="47.608478" lon="8.090224">
        <ele>505.872810</ele>
        <time>2021-11-17T01:06:48.794Z</time>
      </trkpt>
      <trkpt lat="47.608147" lon="8.089868">
        <ele>506.739055</ele>
        <time>2021-11-17T01:06:56.921Z</time>
      </trkpt>
      <trkpt lat="47.607558" lon="8.089317">
        <ele>508.214425</ele>
        <time>2021-11-17T01:07:20.392Z</time>
      </trkpt>
      <trkpt lat="47.607358" lon="8.088934">
        <ele>510.307537</ele>
        <time>2021-11-17T01:07:33.549Z</time>
      </trkpt>
      <trkpt lat="47.607272" lon="8.088660">
        <ele>511.760821</ele>
        <time>2021-11-17T01:07:42.001Z</time>
      </trkpt>
      <trkpt lat="47.607067" lon="8.087997">
        <ele>515.268093</ele>
        <time>2021-11-17T01:08:01.783Z</time>
      </trkpt>
      <trkpt lat="47.607036" lon="8.087664">
        <ele>516.884501</ele>
        <time>2021-11-17T01:08:12.479Z</time>
      </trkpt>
      <trkpt lat="47.607145" lon="8.085884">
        <ele>526.306599</ele>
        <time>2021-11-17T01:09:11.378Z</time>
      </trkpt>
      <trkpt lat="47.607202" lon="8.085535">
        <ele>528.362891</ele>
        <time>2021-11-17T01:09:24.379Z</time>
      </trkpt>
      <trkpt lat="47.607331" lon="8.085264">
        <ele>530.262530</ele>
        <time>2021-11-17T01:09:34.727Z</time>
      </trkpt>
      <trkpt lat="47.608141" lon="8.084076">
        <ele>540.005951</ele>
        <time>2021-11-17T01:10:29.437Z</time>
      </trkpt>
      <trkpt lat="47.609238" lon="8.082141">
        <ele>554.879008</ele>
        <time>2021-11-17T01:11:54.619Z</time>
      </trkpt>
      <trkpt lat="47.609640" lon="8.081583">
        <ele>559.843971</ele>
        <time>2021-11-17T01:12:22.371Z</time>
      </trkpt>
      <trkpt lat="47.611085" lon="8.080103">
        <ele>575.866316</ele>
        <time>2021-11-17T01:13:52.941Z</time>
      </trkpt>
      <trkpt lat="47.611085" lon="8.080103">
        <ele>575.866316</ele>
        <time>2021-11-17T01:13:53.083Z</time>
      </trkpt>
      <trkpt lat="47.611512" lon="8.079849">
        <ele>580.118844</ele>
        <time>2021-11-17T01:14:17.045Z</time>
      </trkpt>
      <trkpt lat="47.611669" lon="8.079830">
        <ele>581.574898</ele>
        <time>2021-11-17T01:14:25.414Z</time>
      </trkpt>
      <trkpt lat="47.611897" lon="8.079884">
        <ele>583.709115</ele>
        <time>2021-11-17T01:14:37.517Z</time>
      </trkpt>
      <trkpt lat="47.612325" lon="8.079848">
        <ele>587.016792</ele>
        <time>2021-11-17T01:14:59.376Z</time>
      </trkpt>
      <trkpt lat="47.612429" lon="8.079778">
        <ele>587.828506</ele>
        <time>2021-11-17T01:15:04.506Z</time>
      </trkpt>
      <trkpt lat="47.612611" lon="8.079668">
        <ele>589.225320</ele>
        <time>2021-11-17T01:15:14.651Z</time>
      </trkpt>
      <trkpt lat="47.612741" lon="8.079511">
        <ele>590.416795</ele>
        <time>2021-11-17T01:15:21.972Z</time>
      </trkpt>
      <trkpt lat="47.612813" lon="8.079439">
        <ele>591.033957</ele>
        <time>2021-11-17T01:15:26.011Z</time>
      </trkpt>
      <trkpt lat="47.613592" lon="8.078654">
        <ele>597.664958</ele>
        <time>2021-11-17T01:16:03.344Z</time>
      </trkpt>
      <trkpt lat="47.614143" lon="8.078067">
        <ele>599.644116</ele>
        <time>2021-11-17T01:16:24.640Z</time>
      </trkpt>
      <trkpt lat="47.614340" lon="8.077748">
        <ele>600.494974</ele>
        <time>2021-11-17T01:16:32.074Z</time>
      </trkpt>
      <trkpt lat="47.614412" lon="8.077490">
        <ele>601.044156</ele>
        <time>2021-11-17T01:16:36.488Z</time>
      </trkpt>
      <trkpt lat="47.614400" lon="8.076777">
        <ele>602.446882</ele>
        <time>2021-11-17T01:16:46.079Z</time>
      </trkpt>
      <trkpt lat="47.614434" lon="8.076512">
        <ele>602.966150</ele>
        <time>2021-11-17T01:16:49.238Z</time>
      </trkpt>
      <trkpt lat="47.614606" lon="8.076168">
        <ele>603.720868</ele>
        <time>2021-11-17T01:16:53.990Z</time>
      </trkpt>
      <trkpt lat="47.615026" lon="8.076094">
        <ele>604.826469</ele>
        <time>2021-11-17T01:17:04.352Z</time>
      </trkpt>
      <trkpt lat="47.615753" lon="8.076423">
        <ele>606.813314</ele>
        <time>2021-11-17T01:17:25.098Z</time>
      </trkpt>
      <trkpt lat="47.615893" lon="8.076423">
        <ele>607.179276</ele>
        <time>2021-11-17T01:17:28.461Z</time>
      </trkpt>
      <trkpt lat="47.616037" lon="8.076370">
        <ele>607.567105</ele>
        <time>2021-11-17T01:17:31.948Z</time>
      </trkpt>
      <trkpt lat="47.616109" lon="8.076335">
        <ele>607.909002</ele>
        <time>2021-11-17T01:17:35.918Z</time>
      </trkpt>
      <trkpt lat="47.616374" lon="8.076037">
        <ele>609.421256</ele>
        <time>2021-11-17T01:17:45.940Z</time>
      </trkpt>
      <trkpt lat="47.617114" lon="8.074092">
        <ele>616.178902</ele>
        <time>2021-11-17T01:18:38.307Z</time>
      </trkpt>
      <trkpt lat="47.617348" lon="8.073732">
        <ele>617.448385</ele>
        <time>2021-11-17T01:18:48.683Z</time>
      </trkpt>
      <trkpt lat="47.617603" lon="8.073644">
        <ele>618.434295</ele>
        <time>2021-11-17T01:18:56.390Z</time>
      </trkpt>
      <trkpt lat="47.617828" lon="8.073754">
        <ele>619.326415</ele>
        <time>2021-11-17T01:19:03.216Z</time>
      </trkpt>
      <trkpt lat="47.618011" lon="8.074001">
        <ele>620.258089</ele>
        <time>2021-11-17T01:19:10.231Z</time>
      </trkpt>
      <trkpt lat="47.618172" lon="8.074347">
        <ele>621.325312</ele>
        <time>2021-11-17T01:19:17.709Z</time>
      </trkpt>
      <trkpt lat="47.618271" lon="8.074627">
        <ele>622.127900</ele>
        <time>2021-11-17T01:19:23.501Z</time>
      </trkpt>
      <trkpt lat="47.618361" lon="8.074994">
        <ele>623.144334</ele>
        <time>2021-11-17T01:19:31.412Z</time>
      </trkpt>
      <trkpt lat="47.618539" lon="8.076074">
        <ele>626.085542</ele>
        <time>2021-11-17T01:19:54.312Z</time>
      </trkpt>
      <trkpt lat="47.618650" lon="8.076287">
        <ele>626.797771</ele>
        <time>2021-11-17T01:20:00.420Z</time>
      </trkpt>
      <trkpt lat="47.618861" lon="8.076379">
        <ele>627.660878</ele>
        <time>2021-11-17T01:20:06.853Z</time>
      </trkpt>
      <trkpt lat="47.618921" lon="8.076380">
        <ele>627.896367</ele>
        <time>2021-11-17T01:20:09.458Z</time>
      </trkpt>
      <trkpt lat="47.619020" lon="8.076353">
        <ele>628.291409</ele>
        <time>2021-11-17T01:20:12.640Z</time>
      </trkpt>
      <trkpt lat="47.619067" lon="8.076308">
        <ele>628.510942</ele>
        <time>2021-11-17T01:20:14.555Z</time>
      </trkpt>
      <trkpt lat="47.619067" lon="8.076161">
        <ele>628.899813</ele>
        <time>2021-11-17T01:20:17.345Z</time>
      </trkpt>
      <trkpt lat="47.619092" lon="8.075973">
        <ele>629.406730</ele>
        <time>2021-11-17T01:20:21.596Z</time>
      </trkpt>
      <trkpt lat="47.619141" lon="8.075753">
        <ele>629.907305</ele>
        <time>2021-11-17T01:20:26.099Z</time>
      </trkpt>
      <trkpt lat="47.619187" lon="8.075531">
        <ele>630.363774</ele>
        <time>2021-11-17T01:20:30.565Z</time>
      </trkpt>
      <trkpt lat="47.619231" lon="8.075298">
        <ele>630.839345</ele>
        <time>2021-11-17T01:20:35.356Z</time>
      </trkpt>
      <trkpt lat="47.619231" lon="8.075298">
        <ele>630.839345</ele>
        <time>2021-11-17T01:20:35.506Z</time>
      </trkpt>
      <trkpt lat="47.619231" lon="8.075298">
        <ele>630.839345</ele>
        <time>2021-11-17T01:20:35.522Z</time>
      </trkpt>
      <trkpt lat="47.619279" lon="8.075018">
        <ele>631.407175</ele>
        <time>2021-11-17T01:20:40.874Z</time>
      </trkpt>
      <trkpt lat="47.619299" lon="8.074448">
        <ele>632.528969</ele>
        <time>2021-11-17T01:20:51.714Z</time>
      </trkpt>
      <trkpt lat="47.619310" lon="8.074140">
        <ele>633.135160</ele>
        <time>2021-11-17T01:20:57.578Z</time>
      </trkpt>
      <trkpt lat="47.619212" lon="8.073576">
        <ele>634.279883</ele>
        <time>2021-11-17T01:21:06.689Z</time>
      </trkpt>
      <trkpt lat="47.619203" lon="8.072857">
        <ele>635.156609</ele>
        <time>2021-11-17T01:21:16.720Z</time>
      </trkpt>
      <trkpt lat="47.619210" lon="8.072542">
        <ele>635.392300</ele>
        <time>2021-11-17T01:21:21.120Z</time>
      </trkpt>
      <trkpt lat="47.619154" lon="8.072283">
        <ele>635.595706</ele>
        <time>2021-11-17T01:21:24.199Z</time>
      </trkpt>
      <trkpt lat="47.619109" lon="8.072083">
        <ele>635.753383</ele>
        <time>2021-11-17T01:21:27.325Z</time>
      </trkpt>
      <trkpt lat="47.618909" lon="8.071464">
        <ele>636.266718</ele>
        <time>2021-11-17T01:21:35.800Z</time>
      </trkpt>
      <trkpt lat="47.618628" lon="8.070987">
        <ele>636.740462</ele>
        <time>2021-11-17T01:21:43.605Z</time>
      </trkpt>
      <trkpt lat="47.618447" lon="8.070893">
        <ele>636.845361</ele>
        <time>2021-11-17T01:21:47.133Z</time>
      </trkpt>
      <trkpt lat="47.618063" lon="8.071006">
        <ele>636.921344</ele>
        <time>2021-11-17T01:21:53.609Z</time>
      </trkpt>
      <trkpt lat="47.617806" lon="8.070985">
        <ele>636.971301</ele>
        <time>2021-11-17T01:21:57.688Z</time>
      </trkpt>
      <trkpt lat="47.617681" lon="8.070905">
        <ele>636.997724</ele>
        <time>2021-11-17T01:21:59.626Z</time>
      </trkpt>
      <trkpt lat="47.617487" lon="8.070818">
        <ele>637.037060</ele>
        <time>2021-11-17T01:22:02.772Z</time>
      </trkpt>
      <trkpt lat="47.617356" lon="8.070721">
        <ele>637.065478</ele>
        <time>2021-11-17T01:22:04.749Z</time>
      </trkpt>
      <trkpt lat="47.617222" lon="8.070610">
        <ele>637.095266</ele>
        <time>2021-11-17T01:22:07.128Z</time>
      </trkpt>
      <trkpt lat="47.617122" lon="8.070498">
        <ele>637.119585</ele>
        <time>2021-11-17T01:22:08.815Z</time>
      </trkpt>
      <trkpt lat="47.616982" lon="8.070184">
        <ele>637.168840</ele>
        <time>2021-11-17T01:22:12.679Z</time>
      </trkpt>
      <trkpt lat="47.616924" lon="8.069947">
        <ele>637.294825</ele>
        <time>2021-11-17T01:22:15.002Z</time>
      </trkpt>
      <trkpt lat="47.616682" lon="8.068707">
        <ele>637.983192</ele>
        <time>2021-11-17T01:22:28.400Z</time>
      </trkpt>
      <trkpt lat="47.616393" lon="8.067205">
        <ele>639.402231</ele>
        <time>2021-11-17T01:22:50.778Z</time>
      </trkpt>
      <trkpt lat="47.616340" lon="8.066594">
        <ele>640.599213</ele>
        <time>2021-11-17T01:23:01.481Z</time>
      </trkpt>
      <trkpt lat="47.616546" lon="8.065501">
        <ele>642.804393</ele>
        <time>2021-11-17T01:23:22.890Z</time>
      </trkpt>
      <trkpt lat="47.616911" lon="8.064532">
        <ele>644.955979</ele>
        <time>2021-11-17T01:23:44.590Z</time>
      </trkpt>
      <trkpt lat="47.616970" lon="8.064104">
        <ele>645.801056</ele>
        <time>2021-11-17T01:23:52.731Z</time>
      </trkpt>
      <trkpt lat="47.616877" lon="8.063786">
        <ele>646.471609</ele>
        <time>2021-11-17T01:23:58.803Z</time>
      </trkpt>
      <trkpt lat="47.616475" lon="8.063255">
        <ele>648.016278</ele>
        <time>2021-11-17T01:24:12.377Z</time>
      </trkpt>
      <trkpt lat="47.616304" lon="8.062945">
        <ele>648.791153</ele>
        <time>2021-11-17T01:24:19.109Z</time>
      </trkpt>
      <trkpt lat="47.616208" lon="8.062718">
        <ele>649.154617</ele>
        <time>2021-11-17T01:24:23.435Z</time>
      </trkpt>
      <trkpt lat="47.616151" lon="8.062583">
        <ele>649.333393</ele>
        <time>2021-11-17T01:24:26.055Z</time>
      </trkpt>
      <trkpt lat="47.616006" lon="8.062039">
        <ele>649.989917</ele>
        <time>2021-11-17T01:24:35.187Z</time>
      </trkpt>
      <trkpt lat="47.615893" lon="8.061708">
        <ele>650.406320</ele>
        <time>2021-11-17T01:24:40.764Z</time>
      </trkpt>
      <trkpt lat="47.615649" lon="8.061223">
        <ele>651.085515</ele>
        <time>2021-11-17T01:24:50.041Z</time>
      </trkpt>
      <trkpt lat="47.615560" lon="8.060605">
        <ele>651.794751</ele>
        <time>2021-11-17T01:24:57.529Z</time>
      </trkpt>
      <trkpt lat="47.615672" lon="8.059665">
        <ele>652.064832</ele>
        <time>2021-11-17T01:25:08.857Z</time>
      </trkpt>
      <trkpt lat="47.615627" lon="8.059482">
        <ele>652.095301</ele>
        <time>2021-11-17T01:25:10.327Z</time>
      </trkpt>
      <trkpt lat="47.615486" lon="8.059322">
        <ele>652.136493</ele>
        <time>2021-11-17T01:25:12.989Z</time>
      </trkpt>
      <trkpt lat="47.615451" lon="8.059291">
        <ele>652.145951</ele>
        <time>2021-11-17T01:25:14.308Z</time>
      </trkpt>
      <trkpt lat="47.615348" lon="8.059227">
        <ele>652.171863</ele>
        <time>2021-11-17T01:25:15.547Z</time>
      </trkpt>
      <trkpt lat="47.615048" lon="8.059219">
        <ele>652.241485</ele>
        <time>2021-11-17T01:25:20.270Z</time>
      </trkpt>
      <trkpt lat="47.614565" lon="8.059680">
        <ele>652.595202</ele>
        <time>2021-11-17T01:25:28.194Z</time>
      </trkpt>
      <trkpt lat="47.614399" lon="8.059755">
        <ele>653.033122</ele>
        <time>2021-11-17T01:25:31.739Z</time>
      </trkpt>
      <trkpt lat="47.614248" lon="8.059802">
        <ele>653.422487</ele>
        <time>2021-11-17T01:25:33.634Z</time>
      </trkpt>
      <trkpt lat="47.614233" lon="8.059593">
        <ele>653.780051</ele>
        <time>2021-11-17T01:25:37.346Z</time>
      </trkpt>
      <trkpt lat="47.614097" lon="8.058031">
        <ele>656.459432</ele>
        <time>2021-11-17T01:26:02.550Z</time>
      </trkpt>
      <trkpt lat="47.614385" lon="8.056367">
        <ele>664.464749</ele>
        <time>2021-11-17T01:26:53.397Z</time>
      </trkpt>
      <trkpt lat="47.614484" lon="8.056010">
        <ele>666.461671</ele>
        <time>2021-11-17T01:27:05.878Z</time>
      </trkpt>
      <trkpt lat="47.614675" lon="8.055693">
        <ele>668.661065</ele>
        <time>2021-11-17T01:27:21.687Z</time>
      </trkpt>
      <trkpt lat="47.615195" lon="8.054883">
        <ele>674.395620</ele>
        <time>2021-11-17T01:28:00.197Z</time>
      </trkpt>
      <trkpt lat="47.615542" lon="8.054569">
        <ele>677.471823</ele>
        <time>2021-11-17T01:28:20.028Z</time>
      </trkpt>
      <trkpt lat="47.615675" lon="8.054514">
        <ele>678.516774</ele>
        <time>2021-11-17T01:28:27.182Z</time>
      </trkpt>
      <trkpt lat="47.615875" lon="8.054481">
        <ele>680.039750</ele>
        <time>2021-11-17T01:28:35.243Z</time>
      </trkpt>
      <trkpt lat="47.616679" lon="8.054745">
        <ele>685.407020</ele>
        <time>2021-11-17T01:29:06.758Z</time>
      </trkpt>
      <trkpt lat="47.616819" lon="8.054711">
        <ele>686.008239</ele>
        <time>2021-11-17T01:29:11.637Z</time>
      </trkpt>
      <trkpt lat="47.617199" lon="8.054456">
        <ele>687.775780</ele>
        <time>2021-11-17T01:29:25.167Z</time>
      </trkpt>
      <trkpt lat="47.617379" lon="8.054302">
        <ele>688.656390</ele>
        <time>2021-11-17T01:29:31.192Z</time>
      </trkpt>
      <trkpt lat="47.617769" lon="8.054024">
        <ele>690.490111</ele>
        <time>2021-11-17T01:29:42.395Z</time>
      </trkpt>
      <trkpt lat="47.617955" lon="8.053913">
        <ele>691.339769</ele>
        <time>2021-11-17T01:29:48.162Z</time>
      </trkpt>
      <trkpt lat="47.618091" lon="8.053857">
        <ele>691.938860</ele>
        <time>2021-11-17T01:29:52.276Z</time>
      </trkpt>
      <trkpt lat="47.618184" lon="8.053819">
        <ele>692.390802</ele>
        <time>2021-11-17T01:29:54.936Z</time>
      </trkpt>
      <trkpt lat="47.618447" lon="8.053748">
        <ele>693.643227</ele>
        <time>2021-11-17T01:30:03.815Z</time>
      </trkpt>
      <trkpt lat="47.618483" lon="8.053732">
        <ele>693.819298</ele>
        <time>2021-11-17T01:30:04.888Z</time>
      </trkpt>
      <trkpt lat="47.618654" lon="8.053651">
        <ele>694.660303</ele>
        <time>2021-11-17T01:30:11.243Z</time>
      </trkpt>
      <trkpt lat="47.618862" lon="8.053511">
        <ele>695.730416</ele>
        <time>2021-11-17T01:30:18.753Z</time>
      </trkpt>
      <trkpt lat="47.619043" lon="8.053330">
        <ele>696.753085</ele>
        <time>2021-11-17T01:30:26.008Z</time>
      </trkpt>
      <trkpt lat="47.619217" lon="8.053113">
        <ele>697.818074</ele>
        <time>2021-11-17T01:30:33.699Z</time>
      </trkpt>
      <trkpt lat="47.619380" lon="8.052853">
        <ele>698.939407</ele>
        <time>2021-11-17T01:30:41.845Z</time>
      </trkpt>
      <trkpt lat="47.619512" lon="8.052593">
        <ele>699.967339</ele>
        <time>2021-11-17T01:30:49.891Z</time>
      </trkpt>
      <trkpt lat="47.619670" lon="8.052221">
        <ele>701.631178</ele>
        <time>2021-11-17T01:31:00.882Z</time>
      </trkpt>
      <trkpt lat="47.620319" lon="8.050857">
        <ele>708.355315</ele>
        <time>2021-11-17T01:31:45.316Z</time>
      </trkpt>
      <trkpt lat="47.620475" lon="8.050499">
        <ele>710.072165</ele>
        <time>2021-11-17T01:31:56.368Z</time>
      </trkpt>
      <trkpt lat="47.620557" lon="8.050331">
        <ele>710.907527</ele>
        <time>2021-11-17T01:32:01.770Z</time>
      </trkpt>
      <trkpt lat="47.620660" lon="8.050141">
        <ele>711.884719</ele>
        <time>2021-11-17T01:32:09.044Z</time>
      </trkpt>
      <trkpt lat="47.620802" lon="8.049928">
        <ele>713.083919</ele>
        <time>2021-11-17T01:32:16.429Z</time>
      </trkpt>
      <trkpt lat="47.620995" lon="8.049690">
        <ele>714.574316</ele>
        <time>2021-11-17T01:32:26.323Z</time>
      </trkpt>
      <trkpt lat="47.621147" lon="8.049455">
        <ele>715.878034</ele>
        <time>2021-11-17T01:32:35.192Z</time>
      </trkpt>
      <trkpt lat="47.621283" lon="8.049206">
        <ele>717.160894</ele>
        <time>2021-11-17T01:32:42.349Z</time>
      </trkpt>
      <trkpt lat="47.621348" lon="8.048934">
        <ele>718.316065</ele>
        <time>2021-11-17T01:32:50.354Z</time>
      </trkpt>
      <trkpt lat="47.621395" lon="8.048626">
        <ele>719.580133</ele>
        <time>2021-11-17T01:32:58.242Z</time>
      </trkpt>
      <trkpt lat="47.621415" lon="8.048472">
        <ele>720.207905</ele>
        <time>2021-11-17T01:33:03.343Z</time>
      </trkpt>
      <trkpt lat="47.621404" lon="8.047819">
        <ele>722.776018</ele>
        <time>2021-11-17T01:33:19.657Z</time>
      </trkpt>
      <trkpt lat="47.621221" lon="8.047027">
        <ele>725.977128</ele>
        <time>2021-11-17T01:33:40.834Z</time>
      </trkpt>
      <trkpt lat="47.621195" lon="8.046679">
        <ele>727.315819</ele>
        <time>2021-11-17T01:33:50.162Z</time>
      </trkpt>
      <trkpt lat="47.621150" lon="8.046470">
        <ele>728.154690</ele>
        <time>2021-11-17T01:33:56.040Z</time>
      </trkpt>
      <trkpt lat="47.620929" lon="8.045824">
        <ele>730.924538</ele>
        <time>2021-11-17T01:34:13.398Z</time>
      </trkpt>
      <trkpt lat="47.620848" lon="8.045377">
        <ele>732.603343</ele>
        <time>2021-11-17T01:34:24.457Z</time>
      </trkpt>
      <trkpt lat="47.620865" lon="8.045219">
        <ele>733.136426</ele>
        <time>2021-11-17T01:34:28.637Z</time>
      </trkpt>
      <trkpt lat="47.620927" lon="8.044823">
        <ele>734.490926</ele>
        <time>2021-11-17T01:34:38.861Z</time>
      </trkpt>
      <trkpt lat="47.621012" lon="8.044509">
        <ele>735.618313</ele>
        <time>2021-11-17T01:34:47.387Z</time>
      </trkpt>
      <trkpt lat="47.621195" lon="8.043967">
        <ele>737.638010</ele>
        <time>2021-11-17T01:35:01.220Z</time>
      </trkpt>
      <trkpt lat="47.621228" lon="8.043885">
        <ele>737.956204</ele>
        <time>2021-11-17T01:35:03.757Z</time>
      </trkpt>
      <trkpt lat="47.621370" lon="8.043535">
        <ele>739.317260</ele>
        <time>2021-11-17T01:35:12.641Z</time>
      </trkpt>
      <trkpt lat="47.621405" lon="8.043452">
        <ele>739.643453</ele>
        <time>2021-11-17T01:35:15.099Z</time>
      </trkpt>
      <trkpt lat="47.621501" lon="8.043222">
        <ele>740.544778</ele>
        <time>2021-11-17T01:35:21.308Z</time>
      </trkpt>
      <trkpt lat="47.621564" lon="8.043067">
        <ele>741.053694</ele>
        <time>2021-11-17T01:35:24.946Z</time>
      </trkpt>
      <trkpt lat="47.621624" lon="8.042919">
        <ele>741.428559</ele>
        <time>2021-11-17T01:35:29.008Z</time>
      </trkpt>
      <trkpt lat="47.621730" lon="8.042606">
        <ele>742.188859</ele>
        <time>2021-11-17T01:35:35.495Z</time>
      </trkpt>
      <trkpt lat="47.621765" lon="8.042355">
        <ele>742.745191</ele>
        <time>2021-11-17T01:35:40.998Z</time>
      </trkpt>
      <trkpt lat="47.622031" lon="8.040594">
        <ele>746.662239</ele>
        <time>2021-11-17T01:36:12.713Z</time>
      </trkpt>
      <trkpt lat="47.622050" lon="8.040369">
        <ele>747.171405</ele>
        <time>2021-11-17T01:36:16.377Z</time>
      </trkpt>
      <trkpt lat="47.622043" lon="8.040088">
        <ele>747.803124</ele>
        <time>2021-11-17T01:36:20.656Z</time>
      </trkpt>
      <trkpt lat="47.621946" lon="8.039316">
        <ele>749.567358</ele>
        <time>2021-11-17T01:36:34.331Z</time>
      </trkpt>
      <trkpt lat="47.621947" lon="8.038864">
        <ele>750.582817</ele>
        <time>2021-11-17T01:36:42.998Z</time>
      </trkpt>
      <trkpt lat="47.621948" lon="8.038731">
        <ele>750.881630</ele>
        <time>2021-11-17T01:36:45.636Z</time>
      </trkpt>
      <trkpt lat="47.621947" lon="8.037740">
        <ele>753.240242</ele>
        <time>2021-11-17T01:37:06.705Z</time>
      </trkpt>
      <trkpt lat="47.621944" lon="8.037556">
        <ele>753.777137</ele>
        <time>2021-11-17T01:37:10.589Z</time>
      </trkpt>
      <trkpt lat="47.621940" lon="8.037379">
        <ele>754.293745</ele>
        <time>2021-11-17T01:37:15.082Z</time>
      </trkpt>
      <trkpt lat="47.621870" lon="8.036314">
        <ele>757.415144</ele>
        <time>2021-11-17T01:37:39.414Z</time>
      </trkpt>
      <trkpt lat="47.621739" lon="8.035537">
        <ele>759.751531</ele>
        <time>2021-11-17T01:37:56.599Z</time>
      </trkpt>
      <trkpt lat="47.621602" lon="8.034723">
        <ele>761.268708</ele>
        <time>2021-11-17T01:38:13.598Z</time>
      </trkpt>
      <trkpt lat="47.621518" lon="8.033887">
        <ele>762.423585</ele>
        <time>2021-11-17T01:38:28.363Z</time>
      </trkpt>
      <trkpt lat="47.621459" lon="8.033020">
        <ele>763.614220</ele>
        <time>2021-11-17T01:38:40.090Z</time>
      </trkpt>
      <trkpt lat="47.621424" lon="8.032671">
        <ele>764.093536</ele>
        <time>2021-11-17T01:38:43.713Z</time>
      </trkpt>
      <trkpt lat="47.621283" lon="8.031958">
        <ele>762.625545</ele>
        <time>2021-11-17T01:38:49.973Z</time>
      </trkpt>
      <trkpt lat="47.621242" lon="8.031732">
        <ele>762.163165</ele>
        <time>2021-11-17T01:38:51.800Z</time>
      </trkpt>
      <trkpt lat="47.621208" lon="8.031497">
        <ele>761.688319</ele>
        <time>2021-11-17T01:38:53.495Z</time>
      </trkpt>
      <trkpt lat="47.621187" lon="8.031301">
        <ele>761.296235</ele>
        <time>2021-11-17T01:38:54.948Z</time>
      </trkpt>
      <trkpt lat="47.621181" lon="8.030963">
        <ele>760.628243</ele>
        <time>2021-11-17T01:38:57.199Z</time>
      </trkpt>
      <trkpt lat="47.621272" lon="8.030058">
        <ele>758.815233</ele>
        <time>2021-11-17T01:39:03.068Z</time>
      </trkpt>
      <trkpt lat="47.621427" lon="8.029472">
        <ele>755.157375</ele>
        <time>2021-11-17T01:39:06.944Z</time>
      </trkpt>
      <trkpt lat="47.621668" lon="8.028864">
        <ele>751.058871</ele>
        <time>2021-11-17T01:39:11.064Z</time>
      </trkpt>
      <trkpt lat="47.621701" lon="8.028543">
        <ele>749.172084</ele>
        <time>2021-11-17T01:39:12.932Z</time>
      </trkpt>
      <trkpt lat="47.621660" lon="8.028299">
        <ele>747.710895</ele>
        <time>2021-11-17T01:39:14.437Z</time>
      </trkpt>
      <trkpt lat="47.621486" lon="8.027887">
        <ele>744.885782</ele>
        <time>2021-11-17T01:39:17.250Z</time>
      </trkpt>
      <trkpt lat="47.621202" lon="8.027392">
        <ele>740.931429</ele>
        <time>2021-11-17T01:39:21.040Z</time>
      </trkpt>
      <trkpt lat="47.621153" lon="8.027276">
        <ele>740.072165</ele>
        <time>2021-11-17T01:39:21.800Z</time>
      </trkpt>
      <trkpt lat="47.621074" lon="8.027044">
        <ele>738.440688</ele>
        <time>2021-11-17T01:39:23.349Z</time>
      </trkpt>
      <trkpt lat="47.621015" lon="8.026497">
        <ele>734.963637</ele>
        <time>2021-11-17T01:39:26.578Z</time>
      </trkpt>
      <trkpt lat="47.621054" lon="8.025784">
        <ele>730.473619</ele>
        <time>2021-11-17T01:39:30.755Z</time>
      </trkpt>
      <trkpt lat="47.621268" lon="8.025053">
        <ele>725.786320</ele>
        <time>2021-11-17T01:39:35.427Z</time>
      </trkpt>
      <trkpt lat="47.621327" lon="8.024700">
        <ele>724.159265</ele>
        <time>2021-11-17T01:39:37.671Z</time>
      </trkpt>
      <trkpt lat="47.621131" lon="8.023509">
        <ele>718.674534</ele>
        <time>2021-11-17T01:39:45.147Z</time>
      </trkpt>
      <trkpt lat="47.621155" lon="8.022607">
        <ele>714.636076</ele>
        <time>2021-11-17T01:39:50.777Z</time>
      </trkpt>
      <trkpt lat="47.621178" lon="8.022415">
        <ele>714.056517</ele>
        <time>2021-11-17T01:39:51.950Z</time>
      </trkpt>
      <trkpt lat="47.621234" lon="8.022131">
        <ele>713.180254</ele>
        <time>2021-11-17T01:39:53.865Z</time>
      </trkpt>
      <trkpt lat="47.621339" lon="8.021559">
        <ele>711.424691</ele>
        <time>2021-11-17T01:39:57.629Z</time>
      </trkpt>
      <trkpt lat="47.621400" lon="8.021174">
        <ele>710.253512</ele>
        <time>2021-11-17T01:40:00.149Z</time>
      </trkpt>
      <trkpt lat="47.621415" lon="8.020855">
        <ele>709.306561</ele>
        <time>2021-11-17T01:40:02.185Z</time>
      </trkpt>
      <trkpt lat="47.621418" lon="8.020418">
        <ele>708.012404</ele>
        <time>2021-11-17T01:40:05.138Z</time>
      </trkpt>
      <trkpt lat="47.621413" lon="8.020151">
        <ele>707.221431</ele>
        <time>2021-11-17T01:40:06.939Z</time>
      </trkpt>
      <trkpt lat="47.621403" lon="8.019573">
        <ele>706.205944</ele>
        <time>2021-11-17T01:40:11.155Z</time>
      </trkpt>
      <trkpt lat="47.621390" lon="8.019390">
        <ele>705.972610</ele>
        <time>2021-11-17T01:40:12.516Z</time>
      </trkpt>
      <trkpt lat="47.621349" lon="8.019187">
        <ele>705.703893</ele>
        <time>2021-11-17T01:40:14.049Z</time>
      </trkpt>
      <trkpt lat="47.620751" lon="8.017244">
        <ele>703.026328</ele>
        <time>2021-11-17T01:40:30.524Z</time>
      </trkpt>
      <trkpt lat="47.620586" lon="8.016714">
        <ele>702.351708</ele>
        <time>2021-11-17T01:40:35.193Z</time>
      </trkpt>
      <trkpt lat="47.620455" lon="8.016265">
        <ele>701.786337</ele>
        <time>2021-11-17T01:40:39.002Z</time>
      </trkpt>
      <trkpt lat="47.620328" lon="8.015989">
        <ele>701.400167</ele>
        <time>2021-11-17T01:40:41.553Z</time>
      </trkpt>
      <trkpt lat="47.620186" lon="8.015747">
        <ele>701.029400</ele>
        <time>2021-11-17T01:40:43.998Z</time>
      </trkpt>
      <trkpt lat="47.620283" lon="8.015578">
        <ele>700.772897</ele>
        <time>2021-11-17T01:40:45.624Z</time>
      </trkpt>
      <trkpt lat="47.620364" lon="8.015366">
        <ele>700.491295</ele>
        <time>2021-11-17T01:40:47.436Z</time>
      </trkpt>
      <trkpt lat="47.620496" lon="8.014586">
        <ele>698.955508</ele>
        <time>2021-11-17T01:40:53.210Z</time>
      </trkpt>
      <trkpt lat="47.620546" lon="8.013967">
        <ele>697.609496</ele>
        <time>2021-11-17T01:40:57.579Z</time>
      </trkpt>
      <trkpt lat="47.620555" lon="8.012850">
        <ele>695.197671</ele>
        <time>2021-11-17T01:41:05.101Z</time>
      </trkpt>
      <trkpt lat="47.620492" lon="8.011288">
        <ele>691.225132</ele>
        <time>2021-11-17T01:41:15.219Z</time>
      </trkpt>
      <trkpt lat="47.620487" lon="8.010965">
        <ele>690.372938</ele>
        <time>2021-11-17T01:41:17.362Z</time>
      </trkpt>
      <trkpt lat="47.620490" lon="8.010580">
        <ele>689.357365</ele>
        <time>2021-11-17T01:41:19.897Z</time>
      </trkpt>
      <trkpt lat="47.620496" lon="8.010474">
        <ele>689.076788</ele>
        <time>2021-11-17T01:41:20.614Z</time>
      </trkpt>
      <trkpt lat="47.620507" lon="8.010219">
        <ele>688.402804</ele>
        <time>2021-11-17T01:41:22.300Z</time>
      </trkpt>
      <trkpt lat="47.620556" lon="8.009809">
        <ele>687.386756</ele>
        <time>2021-11-17T01:41:25.185Z</time>
      </trkpt>
      <trkpt lat="47.620573" lon="8.009731">
        <ele>687.284544</ele>
        <time>2021-11-17T01:41:25.709Z</time>
      </trkpt>
      <trkpt lat="47.620672" lon="8.009286">
        <ele>686.700251</ele>
        <time>2021-11-17T01:41:29.002Z</time>
      </trkpt>
      <trkpt lat="47.620681" lon="8.009249">
        <ele>686.651206</ele>
        <time>2021-11-17T01:41:29.251Z</time>
      </trkpt>
      <trkpt lat="47.620699" lon="8.009176">
        <ele>686.554286</ele>
        <time>2021-11-17T01:41:29.771Z</time>
      </trkpt>
      <trkpt lat="47.620734" lon="8.009059">
        <ele>686.394682</ele>
        <time>2021-11-17T01:41:30.689Z</time>
      </trkpt>
      <trkpt lat="47.620862" lon="8.008648">
        <ele>685.830169</ele>
        <time>2021-11-17T01:41:33.921Z</time>
      </trkpt>
      <trkpt lat="47.620954" lon="8.008357">
        <ele>685.429406</ele>
        <time>2021-11-17T01:41:36.501Z</time>
      </trkpt>
      <trkpt lat="47.621081" lon="8.008034">
        <ele>684.963162</ele>
        <time>2021-11-17T01:41:39.475Z</time>
      </trkpt>
      <trkpt lat="47.621140" lon="8.007875">
        <ele>684.736857</ele>
        <time>2021-11-17T01:41:41.199Z</time>
      </trkpt>
      <trkpt lat="47.621254" lon="8.007569">
        <ele>684.300922</ele>
        <time>2021-11-17T01:41:44.099Z</time>
      </trkpt>
      <trkpt lat="47.621308" lon="8.007429">
        <ele>684.134908</ele>
        <time>2021-11-17T01:41:45.699Z</time>
      </trkpt>
      <trkpt lat="47.621359" lon="8.007338">
        <ele>684.141919</ele>
        <time>2021-11-17T01:41:46.742Z</time>
      </trkpt>
      <trkpt lat="47.621433" lon="8.007225">
        <ele>684.151252</ele>
        <time>2021-11-17T01:41:48.171Z</time>
      </trkpt>
      <trkpt lat="47.621752" lon="8.006948">
        <ele>684.183737</ele>
        <time>2021-11-17T01:41:53.720Z</time>
      </trkpt>
      <trkpt lat="47.622836" lon="8.006672">
        <ele>684.280402</ele>
        <time>2021-11-17T01:42:10.782Z</time>
      </trkpt>
      <trkpt lat="47.623040" lon="8.006578">
        <ele>684.315597</ele>
        <time>2021-11-17T01:42:14.600Z</time>
      </trkpt>
      <trkpt lat="47.623146" lon="8.006521">
        <ele>684.346423</ele>
        <time>2021-11-17T01:42:16.387Z</time>
      </trkpt>
      <trkpt lat="47.623316" lon="8.006410">
        <ele>684.397203</ele>
        <time>2021-11-17T01:42:19.861Z</time>
      </trkpt>
      <trkpt lat="47.623482" lon="8.006277">
        <ele>684.448782</ele>
        <time>2021-11-17T01:42:23.393Z</time>
      </trkpt>
      <trkpt lat="47.623482" lon="8.006277">
        <ele>684.448782</ele>
        <time>2021-11-17T01:42:23.420Z</time>
      </trkpt>
      <trkpt lat="47.623482" lon="8.006277">
        <ele>684.448782</ele>
        <time>2021-11-17T01:42:23.492Z</time>
      </trkpt>
      <trkpt lat="47.623496" lon="8.006267">
        <ele>684.453030</ele>
        <time>2021-11-17T01:42:23.899Z</time>
      </trkpt>
      <trkpt lat="47.624181" lon="8.005412">
        <ele>684.697769</ele>
        <time>2021-11-17T01:42:37.829Z</time>
      </trkpt>
      <trkpt lat="47.624476" lon="8.005261">
        <ele>684.783088</ele>
        <time>2021-11-17T01:42:42.047Z</time>
      </trkpt>
      <trkpt lat="47.624714" lon="8.005192">
        <ele>685.095877</ele>
        <time>2021-11-17T01:42:45.359Z</time>
      </trkpt>
      <trkpt lat="47.624772" lon="8.005176">
        <ele>685.172028</ele>
        <time>2021-11-17T01:42:46.187Z</time>
      </trkpt>
      <trkpt lat="47.624929" lon="8.005099">
        <ele>685.385471</ele>
        <time>2021-11-17T01:42:48.590Z</time>
      </trkpt>
      <trkpt lat="47.625082" lon="8.004976">
        <ele>685.610094</ele>
        <time>2021-11-17T01:42:51.198Z</time>
      </trkpt>
      <trkpt lat="47.625170" lon="8.004881">
        <ele>685.750571</ele>
        <time>2021-11-17T01:42:52.992Z</time>
      </trkpt>
      <trkpt lat="47.625244" lon="8.004783">
        <ele>685.878607</ele>
        <time>2021-11-17T01:42:54.666Z</time>
      </trkpt>
      <trkpt lat="47.625294" lon="8.004699">
        <ele>685.976106</ele>
        <time>2021-11-17T01:42:56.506Z</time>
      </trkpt>
      <trkpt lat="47.625325" lon="8.004642">
        <ele>686.039826</ele>
        <time>2021-11-17T01:42:57.121Z</time>
      </trkpt>
      <trkpt lat="47.625393" lon="8.004515">
        <ele>686.180936</ele>
        <time>2021-11-17T01:42:59.009Z</time>
      </trkpt>
      <trkpt lat="47.625461" lon="8.004337">
        <ele>686.358939</ele>
        <time>2021-11-17T01:43:01.545Z</time>
      </trkpt>
      <trkpt lat="47.625506" lon="8.004231">
        <ele>686.467926</ele>
        <time>2021-11-17T01:43:03.946Z</time>
      </trkpt>
      <trkpt lat="47.625525" lon="8.004123">
        <ele>686.565032</ele>
        <time>2021-11-17T01:43:05.485Z</time>
      </trkpt>
      <trkpt lat="47.625607" lon="8.003576">
        <ele>687.052539</ele>
        <time>2021-11-17T01:43:15.883Z</time>
      </trkpt>
      <trkpt lat="47.625654" lon="8.003373">
        <ele>687.829505</ele>
        <time>2021-11-17T01:43:19.254Z</time>
      </trkpt>
      <trkpt lat="47.625600" lon="8.003335">
        <ele>688.245447</ele>
        <time>2021-11-17T01:43:20.660Z</time>
      </trkpt>
      <trkpt lat="47.625584" lon="8.003324">
        <ele>688.368173</ele>
        <time>2021-11-17T01:43:21.506Z</time>
      </trkpt>
      <trkpt lat="47.625516" lon="8.003226">
        <ele>689.027920</ele>
        <time>2021-11-17T01:43:24.176Z</time>
      </trkpt>
      <trkpt lat="47.625460" lon="8.003067">
        <ele>689.869414</ele>
        <time>2021-11-17T01:43:29.223Z</time>
      </trkpt>
      <trkpt lat="47.625445" lon="8.003025">
        <ele>690.092368</ele>
        <time>2021-11-17T01:43:29.867Z</time>
      </trkpt>
      <trkpt lat="47.625434" lon="8.002984">
        <ele>690.299359</ele>
        <time>2021-11-17T01:43:30.507Z</time>
      </trkpt>
      <trkpt lat="47.625363" lon="8.002731">
        <ele>691.584837</ele>
        <time>2021-11-17T01:43:37.096Z</time>
      </trkpt>
      <trkpt lat="47.625298" lon="8.002451">
        <ele>692.973924</ele>
        <time>2021-11-17T01:43:45.660Z</time>
      </trkpt>
      <trkpt lat="47.625267" lon="8.002292">
        <ele>693.750305</ele>
        <time>2021-11-17T01:43:51.061Z</time>
      </trkpt>
      <trkpt lat="47.625257" lon="8.002056">
        <ele>694.859469</ele>
        <time>2021-11-17T01:43:59.605Z</time>
      </trkpt>
      <trkpt lat="47.625266" lon="8.001860">
        <ele>695.780955</ele>
        <time>2021-11-17T01:44:05.018Z</time>
      </trkpt>
      <trkpt lat="47.625264" lon="8.001765">
        <ele>696.226778</ele>
        <time>2021-11-17T01:44:08.644Z</time>
      </trkpt>
      <trkpt lat="47.625250" lon="8.001673">
        <ele>696.669174</ele>
        <time>2021-11-17T01:44:11.518Z</time>
      </trkpt>
      <trkpt lat="47.625243" lon="8.001627">
        <ele>696.890373</ele>
        <time>2021-11-17T01:44:14.833Z</time>
      </trkpt>
      <trkpt lat="47.625081" lon="8.000955">
        <ele>700.424283</ele>
        <time>2021-11-17T01:44:39.205Z</time>
      </trkpt>
      <trkpt lat="47.624825" lon="7.999740">
        <ele>708.202724</ele>
        <time>2021-11-17T01:45:25.775Z</time>
      </trkpt>
      <trkpt lat="47.624804" lon="7.999651">
        <ele>708.778913</ele>
        <time>2021-11-17T01:45:29.133Z</time>
      </trkpt>
      <trkpt lat="47.624766" lon="7.999435">
        <ele>710.142982</ele>
        <time>2021-11-17T01:45:37.347Z</time>
      </trkpt>
      <trkpt lat="47.624755" lon="7.999366">
        <ele>710.576234</ele>
        <time>2021-11-17T01:45:39.758Z</time>
      </trkpt>
      <trkpt lat="47.624735" lon="7.999119">
        <ele>712.096357</ele>
        <time>2021-11-17T01:45:48.378Z</time>
      </trkpt>
      <trkpt lat="47.624755" lon="7.998076">
        <ele>717.703894</ele>
        <time>2021-11-17T01:46:20.548Z</time>
      </trkpt>
      <trkpt lat="47.624920" lon="7.996906">
        <ele>722.801256</ele>
        <time>2021-11-17T01:46:54.824Z</time>
      </trkpt>
      <trkpt lat="47.624885" lon="7.996580">
        <ele>724.208965</ele>
        <time>2021-11-17T01:47:03.393Z</time>
      </trkpt>
      <trkpt lat="47.624698" lon="7.995870">
        <ele>727.404586</ele>
        <time>2021-11-17T01:47:20.180Z</time>
      </trkpt>
      <trkpt lat="47.624673" lon="7.995663">
        <ele>727.972361</ele>
        <time>2021-11-17T01:47:25.654Z</time>
      </trkpt>
      <trkpt lat="47.624628" lon="7.995481">
        <ele>728.495759</ele>
        <time>2021-11-17T01:47:29.440Z</time>
      </trkpt>
      <trkpt lat="47.624294" lon="7.994823">
        <ele>730.719753</ele>
        <time>2021-11-17T01:47:46.598Z</time>
      </trkpt>
      <trkpt lat="47.624185" lon="7.994374">
        <ele>732.008244</ele>
        <time>2021-11-17T01:47:55.890Z</time>
      </trkpt>
      <trkpt lat="47.624157" lon="7.994038">
        <ele>732.922317</ele>
        <time>2021-11-17T01:48:02.517Z</time>
      </trkpt>
      <trkpt lat="47.624143" lon="7.993701">
        <ele>733.833910</ele>
        <time>2021-11-17T01:48:09.790Z</time>
      </trkpt>
      <trkpt lat="47.624155" lon="7.993221">
        <ele>735.260780</ele>
        <time>2021-11-17T01:48:18.834Z</time>
      </trkpt>
      <trkpt lat="47.624186" lon="7.992743">
        <ele>736.830917</ele>
        <time>2021-11-17T01:48:29.061Z</time>
      </trkpt>
      <trkpt lat="47.624193" lon="7.992632">
        <ele>737.195440</ele>
        <time>2021-11-17T01:48:31.365Z</time>
      </trkpt>
      <trkpt lat="47.624211" lon="7.992346">
        <ele>738.134643</ele>
        <time>2021-11-17T01:48:38.088Z</time>
      </trkpt>
      <trkpt lat="47.624198" lon="7.992157">
        <ele>738.755827</ele>
        <time>2021-11-17T01:48:41.718Z</time>
      </trkpt>
      <trkpt lat="47.624184" lon="7.991951">
        <ele>739.432801</ele>
        <time>2021-11-17T01:48:46.335Z</time>
      </trkpt>
      <trkpt lat="47.624171" lon="7.991894">
        <ele>739.629555</ele>
        <time>2021-11-17T01:48:48.137Z</time>
      </trkpt>
      <trkpt lat="47.624027" lon="7.991299">
        <ele>741.696654</ele>
        <time>2021-11-17T01:49:03.897Z</time>
      </trkpt>
      <trkpt lat="47.624009" lon="7.991173">
        <ele>742.117791</ele>
        <time>2021-11-17T01:49:06.605Z</time>
      </trkpt>
      <trkpt lat="47.623969" lon="7.990843">
        <ele>743.214107</ele>
        <time>2021-11-17T01:49:16.514Z</time>
      </trkpt>
      <trkpt lat="47.623829" lon="7.989653">
        <ele>747.171694</ele>
        <time>2021-11-17T01:49:47.143Z</time>
      </trkpt>
      <trkpt lat="47.623798" lon="7.989389">
        <ele>748.049643</ele>
        <time>2021-11-17T01:49:53.506Z</time>
      </trkpt>
      <trkpt lat="47.623838" lon="7.989292">
        <ele>748.422199</ele>
        <time>2021-11-17T01:49:57.214Z</time>
      </trkpt>
      <trkpt lat="47.623561" lon="7.988865">
        <ele>750.363854</ele>
        <time>2021-11-17T01:50:10.264Z</time>
      </trkpt>
      <trkpt lat="47.623508" lon="7.988782">
        <ele>750.738442</ele>
        <time>2021-11-17T01:50:12.090Z</time>
      </trkpt>
      <trkpt lat="47.623303" lon="7.988291">
        <ele>752.179164</ele>
        <time>2021-11-17T01:50:22.513Z</time>
      </trkpt>
      <trkpt lat="47.623087" lon="7.987725">
        <ele>752.823760</ele>
        <time>2021-11-17T01:50:33.844Z</time>
      </trkpt>
      <trkpt lat="47.622073" lon="7.985033">
        <ele>754.146812</ele>
        <time>2021-11-17T01:51:10.358Z</time>
      </trkpt>
      <trkpt lat="47.622067" lon="7.985017">
        <ele>754.139838</ele>
        <time>2021-11-17T01:51:10.581Z</time>
      </trkpt>
      <trkpt lat="47.621842" lon="7.984392">
        <ele>753.869944</ele>
        <time>2021-11-17T01:51:16.414Z</time>
      </trkpt>
      <trkpt lat="47.621773" lon="7.984199">
        <ele>753.786728</ele>
        <time>2021-11-17T01:51:18.050Z</time>
      </trkpt>
      <trkpt lat="47.621453" lon="7.983289">
        <ele>752.077329</ele>
        <time>2021-11-17T01:51:25.457Z</time>
      </trkpt>
      <trkpt lat="47.621414" lon="7.983181">
        <ele>751.745505</ele>
        <time>2021-11-17T01:51:26.270Z</time>
      </trkpt>
      <trkpt lat="47.621434" lon="7.983161">
        <ele>751.648594</ele>
        <time>2021-11-17T01:51:26.963Z</time>
      </trkpt>
      <trkpt lat="47.621434" lon="7.983161">
        <ele>751.648594</ele>
        <time>2021-11-17T01:51:27.025Z</time>
      </trkpt>
      <trkpt lat="47.621434" lon="7.983161">
        <ele>751.648594</ele>
        <time>2021-11-17T01:51:27.386Z</time>
      </trkpt>
      <trkpt lat="47.621414" lon="7.983181">
        <ele>751.551683</ele>
        <time>2021-11-17T01:51:28.176Z</time>
      </trkpt>
      <trkpt lat="47.621287" lon="7.982952">
        <ele>750.748544</ele>
        <time>2021-11-17T01:51:30.183Z</time>
      </trkpt>
      <trkpt lat="47.621148" lon="7.982684">
        <ele>749.832718</ele>
        <time>2021-11-17T01:51:32.396Z</time>
      </trkpt>
      <trkpt lat="47.620712" lon="7.982017">
        <ele>747.316336</ele>
        <time>2021-11-17T01:51:38.319Z</time>
      </trkpt>
      <trkpt lat="47.620533" lon="7.981699">
        <ele>746.161295</ele>
        <time>2021-11-17T01:51:40.878Z</time>
      </trkpt>
      <trkpt lat="47.620263" lon="7.981105">
        <ele>743.884608</ele>
        <time>2021-11-17T01:51:45.388Z</time>
      </trkpt>
      <trkpt lat="47.619965" lon="7.980295">
        <ele>740.952158</ele>
        <time>2021-11-17T01:51:51.270Z</time>
      </trkpt>
      <trkpt lat="47.619797" lon="7.980012">
        <ele>739.753790</ele>
        <time>2021-11-17T01:51:53.801Z</time>
      </trkpt>
      <trkpt lat="47.619731" lon="7.979949">
        <ele>739.383791</ele>
        <time>2021-11-17T01:51:54.498Z</time>
      </trkpt>
      <trkpt lat="47.619309" lon="7.979839">
        <ele>737.510151</ele>
        <time>2021-11-17T01:51:58.692Z</time>
      </trkpt>
      <trkpt lat="47.619073" lon="7.979702">
        <ele>736.638567</ele>
        <time>2021-11-17T01:52:01.261Z</time>
      </trkpt>
      <trkpt lat="47.618976" lon="7.979589">
        <ele>736.214401</ele>
        <time>2021-11-17T01:52:02.540Z</time>
      </trkpt>
      <trkpt lat="47.618419" lon="7.978768">
        <ele>733.513986</ele>
        <time>2021-11-17T01:52:10.549Z</time>
      </trkpt>
      <trkpt lat="47.617897" lon="7.977926">
        <ele>730.969771</ele>
        <time>2021-11-17T01:52:18.301Z</time>
      </trkpt>
      <trkpt lat="47.617863" lon="7.977860">
        <ele>730.801427</ele>
        <time>2021-11-17T01:52:18.764Z</time>
      </trkpt>
      <trkpt lat="47.617183" lon="7.976739">
        <ele>727.745141</ele>
        <time>2021-11-17T01:52:29.029Z</time>
      </trkpt>
      <trkpt lat="47.617143" lon="7.976643">
        <ele>727.516417</ele>
        <time>2021-11-17T01:52:29.683Z</time>
      </trkpt>
      <trkpt lat="47.617122" lon="7.976576">
        <ele>727.366673</ele>
        <time>2021-11-17T01:52:30.371Z</time>
      </trkpt>
      <trkpt lat="47.617087" lon="7.976456">
        <ele>727.101688</ele>
        <time>2021-11-17T01:52:31.451Z</time>
      </trkpt>
      <trkpt lat="47.617050" lon="7.976280">
        <ele>726.728057</ele>
        <time>2021-11-17T01:52:34.164Z</time>
      </trkpt>
      <trkpt lat="47.617035" lon="7.976194">
        <ele>726.548027</ele>
        <time>2021-11-17T01:52:34.696Z</time>
      </trkpt>
      <trkpt lat="47.616932" lon="7.975644">
        <ele>726.770776</ele>
        <time>2021-11-17T01:52:39.693Z</time>
      </trkpt>
      <trkpt lat="47.616823" lon="7.975315">
        <ele>727.141808</ele>
        <time>2021-11-17T01:52:44.808Z</time>
      </trkpt>
      <trkpt lat="47.616605" lon="7.975163">
        <ele>727.503479</ele>
        <time>2021-11-17T01:52:48.242Z</time>
      </trkpt>
      <trkpt lat="47.616374" lon="7.975153">
        <ele>727.850466</ele>
        <time>2021-11-17T01:52:52.763Z</time>
      </trkpt>
      <trkpt lat="47.615835" lon="7.975151">
        <ele>728.659761</ele>
        <time>2021-11-17T01:53:07.751Z</time>
      </trkpt>
      <trkpt lat="47.615388" lon="7.975207">
        <ele>729.845256</ele>
        <time>2021-11-17T01:53:22.040Z</time>
      </trkpt>
      <trkpt lat="47.615223" lon="7.975285">
        <ele>730.519409</ele>
        <time>2021-11-17T01:53:27.422Z</time>
      </trkpt>
      <trkpt lat="47.614735" lon="7.975625">
        <ele>732.618234</ele>
        <time>2021-11-17T01:53:44.028Z</time>
      </trkpt>
      <trkpt lat="47.614050" lon="7.976273">
        <ele>735.780937</ele>
        <time>2021-11-17T01:54:07.648Z</time>
      </trkpt>
      <trkpt lat="47.613802" lon="7.976286">
        <ele>736.884034</ele>
        <time>2021-11-17T01:54:14.866Z</time>
      </trkpt>
      <trkpt lat="47.613439" lon="7.976020">
        <ele>738.754804</ele>
        <time>2021-11-17T01:54:29.017Z</time>
      </trkpt>
      <trkpt lat="47.613266" lon="7.975808">
        <ele>739.791654</ele>
        <time>2021-11-17T01:54:36.896Z</time>
      </trkpt>
      <trkpt lat="47.613184" lon="7.975689">
        <ele>740.321707</ele>
        <time>2021-11-17T01:54:41.072Z</time>
      </trkpt>
      <trkpt lat="47.612962" lon="7.975399">
        <ele>741.688531</ele>
        <time>2021-11-17T01:54:51.012Z</time>
      </trkpt>
      <trkpt lat="47.612866" lon="7.975328">
        <ele>742.184186</ele>
        <time>2021-11-17T01:54:54.841Z</time>
      </trkpt>
      <trkpt lat="47.612866" lon="7.975328">
        <ele>742.184186</ele>
        <time>2021-11-17T01:54:55.072Z</time>
      </trkpt>
      <trkpt lat="47.612717" lon="7.975295">
        <ele>742.880288</ele>
        <time>2021-11-17T01:54:59.501Z</time>
      </trkpt>
      <trkpt lat="47.612535" lon="7.975326">
        <ele>743.726765</ele>
        <time>2021-11-17T01:55:05.248Z</time>
      </trkpt>
      <trkpt lat="47.612357" lon="7.975517">
        <ele>744.479171</ele>
        <time>2021-11-17T01:55:12.456Z</time>
      </trkpt>
      <trkpt lat="47.612223" lon="7.975718">
        <ele>744.805325</ele>
        <time>2021-11-17T01:55:19.875Z</time>
      </trkpt>
      <trkpt lat="47.612133" lon="7.975906">
        <ele>745.071363</ele>
        <time>2021-11-17T01:55:23.962Z</time>
      </trkpt>
      <trkpt lat="47.611876" lon="7.976376">
        <ele>745.769596</ele>
        <time>2021-11-17T01:55:36.161Z</time>
      </trkpt>
      <trkpt lat="47.611711" lon="7.976600">
        <ele>746.152402</ele>
        <time>2021-11-17T01:55:43.156Z</time>
      </trkpt>
      <trkpt lat="47.611588" lon="7.976702">
        <ele>746.393576</ele>
        <time>2021-11-17T01:55:46.461Z</time>
      </trkpt>
      <trkpt lat="47.611343" lon="7.976840">
        <ele>746.842098</ele>
        <time>2021-11-17T01:55:51.027Z</time>
      </trkpt>
      <trkpt lat="47.610048" lon="7.976910">
        <ele>741.568759</ele>
        <time>2021-11-17T01:56:03.554Z</time>
      </trkpt>
      <trkpt lat="47.609956" lon="7.976908">
        <ele>741.014303</ele>
        <time>2021-11-17T01:56:04.387Z</time>
      </trkpt>
      <trkpt lat="47.609734" lon="7.976902">
        <ele>739.676298</ele>
        <time>2021-11-17T01:56:06.364Z</time>
      </trkpt>
      <trkpt lat="47.609554" lon="7.976848">
        <ele>738.569646</ele>
        <time>2021-11-17T01:56:07.966Z</time>
      </trkpt>
      <trkpt lat="47.609405" lon="7.976774">
        <ele>737.622770</ele>
        <time>2021-11-17T01:56:09.371Z</time>
      </trkpt>
      <trkpt lat="47.609225" lon="7.976647">
        <ele>736.362495</ele>
        <time>2021-11-17T01:56:11.088Z</time>
      </trkpt>
      <trkpt lat="47.609083" lon="7.976509">
        <ele>734.915355</ele>
        <time>2021-11-17T01:56:12.562Z</time>
      </trkpt>
      <trkpt lat="47.609057" lon="7.976492">
        <ele>734.673142</ele>
        <time>2021-11-17T01:56:12.798Z</time>
      </trkpt>
      <trkpt lat="47.608829" lon="7.976172">
        <ele>731.997406</ele>
        <time>2021-11-17T01:56:15.542Z</time>
      </trkpt>
      <trkpt lat="47.608764" lon="7.976082">
        <ele>731.239419</ele>
        <time>2021-11-17T01:56:16.280Z</time>
      </trkpt>
      <trkpt lat="47.608361" lon="7.975503">
        <ele>726.456722</ele>
        <time>2021-11-17T01:56:21.167Z</time>
      </trkpt>
      <trkpt lat="47.608085" lon="7.975248">
        <ele>723.684881</ele>
        <time>2021-11-17T01:56:24.002Z</time>
      </trkpt>
      <trkpt lat="47.607949" lon="7.975198">
        <ele>722.490480</ele>
        <time>2021-11-17T01:56:25.229Z</time>
      </trkpt>
      <trkpt lat="47.607811" lon="7.975152">
        <ele>721.284772</ele>
        <time>2021-11-17T01:56:26.511Z</time>
      </trkpt>
      <trkpt lat="47.607703" lon="7.975163">
        <ele>720.952419</ele>
        <time>2021-11-17T01:56:27.548Z</time>
      </trkpt>
      <trkpt lat="47.607293" lon="7.975219">
        <ele>719.824923</ele>
        <time>2021-11-17T01:56:31.567Z</time>
      </trkpt>
      <trkpt lat="47.607002" lon="7.975117">
        <ele>719.006098</ele>
        <time>2021-11-17T01:56:34.916Z</time>
      </trkpt>
      <trkpt lat="47.606836" lon="7.974966">
        <ele>718.472843</ele>
        <time>2021-11-17T01:56:37.035Z</time>
      </trkpt>
      <trkpt lat="47.606683" lon="7.974772">
        <ele>717.921634</ele>
        <time>2021-11-17T01:56:39.336Z</time>
      </trkpt>
      <trkpt lat="47.606512" lon="7.974504">
        <ele>717.240382</ele>
        <time>2021-11-17T01:56:42.224Z</time>
      </trkpt>
      <trkpt lat="47.606402" lon="7.974261">
        <ele>716.699993</ele>
        <time>2021-11-17T01:56:44.551Z</time>
      </trkpt>
      <trkpt lat="47.606300" lon="7.973918">
        <ele>716.244375</ele>
        <time>2021-11-17T01:56:48.230Z</time>
      </trkpt>
      <trkpt lat="47.606116" lon="7.973296">
        <ele>715.983648</ele>
        <time>2021-11-17T01:56:53.953Z</time>
      </trkpt>
      <trkpt lat="47.606058" lon="7.973155">
        <ele>715.920247</ele>
        <time>2021-11-17T01:56:55.584Z</time>
      </trkpt>
      <trkpt lat="47.605981" lon="7.973005">
        <ele>715.847880</ele>
        <time>2021-11-17T01:56:57.430Z</time>
      </trkpt>
      <trkpt lat="47.605871" lon="7.972904">
        <ele>715.774225</ele>
        <time>2021-11-17T01:56:58.870Z</time>
      </trkpt>
      <trkpt lat="47.605644" lon="7.972831">
        <ele>715.641985</ele>
        <time>2021-11-17T01:57:02.406Z</time>
      </trkpt>
      <trkpt lat="47.605516" lon="7.972819">
        <ele>715.568966</ele>
        <time>2021-11-17T01:57:03.791Z</time>
      </trkpt>
      <trkpt lat="47.605454" lon="7.972717">
        <ele>715.516250</ele>
        <time>2021-11-17T01:57:05.267Z</time>
      </trkpt>
      <trkpt lat="47.605365" lon="7.972611">
        <ele>715.451265</ele>
        <time>2021-11-17T01:57:07.016Z</time>
      </trkpt>
      <trkpt lat="47.605224" lon="7.972488">
        <ele>715.358134</ele>
        <time>2021-11-17T01:57:09.004Z</time>
      </trkpt>
      <trkpt lat="47.605056" lon="7.972376">
        <ele>715.337964</ele>
        <time>2021-11-17T01:57:11.926Z</time>
      </trkpt>
      <trkpt lat="47.604922" lon="7.972287">
        <ele>715.497060</ele>
        <time>2021-11-17T01:57:13.689Z</time>
      </trkpt>
      <trkpt lat="47.604528" lon="7.971728">
        <ele>716.087882</ele>
        <time>2021-11-17T01:57:22.169Z</time>
      </trkpt>
      <trkpt lat="47.604419" lon="7.971600">
        <ele>716.238534</ele>
        <time>2021-11-17T01:57:24.202Z</time>
      </trkpt>
      <trkpt lat="47.604366" lon="7.971555">
        <ele>716.304709</ele>
        <time>2021-11-17T01:57:25.385Z</time>
      </trkpt>
      <trkpt lat="47.604294" lon="7.971507">
        <ele>716.390248</ele>
        <time>2021-11-17T01:57:27.031Z</time>
      </trkpt>
      <trkpt lat="47.604261" lon="7.971490">
        <ele>716.428102</ele>
        <time>2021-11-17T01:57:27.740Z</time>
      </trkpt>
      <trkpt lat="47.604163" lon="7.971460">
        <ele>716.536532</ele>
        <time>2021-11-17T01:57:29.548Z</time>
      </trkpt>
      <trkpt lat="47.604023" lon="7.971466">
        <ele>716.688299</ele>
        <time>2021-11-17T01:57:32.613Z</time>
      </trkpt>
      <trkpt lat="47.603588" lon="7.971607">
        <ele>717.170788</ele>
        <time>2021-11-17T01:57:42.715Z</time>
      </trkpt>
      <trkpt lat="47.603305" lon="7.971596">
        <ele>718.642019</ele>
        <time>2021-11-17T01:57:50.210Z</time>
      </trkpt>
      <trkpt lat="47.603054" lon="7.971469">
        <ele>720.289103</ele>
        <time>2021-11-17T01:57:58.262Z</time>
      </trkpt>
      <trkpt lat="47.602252" lon="7.970803">
        <ele>725.997665</ele>
        <time>2021-11-17T01:58:36.909Z</time>
      </trkpt>
      <trkpt lat="47.601859" lon="7.970629">
        <ele>728.600656</ele>
        <time>2021-11-17T01:58:57.429Z</time>
      </trkpt>
      <trkpt lat="47.601648" lon="7.970592">
        <ele>730.435778</ele>
        <time>2021-11-17T01:59:09.156Z</time>
      </trkpt>
      <trkpt lat="47.601402" lon="7.970556">
        <ele>732.570822</ele>
        <time>2021-11-17T01:59:22.159Z</time>
      </trkpt>
      <trkpt lat="47.601180" lon="7.970508">
        <ele>734.508528</ele>
        <time>2021-11-17T01:59:32.819Z</time>
      </trkpt>
      <trkpt lat="47.600971" lon="7.970428">
        <ele>736.372837</ele>
        <time>2021-11-17T01:59:44.975Z</time>
      </trkpt>
      <trkpt lat="47.600336" lon="7.970065">
        <ele>742.250738</ele>
        <time>2021-11-17T02:00:19.725Z</time>
      </trkpt>
      <trkpt lat="47.599718" lon="7.969767">
        <ele>745.601642</ele>
        <time>2021-11-17T02:00:47.524Z</time>
      </trkpt>
      <trkpt lat="47.599352" lon="7.969493">
        <ele>747.102813</ele>
        <time>2021-11-17T02:01:01.320Z</time>
      </trkpt>
      <trkpt lat="47.598765" lon="7.968887">
        <ele>749.721602</ele>
        <time>2021-11-17T02:01:17.263Z</time>
      </trkpt>
      <trkpt lat="47.598343" lon="7.968578">
        <ele>750.157809</ele>
        <time>2021-11-17T02:01:24.647Z</time>
      </trkpt>
      <trkpt lat="47.597978" lon="7.968440">
        <ele>749.611762</ele>
        <time>2021-11-17T02:01:29.509Z</time>
      </trkpt>
      <trkpt lat="47.597103" lon="7.968192">
        <ele>748.320359</ele>
        <time>2021-11-17T02:01:39.297Z</time>
      </trkpt>
      <trkpt lat="47.596111" lon="7.968029">
        <ele>745.851434</ele>
        <time>2021-11-17T02:01:49.446Z</time>
      </trkpt>
      <trkpt lat="47.595897" lon="7.967970">
        <ele>745.226368</ele>
        <time>2021-11-17T02:01:51.682Z</time>
      </trkpt>
      <trkpt lat="47.595731" lon="7.967840">
        <ele>744.687280</ele>
        <time>2021-11-17T02:01:53.636Z</time>
      </trkpt>
      <trkpt lat="47.595487" lon="7.967606">
        <ele>743.852831</ele>
        <time>2021-11-17T02:01:56.579Z</time>
      </trkpt>
      <trkpt lat="47.595222" lon="7.967319">
        <ele>742.910490</ele>
        <time>2021-11-17T02:01:59.935Z</time>
      </trkpt>
      <trkpt lat="47.594433" lon="7.966488">
        <ele>742.034484</ele>
        <time>2021-11-17T02:02:10.422Z</time>
      </trkpt>
      <trkpt lat="47.594369" lon="7.966419">
        <ele>741.972374</ele>
        <time>2021-11-17T02:02:11.316Z</time>
      </trkpt>
      <trkpt lat="47.593845" lon="7.965844">
        <ele>741.460693</ele>
        <time>2021-11-17T02:02:23.038Z</time>
      </trkpt>
      <trkpt lat="47.593572" lon="7.965514">
        <ele>741.719294</ele>
        <time>2021-11-17T02:02:30.224Z</time>
      </trkpt>
      <trkpt lat="47.593274" lon="7.965197">
        <ele>742.429709</ele>
        <time>2021-11-17T02:02:38.170Z</time>
      </trkpt>
      <trkpt lat="47.592819" lon="7.964868">
        <ele>743.410274</ele>
        <time>2021-11-17T02:02:50.538Z</time>
      </trkpt>
      <trkpt lat="47.592518" lon="7.964704">
        <ele>744.031442</ele>
        <time>2021-11-17T02:02:59.112Z</time>
      </trkpt>
      <trkpt lat="47.591169" lon="7.964077">
        <ele>744.305571</ele>
        <time>2021-11-17T02:03:29.448Z</time>
      </trkpt>
      <trkpt lat="47.590665" lon="7.963794">
        <ele>744.028402</ele>
        <time>2021-11-17T02:03:35.292Z</time>
      </trkpt>
      <trkpt lat="47.590624" lon="7.963772">
        <ele>744.005978</ele>
        <time>2021-11-17T02:03:35.749Z</time>
      </trkpt>
      <trkpt lat="47.590227" lon="7.963517">
        <ele>742.593560</ele>
        <time>2021-11-17T02:03:39.941Z</time>
      </trkpt>
      <trkpt lat="47.589112" lon="7.962950">
        <ele>735.664412</ele>
        <time>2021-11-17T02:03:50.713Z</time>
      </trkpt>
      <trkpt lat="47.588758" lon="7.962844">
        <ele>733.541458</ele>
        <time>2021-11-17T02:03:53.916Z</time>
      </trkpt>
      <trkpt lat="47.588243" lon="7.962855">
        <ele>730.255746</ele>
        <time>2021-11-17T02:03:58.596Z</time>
      </trkpt>
      <trkpt lat="47.587999" lon="7.962882">
        <ele>728.685389</ele>
        <time>2021-11-17T02:04:00.815Z</time>
      </trkpt>
      <trkpt lat="47.587762" lon="7.962890">
        <ele>727.163920</ele>
        <time>2021-11-17T02:04:02.961Z</time>
      </trkpt>
      <trkpt lat="47.587593" lon="7.962854">
        <ele>726.068134</ele>
        <time>2021-11-17T02:04:04.526Z</time>
      </trkpt>
      <trkpt lat="47.587527" lon="7.962835">
        <ele>725.636633</ele>
        <time>2021-11-17T02:04:05.145Z</time>
      </trkpt>
      <trkpt lat="47.587299" lon="7.962810">
        <ele>724.169323</ele>
        <time>2021-11-17T02:04:07.252Z</time>
      </trkpt>
      <trkpt lat="47.587114" lon="7.962708">
        <ele>722.902548</ele>
        <time>2021-11-17T02:04:09.080Z</time>
      </trkpt>
      <trkpt lat="47.586786" lon="7.962503">
        <ele>720.594681</ele>
        <time>2021-11-17T02:04:12.314Z</time>
      </trkpt>
      <trkpt lat="47.586624" lon="7.962373">
        <ele>719.388688</ele>
        <time>2021-11-17T02:04:13.971Z</time>
      </trkpt>
      <trkpt lat="47.586491" lon="7.962168">
        <ele>718.132646</ele>
        <time>2021-11-17T02:04:15.721Z</time>
      </trkpt>
      <trkpt lat="47.586296" lon="7.961772">
        <ele>715.967553</ele>
        <time>2021-11-17T02:04:18.707Z</time>
      </trkpt>
      <trkpt lat="47.586005" lon="7.961489">
        <ele>713.689104</ele>
        <time>2021-11-17T02:04:21.840Z</time>
      </trkpt>
      <trkpt lat="47.585805" lon="7.961386">
        <ele>712.302967</ele>
        <time>2021-11-17T02:04:23.728Z</time>
      </trkpt>
      <trkpt lat="47.585514" lon="7.961317">
        <ele>710.373590</ele>
        <time>2021-11-17T02:04:26.398Z</time>
      </trkpt>
      <trkpt lat="47.585281" lon="7.961295">
        <ele>709.056464</ele>
        <time>2021-11-17T02:04:28.577Z</time>
      </trkpt>
      <trkpt lat="47.585149" lon="7.961311">
        <ele>708.347405</ele>
        <time>2021-11-17T02:04:29.752Z</time>
      </trkpt>
      <trkpt lat="47.585078" lon="7.961320">
        <ele>707.965898</ele>
        <time>2021-11-17T02:04:30.423Z</time>
      </trkpt>
      <trkpt lat="47.584845" lon="7.961410">
        <ele>706.676821</ele>
        <time>2021-11-17T02:04:32.687Z</time>
      </trkpt>
      <trkpt lat="47.584506" lon="7.961629">
        <ele>704.697067</ele>
        <time>2021-11-17T02:04:36.083Z</time>
      </trkpt>
      <trkpt lat="47.583450" lon="7.962220">
        <ele>699.470126</ele>
        <time>2021-11-17T02:04:46.806Z</time>
      </trkpt>
      <trkpt lat="47.583243" lon="7.962307">
        <ele>698.864303</ele>
        <time>2021-11-17T02:04:48.942Z</time>
      </trkpt>
      <trkpt lat="47.583134" lon="7.962356">
        <ele>698.543591</ele>
        <time>2021-11-17T02:04:50.118Z</time>
      </trkpt>
      <trkpt lat="47.582968" lon="7.962415">
        <ele>698.062937</ele>
        <time>2021-11-17T02:04:51.894Z</time>
      </trkpt>
      <trkpt lat="47.582545" lon="7.962501">
        <ele>696.860741</ele>
        <time>2021-11-17T02:04:56.420Z</time>
      </trkpt>
      <trkpt lat="47.582180" lon="7.962548">
        <ele>695.829134</ele>
        <time>2021-11-17T02:05:00.441Z</time>
      </trkpt>
      <trkpt lat="47.581514" lon="7.962514">
        <ele>695.300673</ele>
        <time>2021-11-17T02:05:08.321Z</time>
      </trkpt>
      <trkpt lat="47.580893" lon="7.962449">
        <ele>695.287333</ele>
        <time>2021-11-17T02:05:17.677Z</time>
      </trkpt>
      <trkpt lat="47.580131" lon="7.962271">
        <ele>695.357161</ele>
        <time>2021-11-17T02:05:32.161Z</time>
      </trkpt>
      <trkpt lat="47.579759" lon="7.962106">
        <ele>695.780467</ele>
        <time>2021-11-17T02:05:40.043Z</time>
      </trkpt>
      <trkpt lat="47.579531" lon="7.961925">
        <ele>696.062422</ele>
        <time>2021-11-17T02:05:44.956Z</time>
      </trkpt>
      <trkpt lat="47.579169" lon="7.961638">
        <ele>696.509956</ele>
        <time>2021-11-17T02:05:52.970Z</time>
      </trkpt>
      <trkpt lat="47.578838" lon="7.961180">
        <ele>697.003568</ele>
        <time>2021-11-17T02:06:01.740Z</time>
      </trkpt>
      <trkpt lat="47.578655" lon="7.960775">
        <ele>697.272530</ele>
        <time>2021-11-17T02:06:07.974Z</time>
      </trkpt>
      <trkpt lat="47.578614" lon="7.960661">
        <ele>697.301482</ele>
        <time>2021-11-17T02:06:09.450Z</time>
      </trkpt>
      <trkpt lat="47.578556" lon="7.960464">
        <ele>697.349652</ele>
        <time>2021-11-17T02:06:12.011Z</time>
      </trkpt>
      <trkpt lat="47.578529" lon="7.960324">
        <ele>697.382283</ele>
        <time>2021-11-17T02:06:13.854Z</time>
      </trkpt>
      <trkpt lat="47.578451" lon="7.959921">
        <ele>697.476241</ele>
        <time>2021-11-17T02:06:18.514Z</time>
      </trkpt>
      <trkpt lat="47.578428" lon="7.959421">
        <ele>697.588554</ele>
        <time>2021-11-17T02:06:23.993Z</time>
      </trkpt>
      <trkpt lat="47.578453" lon="7.959023">
        <ele>697.678134</ele>
        <time>2021-11-17T02:06:28.189Z</time>
      </trkpt>
      <trkpt lat="47.578554" lon="7.958491">
        <ele>697.801989</ele>
        <time>2021-11-17T02:06:33.651Z</time>
      </trkpt>
      <trkpt lat="47.578723" lon="7.958003">
        <ele>697.407115</ele>
        <time>2021-11-17T02:06:38.925Z</time>
      </trkpt>
      <trkpt lat="47.579019" lon="7.957379">
        <ele>696.637298</ele>
        <time>2021-11-17T02:06:45.199Z</time>
      </trkpt>
      <trkpt lat="47.579581" lon="7.956485">
        <ele>695.404103</ele>
        <time>2021-11-17T02:06:54.320Z</time>
      </trkpt>
      <trkpt lat="47.579879" lon="7.956035">
        <ele>694.254652</ele>
        <time>2021-11-17T02:06:58.740Z</time>
      </trkpt>
      <trkpt lat="47.580034" lon="7.955780">
        <ele>693.430941</ele>
        <time>2021-11-17T02:07:01.091Z</time>
      </trkpt>
      <trkpt lat="47.580265" lon="7.955293">
        <ele>692.002285</ele>
        <time>2021-11-17T02:07:05.181Z</time>
      </trkpt>
      <trkpt lat="47.580339" lon="7.955104">
        <ele>691.477879</ele>
        <time>2021-11-17T02:07:06.654Z</time>
      </trkpt>
      <trkpt lat="47.580388" lon="7.954967">
        <ele>691.105768</ele>
        <time>2021-11-17T02:07:07.611Z</time>
      </trkpt>
      <trkpt lat="47.580536" lon="7.954398">
        <ele>689.642354</ele>
        <time>2021-11-17T02:07:11.541Z</time>
      </trkpt>
      <trkpt lat="47.580783" lon="7.953015">
        <ele>684.982648</ele>
        <time>2021-11-17T02:07:21.067Z</time>
      </trkpt>
      <trkpt lat="47.580801" lon="7.952840">
        <ele>684.352085</ele>
        <time>2021-11-17T02:07:22.156Z</time>
      </trkpt>
      <trkpt lat="47.580789" lon="7.952623">
        <ele>683.576529</ele>
        <time>2021-11-17T02:07:23.748Z</time>
      </trkpt>
      <trkpt lat="47.580514" lon="7.951308">
        <ele>678.183383</ele>
        <time>2021-11-17T02:07:32.172Z</time>
      </trkpt>
      <trkpt lat="47.580578" lon="7.950534">
        <ele>673.026706</ele>
        <time>2021-11-17T02:07:36.808Z</time>
      </trkpt>
      <trkpt lat="47.580705" lon="7.949917">
        <ele>668.760841</ele>
        <time>2021-11-17T02:07:40.580Z</time>
      </trkpt>
      <trkpt lat="47.580743" lon="7.949656">
        <ele>666.995142</ele>
        <time>2021-11-17T02:07:42.104Z</time>
      </trkpt>
      <trkpt lat="47.580939" lon="7.948093">
        <ele>656.340213</ele>
        <time>2021-11-17T02:07:51.154Z</time>
      </trkpt>
      <trkpt lat="47.580865" lon="7.947817">
        <ele>654.321812</ele>
        <time>2021-11-17T02:07:52.861Z</time>
      </trkpt>
      <trkpt lat="47.580562" lon="7.947489">
        <ele>650.541951</ele>
        <time>2021-11-17T02:07:56.047Z</time>
      </trkpt>
      <trkpt lat="47.580077" lon="7.947070">
        <ele>644.886536</ele>
        <time>2021-11-17T02:08:00.977Z</time>
      </trkpt>
      <trkpt lat="47.579781" lon="7.947052">
        <ele>642.465448</ele>
        <time>2021-11-17T02:08:03.653Z</time>
      </trkpt>
      <trkpt lat="47.579396" lon="7.946888">
        <ele>639.861812</ele>
        <time>2021-11-17T02:08:07.344Z</time>
      </trkpt>
      <trkpt lat="47.578644" lon="7.947268">
        <ele>634.697888</ele>
        <time>2021-11-17T02:08:14.704Z</time>
      </trkpt>
      <trkpt lat="47.578396" lon="7.947244">
        <ele>633.082537</ele>
        <time>2021-11-17T02:08:16.918Z</time>
      </trkpt>
      <trkpt lat="47.578328" lon="7.947192">
        <ele>632.585217</ele>
        <time>2021-11-17T02:08:18.677Z</time>
      </trkpt>
      <trkpt lat="47.578220" lon="7.946989">
        <ele>631.180717</ele>
        <time>2021-11-17T02:08:20.179Z</time>
      </trkpt>
      <trkpt lat="47.578055" lon="7.946424">
        <ele>626.378104</ele>
        <time>2021-11-17T02:08:23.906Z</time>
      </trkpt>
      <trkpt lat="47.577848" lon="7.945352">
        <ele>617.679983</ele>
        <time>2021-11-17T02:08:30.316Z</time>
      </trkpt>
      <trkpt lat="47.577504" lon="7.944765">
        <ele>611.614452</ele>
        <time>2021-11-17T02:08:34.681Z</time>
      </trkpt>
      <trkpt lat="47.576917" lon="7.944153">
        <ele>598.257518</ele>
        <time>2021-11-17T02:08:40.581Z</time>
      </trkpt>
      <trkpt lat="47.576848" lon="7.944056">
        <ele>596.434075</ele>
        <time>2021-11-17T02:08:41.364Z</time>
      </trkpt>
      <trkpt lat="47.576803" lon="7.944012">
        <ele>595.400387</ele>
        <time>2021-11-17T02:08:41.816Z</time>
      </trkpt>
      <trkpt lat="47.576670" lon="7.943775">
        <ele>591.412568</ele>
        <time>2021-11-17T02:08:43.539Z</time>
      </trkpt>
      <trkpt lat="47.576415" lon="7.943598">
        <ele>586.013397</ele>
        <time>2021-11-17T02:08:45.835Z</time>
      </trkpt>
      <trkpt lat="47.575978" lon="7.943401">
        <ele>577.254942</ele>
        <time>2021-11-17T02:08:49.567Z</time>
      </trkpt>
      <trkpt lat="47.575613" lon="7.943320">
        <ele>570.008916</ele>
        <time>2021-11-17T02:08:52.575Z</time>
      </trkpt>
      <trkpt lat="47.574655" lon="7.943625">
        <ele>550.718542</ele>
        <time>2021-11-17T02:09:00.589Z</time>
      </trkpt>
      <trkpt lat="47.574394" lon="7.943856">
        <ele>544.733950</ele>
        <time>2021-11-17T02:09:03.077Z</time>
      </trkpt>
      <trkpt lat="47.574153" lon="7.944610">
        <ele>536.048221</ele>
        <time>2021-11-17T02:09:07.719Z</time>
      </trkpt>
      <trkpt lat="47.573532" lon="7.946081">
        <ele>520.413418</ele>
        <time>2021-11-17T02:09:17.531Z</time>
      </trkpt>
      <trkpt lat="47.573421" lon="7.946607">
        <ele>516.387416</ele>
        <time>2021-11-17T02:09:20.761Z</time>
      </trkpt>
      <trkpt lat="47.573457" lon="7.946845">
        <ele>515.455088</ele>
        <time>2021-11-17T02:09:22.229Z</time>
      </trkpt>
      <trkpt lat="47.573702" lon="7.947589">
        <ele>512.290495</ele>
        <time>2021-11-17T02:09:27.363Z</time>
      </trkpt>
      <trkpt lat="47.573779" lon="7.948382">
        <ele>509.228077</ele>
        <time>2021-11-17T02:09:32.612Z</time>
      </trkpt>
      <trkpt lat="47.573841" lon="7.949945">
        <ele>503.897442</ele>
        <time>2021-11-17T02:09:43.166Z</time>
      </trkpt>
      <trkpt lat="47.573833" lon="7.950164">
        <ele>503.209525</ele>
        <time>2021-11-17T02:09:44.676Z</time>
      </trkpt>
      <trkpt lat="47.573830" lon="7.950662">
        <ele>501.647446</ele>
        <time>2021-11-17T02:09:47.844Z</time>
      </trkpt>
      <trkpt lat="47.573809" lon="7.950963">
        <ele>500.698301</ele>
        <time>2021-11-17T02:09:49.830Z</time>
      </trkpt>
      <trkpt lat="47.573771" lon="7.951175">
        <ele>500.010276</ele>
        <time>2021-11-17T02:09:51.163Z</time>
      </trkpt>
      <trkpt lat="47.573543" lon="7.952446">
        <ele>494.401539</ele>
        <time>2021-11-17T02:09:59.288Z</time>
      </trkpt>
      <trkpt lat="47.573526" lon="7.952563">
        <ele>493.815297</ele>
        <time>2021-11-17T02:09:59.986Z</time>
      </trkpt>
      <trkpt lat="47.573508" lon="7.952785">
        <ele>492.720049</ele>
        <time>2021-11-17T02:10:01.323Z</time>
      </trkpt>
      <trkpt lat="47.573460" lon="7.953097">
        <ele>491.152545</ele>
        <time>2021-11-17T02:10:03.294Z</time>
      </trkpt>
      <trkpt lat="47.573085" lon="7.954089">
        <ele>485.582591</ele>
        <time>2021-11-17T02:10:10.046Z</time>
      </trkpt>
      <trkpt lat="47.572895" lon="7.955000">
        <ele>480.957402</ele>
        <time>2021-11-17T02:10:15.716Z</time>
      </trkpt>
      <trkpt lat="47.572816" lon="7.955144">
        <ele>480.057355</ele>
        <time>2021-11-17T02:10:16.925Z</time>
      </trkpt>
      <trkpt lat="47.572732" lon="7.955226">
        <ele>479.334387</ele>
        <time>2021-11-17T02:10:17.794Z</time>
      </trkpt>
      <trkpt lat="47.572685" lon="7.955235">
        <ele>478.993746</ele>
        <time>2021-11-17T02:10:18.205Z</time>
      </trkpt>
      <trkpt lat="47.572561" lon="7.955012">
        <ele>477.592363</ele>
        <time>2021-11-17T02:10:20.126Z</time>
      </trkpt>
      <trkpt lat="47.572552" lon="7.954824">
        <ele>476.678386</ele>
        <time>2021-11-17T02:10:21.236Z</time>
      </trkpt>
      <trkpt lat="47.572493" lon="7.953580">
        <ele>470.878278</ele>
        <time>2021-11-17T02:10:28.817Z</time>
      </trkpt>
      <trkpt lat="47.572431" lon="7.953273">
        <ele>469.525760</ele>
        <time>2021-11-17T02:10:30.764Z</time>
      </trkpt>
      <trkpt lat="47.572136" lon="7.952448">
        <ele>465.584959</ele>
        <time>2021-11-17T02:10:36.545Z</time>
      </trkpt>
      <trkpt lat="47.572063" lon="7.952158">
        <ele>464.278568</ele>
        <time>2021-11-17T02:10:38.532Z</time>
      </trkpt>
      <trkpt lat="47.572029" lon="7.952049">
        <ele>463.771733</ele>
        <time>2021-11-17T02:10:39.251Z</time>
      </trkpt>
      <trkpt lat="47.571881" lon="7.951642">
        <ele>461.820321</ele>
        <time>2021-11-17T02:10:42.141Z</time>
      </trkpt>
      <trkpt lat="47.571580" lon="7.951400">
        <ele>459.509762</ele>
        <time>2021-11-17T02:10:45.271Z</time>
      </trkpt>
      <trkpt lat="47.571432" lon="7.951352">
        <ele>458.462795</ele>
        <time>2021-11-17T02:10:46.608Z</time>
      </trkpt>
      <trkpt lat="47.571372" lon="7.951351">
        <ele>458.048132</ele>
        <time>2021-11-17T02:10:47.154Z</time>
      </trkpt>
      <trkpt lat="47.571274" lon="7.951357">
        <ele>457.370316</ele>
        <time>2021-11-17T02:10:48.070Z</time>
      </trkpt>
      <trkpt lat="47.571169" lon="7.951380">
        <ele>456.636821</ele>
        <time>2021-11-17T02:10:49.013Z</time>
      </trkpt>
      <trkpt lat="47.571014" lon="7.951483">
        <ele>455.462952</ele>
        <time>2021-11-17T02:10:50.513Z</time>
      </trkpt>
      <trkpt lat="47.570777" lon="7.951728">
        <ele>453.466138</ele>
        <time>2021-11-17T02:10:53.083Z</time>
      </trkpt>
      <trkpt lat="47.570624" lon="7.952436">
        <ele>449.999928</ele>
        <time>2021-11-17T02:10:57.660Z</time>
      </trkpt>
      <trkpt lat="47.570406" lon="7.952888">
        <ele>447.088781</ele>
        <time>2021-11-17T02:11:01.001Z</time>
      </trkpt>
      <trkpt lat="47.570312" lon="7.952962">
        <ele>446.190350</ele>
        <time>2021-11-17T02:11:01.974Z</time>
      </trkpt>
      <trkpt lat="47.570258" lon="7.953004">
        <ele>445.675587</ele>
        <time>2021-11-17T02:11:02.511Z</time>
      </trkpt>
      <trkpt lat="47.570064" lon="7.953030">
        <ele>444.031346</ele>
        <time>2021-11-17T02:11:04.216Z</time>
      </trkpt>
      <trkpt lat="47.569469" lon="7.953110">
        <ele>438.988310</ele>
        <time>2021-11-17T02:11:09.481Z</time>
      </trkpt>
      <trkpt lat="47.568801" lon="7.953205">
        <ele>433.235742</ele>
        <time>2021-11-17T02:11:15.296Z</time>
      </trkpt>
      <trkpt lat="47.568529" lon="7.953233">
        <ele>430.356710</ele>
        <time>2021-11-17T02:11:17.647Z</time>
      </trkpt>
      <trkpt lat="47.568322" lon="7.953261">
        <ele>428.161864</ele>
        <time>2021-11-17T02:11:19.437Z</time>
      </trkpt>
      <trkpt lat="47.568036" lon="7.953298">
        <ele>425.130440</ele>
        <time>2021-11-17T02:11:21.883Z</time>
      </trkpt>
      <trkpt lat="47.567660" lon="7.953207">
        <ele>421.107580</ele>
        <time>2021-11-17T02:11:25.131Z</time>
      </trkpt>
      <trkpt lat="47.567503" lon="7.953060">
        <ele>419.146675</ele>
        <time>2021-11-17T02:11:26.734Z</time>
      </trkpt>
      <trkpt lat="47.567451" lon="7.952996">
        <ele>418.432953</ele>
        <time>2021-11-17T02:11:27.292Z</time>
      </trkpt>
      <trkpt lat="47.567312" lon="7.952728">
        <ele>416.024639</ele>
        <time>2021-11-17T02:11:29.258Z</time>
      </trkpt>
      <trkpt lat="47.567222" lon="7.952062">
        <ele>411.497778</ele>
        <time>2021-11-17T02:11:33.158Z</time>
      </trkpt>
      <trkpt lat="47.567206" lon="7.950456">
        <ele>401.076527</ele>
        <time>2021-11-17T02:11:42.489Z</time>
      </trkpt>
      <trkpt lat="47.567150" lon="7.950174">
        <ele>399.169243</ele>
        <time>2021-11-17T02:11:44.234Z</time>
      </trkpt>
      <trkpt lat="47.566740" lon="7.949245">
        <ele>393.373052</ele>
        <time>2021-11-17T02:11:50.930Z</time>
      </trkpt>
      <trkpt lat="47.566807" lon="7.948128">
        <ele>387.985048</ele>
        <time>2021-11-17T02:11:57.820Z</time>
      </trkpt>
      <trkpt lat="47.566739" lon="7.947778">
        <ele>386.235080</ele>
        <time>2021-11-17T02:12:00.024Z</time>
      </trkpt>
      <trkpt lat="47.566559" lon="7.947459">
        <ele>384.215409</ele>
        <time>2021-11-17T02:12:02.496Z</time>
      </trkpt>
      <trkpt lat="47.566361" lon="7.947197">
        <ele>382.205417</ele>
        <time>2021-11-17T02:12:04.849Z</time>
      </trkpt>
      <trkpt lat="47.566181" lon="7.947137">
        <ele>380.808323</ele>
        <time>2021-11-17T02:12:06.537Z</time>
      </trkpt>
      <trkpt lat="47.566104" lon="7.947141">
        <ele>380.224884</ele>
        <time>2021-11-17T02:12:07.231Z</time>
      </trkpt>
      <trkpt lat="47.566041" lon="7.947154">
        <ele>379.743217</ele>
        <time>2021-11-17T02:12:07.782Z</time>
      </trkpt>
      <trkpt lat="47.566020" lon="7.947169">
        <ele>379.566690</ele>
        <time>2021-11-17T02:12:07.987Z</time>
      </trkpt>
      <trkpt lat="47.565946" lon="7.947239">
        <ele>378.901913</ele>
        <time>2021-11-17T02:12:08.792Z</time>
      </trkpt>
      <trkpt lat="47.565560" lon="7.947737">
        <ele>375.026562</ele>
        <time>2021-11-17T02:12:13.406Z</time>
      </trkpt>
      <trkpt lat="47.565487" lon="7.947832">
        <ele>374.290904</ele>
        <time>2021-11-17T02:12:14.247Z</time>
      </trkpt>
      <trkpt lat="47.565349" lon="7.947927">
        <ele>373.138670</ele>
        <time>2021-11-17T02:12:15.617Z</time>
      </trkpt>
      <trkpt lat="47.565219" lon="7.948009">
        <ele>372.068796</ele>
        <time>2021-11-17T02:12:16.863Z</time>
      </trkpt>
      <trkpt lat="47.565100" lon="7.948048">
        <ele>371.145902</ele>
        <time>2021-11-17T02:12:17.935Z</time>
      </trkpt>
      <trkpt lat="47.565021" lon="7.948043">
        <ele>370.473139</ele>
        <time>2021-11-17T02:12:18.628Z</time>
      </trkpt>
      <trkpt lat="47.564900" lon="7.948021">
        <ele>369.383877</ele>
        <time>2021-11-17T02:12:19.695Z</time>
      </trkpt>
      <trkpt lat="47.564785" lon="7.947966">
        <ele>368.304153</ele>
        <time>2021-11-17T02:12:20.725Z</time>
      </trkpt>
      <trkpt lat="47.564750" lon="7.947944">
        <ele>367.964456</ele>
        <time>2021-11-17T02:12:21.064Z</time>
      </trkpt>
      <trkpt lat="47.564704" lon="7.947878">
        <ele>367.392377</ele>
        <time>2021-11-17T02:12:21.626Z</time>
      </trkpt>
      <trkpt lat="47.564636" lon="7.947804">
        <ele>366.638574</ele>
        <time>2021-11-17T02:12:22.362Z</time>
      </trkpt>
      <trkpt lat="47.564602" lon="7.947749">
        <ele>366.188852</ele>
        <time>2021-11-17T02:12:22.797Z</time>
      </trkpt>
      <trkpt lat="47.564466" lon="7.947344">
        <ele>363.461404</ele>
        <time>2021-11-17T02:12:25.445Z</time>
      </trkpt>
      <trkpt lat="47.564404" lon="7.946994">
        <ele>361.279713</ele>
        <time>2021-11-17T02:12:27.563Z</time>
      </trkpt>
      <trkpt lat="47.564365" lon="7.946824">
        <ele>360.197146</ele>
        <time>2021-11-17T02:12:28.622Z</time>
      </trkpt>
      <trkpt lat="47.564271" lon="7.946559">
        <ele>358.392115</ele>
        <time>2021-11-17T02:12:30.388Z</time>
      </trkpt>
      <trkpt lat="47.564141" lon="7.946291">
        <ele>356.402120</ele>
        <time>2021-11-17T02:12:32.341Z</time>
      </trkpt>
      <trkpt lat="47.564119" lon="7.946229">
        <ele>355.979778</ele>
        <time>2021-11-17T02:12:32.743Z</time>
      </trkpt>
      <trkpt lat="47.564025" lon="7.945964">
        <ele>354.211480</ele>
        <time>2021-11-17T02:12:34.554Z</time>
      </trkpt>
      <trkpt lat="47.563874" lon="7.945541">
        <ele>351.475049</ele>
        <time>2021-11-17T02:12:37.334Z</time>
      </trkpt>
      <trkpt lat="47.563855" lon="7.945417">
        <ele>350.747937</ele>
        <time>2021-11-17T02:12:38.075Z</time>
      </trkpt>
      <trkpt lat="47.563798" lon="7.945261">
        <ele>349.733508</ele>
        <time>2021-11-17T02:12:39.087Z</time>
      </trkpt>
      <trkpt lat="47.563725" lon="7.945071">
        <ele>348.483266</ele>
        <time>2021-11-17T02:12:40.399Z</time>
      </trkpt>
      <trkpt lat="47.563643" lon="7.944887">
        <ele>347.222347</ele>
        <time>2021-11-17T02:12:41.689Z</time>
      </trkpt>
      <trkpt lat="47.563617" lon="7.944825">
        <ele>346.804928</ele>
        <time>2021-11-17T02:12:42.103Z</time>
      </trkpt>
      <trkpt lat="47.563376" lon="7.944323">
        <ele>343.281970</ele>
        <time>2021-11-17T02:12:45.749Z</time>
      </trkpt>
      <trkpt lat="47.563250" lon="7.944210">
        <ele>342.033908</ele>
        <time>2021-11-17T02:12:47.107Z</time>
      </trkpt>
      <trkpt lat="47.563121" lon="7.944175">
        <ele>340.922547</ele>
        <time>2021-11-17T02:12:48.252Z</time>
      </trkpt>
      <trkpt lat="47.562993" lon="7.944148">
        <ele>339.826897</ele>
        <time>2021-11-17T02:12:49.415Z</time>
      </trkpt>
      <trkpt lat="47.562431" lon="7.944285">
        <ele>336.071796</ele>
        <time>2021-11-17T02:12:54.624Z</time>
      </trkpt>
      <trkpt lat="47.562104" lon="7.944442">
        <ele>333.830892</ele>
        <time>2021-11-17T02:12:57.781Z</time>
      </trkpt>
      <trkpt lat="47.561884" lon="7.944575">
        <ele>332.281894</ele>
        <time>2021-11-17T02:12:59.978Z</time>
      </trkpt>
      <trkpt lat="47.561590" lon="7.944808">
        <ele>330.108349</ele>
        <time>2021-11-17T02:13:02.971Z</time>
      </trkpt>
      <trkpt lat="47.561549" lon="7.944844">
        <ele>329.797662</ele>
        <time>2021-11-17T02:13:03.443Z</time>
      </trkpt>
      <trkpt lat="47.561253" lon="7.945105">
        <ele>327.464468</ele>
        <time>2021-11-17T02:13:06.561Z</time>
      </trkpt>
      <trkpt lat="47.561051" lon="7.945242">
        <ele>325.669754</ele>
        <time>2021-11-17T02:13:08.537Z</time>
      </trkpt>
      <trkpt lat="47.560884" lon="7.945275">
        <ele>324.308647</ele>
        <time>2021-11-17T02:13:10.045Z</time>
      </trkpt>
      <trkpt lat="47.560748" lon="7.945268">
        <ele>323.209263</ele>
        <time>2021-11-17T02:13:11.267Z</time>
      </trkpt>
      <trkpt lat="47.560632" lon="7.945223">
        <ele>322.240539</ele>
        <time>2021-11-17T02:13:12.310Z</time>
      </trkpt>
      <trkpt lat="47.560464" lon="7.945085">
        <ele>320.688729</ele>
        <time>2021-11-17T02:13:14.016Z</time>
      </trkpt>
      <trkpt lat="47.560288" lon="7.944850">
        <ele>318.774813</ele>
        <time>2021-11-17T02:13:16.086Z</time>
      </trkpt>
      <trkpt lat="47.560144" lon="7.944665">
        <ele>317.235138</ele>
        <time>2021-11-17T02:13:17.736Z</time>
      </trkpt>
      <trkpt lat="47.560106" lon="7.944624">
        <ele>316.855391</ele>
        <time>2021-11-17T02:13:18.133Z</time>
      </trkpt>
      <trkpt lat="47.559855" lon="7.944533">
        <ele>314.767797</ele>
        <time>2021-11-17T02:13:20.394Z</time>
      </trkpt>
      <trkpt lat="47.559774" lon="7.944500">
        <ele>314.089131</ele>
        <time>2021-11-17T02:13:21.124Z</time>
      </trkpt>
      <trkpt lat="47.559609" lon="7.944534">
        <ele>312.886473</ele>
        <time>2021-11-17T02:13:22.600Z</time>
      </trkpt>
      <trkpt lat="47.559263" lon="7.944710">
        <ele>310.587489</ele>
        <time>2021-11-17T02:13:25.808Z</time>
      </trkpt>
      <trkpt lat="47.559249" lon="7.944727">
        <ele>310.473740</ele>
        <time>2021-11-17T02:13:25.958Z</time>
      </trkpt>
      <trkpt lat="47.558967" lon="7.945068">
        <ele>308.186334</ele>
        <time>2021-11-17T02:13:29.230Z</time>
      </trkpt>
      <trkpt lat="47.558781" lon="7.945419">
        <ele>306.293645</ele>
        <time>2021-11-17T02:13:32.028Z</time>
      </trkpt>
      <trkpt lat="47.558676" lon="7.945591">
        <ele>305.310011</ele>
        <time>2021-11-17T02:13:33.464Z</time>
      </trkpt>
      <trkpt lat="47.558644" lon="7.945668">
        <ele>304.926497</ele>
        <time>2021-11-17T02:13:34.054Z</time>
      </trkpt>
      <trkpt lat="47.558608" lon="7.945765">
        <ele>304.457010</ele>
        <time>2021-11-17T02:13:34.764Z</time>
      </trkpt>
      <trkpt lat="47.558540" lon="7.945722">
        <ele>303.992379</ele>
        <time>2021-11-17T02:13:35.467Z</time>
      </trkpt>
      <trkpt lat="47.558415" lon="7.945666">
        <ele>303.171698</ele>
        <time>2021-11-17T02:13:36.670Z</time>
      </trkpt>
      <trkpt lat="47.558161" lon="7.945614">
        <ele>301.936960</ele>
        <time>2021-11-17T02:13:39.296Z</time>
      </trkpt>
      <trkpt lat="47.558102" lon="7.945615">
        <ele>301.832683</ele>
        <time>2021-11-17T02:13:39.817Z</time>
      </trkpt>
      <trkpt lat="47.558009" lon="7.945617">
        <ele>301.668307</ele>
        <time>2021-11-17T02:13:40.767Z</time>
      </trkpt>
      <trkpt lat="47.557910" lon="7.945625">
        <ele>301.493086</ele>
        <time>2021-11-17T02:13:41.804Z</time>
      </trkpt>
      <trkpt lat="47.557744" lon="7.945674">
        <ele>301.193951</ele>
        <time>2021-11-17T02:13:43.584Z</time>
      </trkpt>
      <trkpt lat="47.557613" lon="7.945697">
        <ele>300.960817</ele>
        <time>2021-11-17T02:13:45.071Z</time>
      </trkpt>
      <trkpt lat="47.557529" lon="7.945747">
        <ele>300.800835</ele>
        <time>2021-11-17T02:13:46.113Z</time>
      </trkpt>
      <trkpt lat="47.557394" lon="7.945716">
        <ele>300.559403</ele>
        <time>2021-11-17T02:13:47.707Z</time>
      </trkpt>
      <trkpt lat="47.557268" lon="7.945688">
        <ele>300.334234</ele>
        <time>2021-11-17T02:13:49.334Z</time>
      </trkpt>
      <trkpt lat="47.557196" lon="7.945663">
        <ele>300.203542</ele>
        <time>2021-11-17T02:13:50.317Z</time>
      </trkpt>
      <trkpt lat="47.557110" lon="7.945492">
        <ele>299.949193</ele>
        <time>2021-11-17T02:13:52.161Z</time>
      </trkpt>
      <trkpt lat="47.556999" lon="7.945268">
        <ele>299.617748</ele>
        <time>2021-11-17T02:13:54.578Z</time>
      </trkpt>
      <trkpt lat="47.556999" lon="7.945268">
        <ele>299.617748</ele>
        <time>2021-11-17T02:13:54.612Z</time>
      </trkpt>
      <trkpt lat="47.556999" lon="7.945268">
        <ele>299.617748</ele>
        <time>2021-11-17T02:13:54.645Z</time>
      </trkpt>
      <trkpt lat="47.556919" lon="7.945110">
        <ele>299.382165</ele>
        <time>2021-11-17T02:13:56.414Z</time>
      </trkpt>
      <trkpt lat="47.556830" lon="7.944931">
        <ele>299.116992</ele>
        <time>2021-11-17T02:13:58.242Z</time>
      </trkpt>
      <trkpt lat="47.556650" lon="7.944566">
        <ele>298.866486</ele>
        <time>2021-11-17T02:14:02.176Z</time>
      </trkpt>
      <trkpt lat="47.556439" lon="7.944137">
        <ele>298.790920</ele>
        <time>2021-11-17T02:14:06.985Z</time>
      </trkpt>
      <trkpt lat="47.556345" lon="7.943946">
        <ele>298.757269</ele>
        <time>2021-11-17T02:14:09.154Z</time>
      </trkpt>
      <trkpt lat="47.556302" lon="7.943858">
        <ele>298.741804</ele>
        <time>2021-11-17T02:14:10.201Z</time>
      </trkpt>
      <trkpt lat="47.556288" lon="7.943830">
        <ele>298.736843</ele>
        <time>2021-11-17T02:14:10.555Z</time>
      </trkpt>
      <trkpt lat="47.556069" lon="7.943386">
        <ele>298.658558</ele>
        <time>2021-11-17T02:14:16.117Z</time>
      </trkpt>
      <trkpt lat="47.555911" lon="7.943042">
        <ele>298.599324</ele>
        <time>2021-11-17T02:14:20.520Z</time>
      </trkpt>
      <trkpt lat="47.555828" lon="7.942869">
        <ele>298.569108</ele>
        <time>2021-11-17T02:14:22.845Z</time>
      </trkpt>
      <trkpt lat="47.555765" lon="7.942732">
        <ele>298.545509</ele>
        <time>2021-11-17T02:14:24.557Z</time>
      </trkpt>
      <trkpt lat="47.555711" lon="7.942617">
        <ele>298.524988</ele>
        <time>2021-11-17T02:14:25.946Z</time>
      </trkpt>
      <trkpt lat="47.555633" lon="7.942436">
        <ele>298.467327</ele>
        <time>2021-11-17T02:14:28.068Z</time>
      </trkpt>
      <trkpt lat="47.555530" lon="7.942195">
        <ele>298.390734</ele>
        <time>2021-11-17T02:14:30.632Z</time>
      </trkpt>
      <trkpt lat="47.555494" lon="7.942104">
        <ele>298.362412</ele>
        <time>2021-11-17T02:14:31.578Z</time>
      </trkpt>
      <trkpt lat="47.555456" lon="7.942017">
        <ele>298.334587</ele>
        <time>2021-11-17T02:14:32.509Z</time>
      </trkpt>
      <trkpt lat="47.555313" lon="7.941663">
        <ele>298.223812</ele>
        <time>2021-11-17T02:14:36.013Z</time>
      </trkpt>
      <trkpt lat="47.555223" lon="7.941452">
        <ele>298.156791</ele>
        <time>2021-11-17T02:14:38.255Z</time>
      </trkpt>
      <trkpt lat="47.554981" lon="7.940858">
        <ele>297.970493</ele>
        <time>2021-11-17T02:14:44.548Z</time>
      </trkpt>
      <trkpt lat="47.554831" lon="7.940510">
        <ele>297.859622</ele>
        <time>2021-11-17T02:14:48.424Z</time>
      </trkpt>
      <trkpt lat="47.554786" lon="7.940407">
        <ele>297.826677</ele>
        <time>2021-11-17T02:14:49.499Z</time>
      </trkpt>
      <trkpt lat="47.554653" lon="7.940102">
        <ele>297.680629</ele>
        <time>2021-11-17T02:14:52.783Z</time>
      </trkpt>
      <trkpt lat="47.554446" lon="7.939644">
        <ele>297.444408</ele>
        <time>2021-11-17T02:14:57.592Z</time>
      </trkpt>
      <trkpt lat="47.554246" lon="7.939196">
        <ele>297.214216</ele>
        <time>2021-11-17T02:15:02.147Z</time>
      </trkpt>
      <trkpt lat="47.554109" lon="7.938885">
        <ele>297.055058</ele>
        <time>2021-11-17T02:15:05.290Z</time>
      </trkpt>
      <trkpt lat="47.553978" lon="7.938519">
        <ele>296.877516</ele>
        <time>2021-11-17T02:15:08.799Z</time>
      </trkpt>
      <trkpt lat="47.553909" lon="7.938319">
        <ele>296.781256</ele>
        <time>2021-11-17T02:15:10.732Z</time>
      </trkpt>
      <trkpt lat="47.553848" lon="7.938105">
        <ele>296.681702</ele>
        <time>2021-11-17T02:15:12.845Z</time>
      </trkpt>
      <trkpt lat="47.553805" lon="7.937948">
        <ele>296.647372</ele>
        <time>2021-11-17T02:15:14.384Z</time>
      </trkpt>
      <trkpt lat="47.553775" lon="7.937797">
        <ele>296.623378</ele>
        <time>2021-11-17T02:15:15.772Z</time>
      </trkpt>
      <trkpt lat="47.553769" lon="7.937764">
        <ele>296.618168</ele>
        <time>2021-11-17T02:15:16.087Z</time>
      </trkpt>
      <trkpt lat="47.553744" lon="7.937573">
        <ele>296.588510</ele>
        <time>2021-11-17T02:15:17.941Z</time>
      </trkpt>
      <trkpt lat="47.553727" lon="7.937367">
        <ele>296.556875</ele>
        <time>2021-11-17T02:15:19.850Z</time>
      </trkpt>
      <trkpt lat="47.553725" lon="7.937238">
        <ele>296.537206</ele>
        <time>2021-11-17T02:15:21.026Z</time>
      </trkpt>
      <trkpt lat="47.553724" lon="7.937134">
        <ele>296.521351</ele>
        <time>2021-11-17T02:15:22.020Z</time>
      </trkpt>
      <trkpt lat="47.553732" lon="7.936945">
        <ele>296.492484</ele>
        <time>2021-11-17T02:15:23.813Z</time>
      </trkpt>
      <trkpt lat="47.553754" lon="7.936703">
        <ele>296.455262</ele>
        <time>2021-11-17T02:15:26.051Z</time>
      </trkpt>
      <trkpt lat="47.553763" lon="7.936585">
        <ele>296.437160</ele>
        <time>2021-11-17T02:15:27.181Z</time>
      </trkpt>
      <trkpt lat="47.553712" lon="7.936520">
        <ele>296.421966</ele>
        <time>2021-11-17T02:15:28.138Z</time>
      </trkpt>
      <trkpt lat="47.553680" lon="7.936493">
        <ele>296.413648</ele>
        <time>2021-11-17T02:15:28.661Z</time>
      </trkpt>
      <trkpt lat="47.553579" lon="7.936483">
        <ele>296.390785</ele>
        <time>2021-11-17T02:15:30.062Z</time>
      </trkpt>
      <trkpt lat="47.553468" lon="7.936486">
        <ele>296.365710</ele>
        <time>2021-11-17T02:15:31.652Z</time>
      </trkpt>
      <trkpt lat="47.553364" lon="7.936511">
        <ele>296.341914</ele>
        <time>2021-11-17T02:15:33.208Z</time>
      </trkpt>
      <trkpt lat="47.553216" lon="7.936481">
        <ele>296.308174</ele>
        <time>2021-11-17T02:15:35.515Z</time>
      </trkpt>
      <trkpt lat="47.553130" lon="7.936464">
        <ele>296.288578</ele>
        <time>2021-11-17T02:15:36.892Z</time>
      </trkpt>
      <trkpt lat="47.553015" lon="7.936441">
        <ele>296.262368</ele>
        <time>2021-11-17T02:15:38.799Z</time>
      </trkpt>
      <trkpt lat="47.552921" lon="7.936425">
        <ele>296.197641</ele>
        <time>2021-11-17T02:15:40.427Z</time>
      </trkpt>
      <trkpt lat="47.552791" lon="7.936403">
        <ele>296.107823</ele>
        <time>2021-11-17T02:15:42.267Z</time>
      </trkpt>
      <trkpt lat="47.552493" lon="7.936374">
        <ele>295.902820</ele>
        <time>2021-11-17T02:15:46.742Z</time>
      </trkpt>
      <trkpt lat="47.552311" lon="7.936357">
        <ele>295.777638</ele>
        <time>2021-11-17T02:15:49.264Z</time>
      </trkpt>
      <trkpt lat="47.551926" lon="7.936360">
        <ele>295.513351</ele>
        <time>2021-11-17T02:15:54.618Z</time>
      </trkpt>
      <trkpt lat="47.551730" lon="7.936373">
        <ele>295.378672</ele>
        <time>2021-11-17T02:15:57.226Z</time>
      </trkpt>
      <trkpt lat="47.551599" lon="7.936386">
        <ele>295.288546</ele>
        <time>2021-11-17T02:15:58.909Z</time>
      </trkpt>
      <trkpt lat="47.551477" lon="7.936401">
        <ele>295.204511</ele>
        <time>2021-11-17T02:16:00.268Z</time>
      </trkpt>
      <trkpt lat="47.551303" lon="7.936435">
        <ele>295.084035</ele>
        <time>2021-11-17T02:16:02.199Z</time>
      </trkpt>
      <trkpt lat="47.550607" lon="7.936694">
        <ele>293.240162</ele>
        <time>2021-11-17T02:16:09.831Z</time>
      </trkpt>
      <trkpt lat="47.550221" lon="7.936962">
        <ele>292.040964</ele>
        <time>2021-11-17T02:16:14.245Z</time>
      </trkpt>
      <trkpt lat="47.550098" lon="7.937070">
        <ele>291.638744</ele>
        <time>2021-11-17T02:16:15.634Z</time>
      </trkpt>
      <trkpt lat="47.549970" lon="7.937189">
        <ele>291.213639</ele>
        <time>2021-11-17T02:16:17.159Z</time>
      </trkpt>
      <trkpt lat="47.549714" lon="7.937478">
        <ele>290.308234</ele>
        <time>2021-11-17T02:16:20.393Z</time>
      </trkpt>
      <trkpt lat="47.549404" lon="7.937916">
        <ele>289.255947</ele>
        <time>2021-11-17T02:16:24.758Z</time>
      </trkpt>
      <trkpt lat="47.549168" lon="7.938309">
        <ele>288.433648</ele>
        <time>2021-11-17T02:16:28.356Z</time>
      </trkpt>
      <trkpt lat="47.549055" lon="7.938483">
        <ele>288.056185</ele>
        <time>2021-11-17T02:16:29.973Z</time>
      </trkpt>
      <trkpt lat="47.548911" lon="7.938838">
        <ele>287.408733</ele>
        <time>2021-11-17T02:16:32.954Z</time>
      </trkpt>
      <trkpt lat="47.548679" lon="7.939412">
        <ele>286.362857</ele>
        <time>2021-11-17T02:16:38.093Z</time>
      </trkpt>
      <trkpt lat="47.548592" lon="7.939666">
        <ele>285.917593</ele>
        <time>2021-11-17T02:16:40.471Z</time>
      </trkpt>
      <trkpt lat="47.548585" lon="7.939688">
        <ele>285.879572</ele>
        <time>2021-11-17T02:16:40.675Z</time>
      </trkpt>
      <trkpt lat="47.548563" lon="7.939753">
        <ele>285.801305</ele>
        <time>2021-11-17T02:16:41.274Z</time>
      </trkpt>
      <trkpt lat="47.548509" lon="7.939765">
        <ele>285.798958</ele>
        <time>2021-11-17T02:16:41.904Z</time>
      </trkpt>
      <trkpt lat="47.548479" lon="7.939789">
        <ele>285.797492</ele>
        <time>2021-11-17T02:16:42.303Z</time>
      </trkpt>
      <trkpt lat="47.548455" lon="7.939823">
        <ele>285.796065</ele>
        <time>2021-11-17T02:16:42.715Z</time>
      </trkpt>
      <trkpt lat="47.548437" lon="7.939866">
        <ele>285.794597</ele>
        <time>2021-11-17T02:16:43.133Z</time>
      </trkpt>
      <trkpt lat="47.548426" lon="7.939924">
        <ele>285.792849</ele>
        <time>2021-11-17T02:16:43.648Z</time>
      </trkpt>
      <trkpt lat="47.548427" lon="7.939957">
        <ele>285.791891</ele>
        <time>2021-11-17T02:16:43.961Z</time>
      </trkpt>
      <trkpt lat="47.548446" lon="7.940038">
        <ele>285.789403</ele>
        <time>2021-11-17T02:16:44.706Z</time>
      </trkpt>
      <trkpt lat="47.548468" lon="7.940081">
        <ele>285.787838</ele>
        <time>2021-11-17T02:16:45.214Z</time>
      </trkpt>
      <trkpt lat="47.548420" lon="7.940256">
        <ele>285.782358</ele>
        <time>2021-11-17T02:16:46.867Z</time>
      </trkpt>
      <trkpt lat="47.548303" lon="7.940599">
        <ele>285.771208</ele>
        <time>2021-11-17T02:16:50.789Z</time>
      </trkpt>
      <trkpt lat="47.548195" lon="7.940950">
        <ele>285.760017</ele>
        <time>2021-11-17T02:16:54.788Z</time>
      </trkpt>
      <trkpt lat="47.547852" lon="7.942144">
        <ele>285.755494</ele>
        <time>2021-11-17T02:17:09.247Z</time>
      </trkpt>
      <trkpt lat="47.547772" lon="7.942416">
        <ele>285.871139</ele>
        <time>2021-11-17T02:17:12.864Z</time>
      </trkpt>
      <trkpt lat="47.547436" lon="7.943731">
        <ele>286.419179</ele>
        <time>2021-11-17T02:17:29.859Z</time>
      </trkpt>
      <trkpt lat="47.547380" lon="7.943952">
        <ele>286.511188</ele>
        <time>2021-11-17T02:17:32.670Z</time>
      </trkpt>
      <trkpt lat="47.547280" lon="7.944357">
        <ele>286.679276</ele>
        <time>2021-11-17T02:17:37.579Z</time>
      </trkpt>
      <trkpt lat="47.547254" lon="7.944465">
        <ele>286.723968</ele>
        <time>2021-11-17T02:17:38.805Z</time>
      </trkpt>
      <trkpt lat="47.547245" lon="7.944501">
        <ele>286.738932</ele>
        <time>2021-11-17T02:17:39.200Z</time>
      </trkpt>
      <trkpt lat="47.547186" lon="7.944630">
        <ele>286.812300</ele>
        <time>2021-11-17T02:17:40.788Z</time>
      </trkpt>
      <trkpt lat="47.547164" lon="7.944724">
        <ele>286.864548</ele>
        <time>2021-11-17T02:17:41.846Z</time>
      </trkpt>
      <trkpt lat="47.547155" lon="7.944757">
        <ele>286.883239</ele>
        <time>2021-11-17T02:17:42.263Z</time>
      </trkpt>
      <trkpt lat="47.547020" lon="7.945146">
        <ele>287.112944</ele>
        <time>2021-11-17T02:17:46.595Z</time>
      </trkpt>
      <trkpt lat="47.546975" lon="7.945238">
        <ele>287.172610</ele>
        <time>2021-11-17T02:17:47.706Z</time>
      </trkpt>
      <trkpt lat="47.546915" lon="7.945468">
        <ele>287.302103</ele>
        <time>2021-11-17T02:17:49.936Z</time>
      </trkpt>
      <trkpt lat="47.546868" lon="7.945669">
        <ele>287.413814</ele>
        <time>2021-11-17T02:17:52.166Z</time>
      </trkpt>
      <trkpt lat="47.546859" lon="7.945706">
        <ele>287.434468</ele>
        <time>2021-11-17T02:17:52.627Z</time>
      </trkpt>
      <trkpt lat="47.546795" lon="7.946005">
        <ele>287.599197</ele>
        <time>2021-11-17T02:17:55.917Z</time>
      </trkpt>
      <trkpt lat="47.546735" lon="7.946282">
        <ele>287.751972</ele>
        <time>2021-11-17T02:17:59.596Z</time>
      </trkpt>
      <trkpt lat="47.546664" lon="7.946504">
        <ele>287.880982</ele>
        <time>2021-11-17T02:18:02.632Z</time>
      </trkpt>
      <trkpt lat="47.546655" lon="7.946544">
        <ele>287.903125</ele>
        <time>2021-11-17T02:18:03.195Z</time>
      </trkpt>
      <trkpt lat="47.546592" lon="7.946809">
        <ele>288.050672</ele>
        <time>2021-11-17T02:18:07.318Z</time>
      </trkpt>
      <trkpt lat="47.546633" lon="7.946946">
        <ele>288.129373</ele>
        <time>2021-11-17T02:18:09.500Z</time>
      </trkpt>
      <trkpt lat="47.546648" lon="7.947009">
        <ele>288.170465</ele>
        <time>2021-11-17T02:18:10.425Z</time>
      </trkpt>
      <trkpt lat="47.546651" lon="7.947115">
        <ele>288.415864</ele>
        <time>2021-11-17T02:18:12.148Z</time>
      </trkpt>
      <trkpt lat="47.546572" lon="7.947545">
        <ele>289.446660</ele>
        <time>2021-11-17T02:18:19.340Z</time>
      </trkpt>
      <trkpt lat="47.546159" lon="7.949303">
        <ele>293.752268</ele>
        <time>2021-11-17T02:18:57.548Z</time>
      </trkpt>
      <trkpt lat="47.545949" lon="7.950185">
        <ele>295.458592</ele>
        <time>2021-11-17T02:19:17.820Z</time>
      </trkpt>
      <trkpt lat="47.545884" lon="7.950363">
        <ele>295.792104</ele>
        <time>2021-11-17T02:19:21.752Z</time>
      </trkpt>
      <trkpt lat="47.545822" lon="7.950627">
        <ele>296.252747</ele>
        <time>2021-11-17T02:19:27.055Z</time>
      </trkpt>
      <trkpt lat="47.545810" lon="7.950694">
        <ele>296.366982</ele>
        <time>2021-11-17T02:19:28.286Z</time>
      </trkpt>
      <trkpt lat="47.545763" lon="7.950733">
        <ele>296.498502</ele>
        <time>2021-11-17T02:19:29.794Z</time>
      </trkpt>
      <trkpt lat="47.545659" lon="7.950771">
        <ele>296.760020</ele>
        <time>2021-11-17T02:19:32.215Z</time>
      </trkpt>
      <trkpt lat="47.545625" lon="7.950771">
        <ele>296.843028</ele>
        <time>2021-11-17T02:19:33.113Z</time>
      </trkpt>
      <trkpt lat="47.545567" lon="7.950765">
        <ele>296.984976</ele>
        <time>2021-11-17T02:19:34.526Z</time>
      </trkpt>
      <trkpt lat="47.545494" lon="7.950684">
        <ele>297.207647</ele>
        <time>2021-11-17T02:19:36.663Z</time>
      </trkpt>
      <trkpt lat="47.545434" lon="7.950668">
        <ele>297.356487</ele>
        <time>2021-11-17T02:19:38.142Z</time>
      </trkpt>
      <trkpt lat="47.545166" lon="7.950366">
        <ele>298.178563</ele>
        <time>2021-11-17T02:19:44.913Z</time>
      </trkpt>
      <trkpt lat="47.544901" lon="7.950044">
        <ele>298.755518</ele>
        <time>2021-11-17T02:19:50.549Z</time>
      </trkpt>
      <trkpt lat="47.544521" lon="7.949558">
        <ele>298.911878</ele>
        <time>2021-11-17T02:19:57.246Z</time>
      </trkpt>
      <trkpt lat="47.544239" lon="7.949202">
        <ele>299.027276</ele>
        <time>2021-11-17T02:20:02.208Z</time>
      </trkpt>
      <trkpt lat="47.543864" lon="7.948694">
        <ele>299.185545</ele>
        <time>2021-11-17T02:20:10.172Z</time>
      </trkpt>
      <trkpt lat="47.543760" lon="7.948548">
        <ele>299.230171</ele>
        <time>2021-11-17T02:20:12.414Z</time>
      </trkpt>
      <trkpt lat="47.543579" lon="7.948287">
        <ele>299.506639</ele>
        <time>2021-11-17T02:20:18.132Z</time>
      </trkpt>
      <trkpt lat="47.543532" lon="7.948214">
        <ele>299.662719</ele>
        <time>2021-11-17T02:20:19.258Z</time>
      </trkpt>
      <trkpt lat="47.543435" lon="7.948000">
        <ele>300.061534</ele>
        <time>2021-11-17T02:20:22.320Z</time>
      </trkpt>
      <trkpt lat="47.543407" lon="7.947938">
        <ele>300.176948</ele>
        <time>2021-11-17T02:20:24.177Z</time>
      </trkpt>
      <trkpt lat="47.543280" lon="7.947656">
        <ele>300.701442</ele>
        <time>2021-11-17T02:20:28.664Z</time>
      </trkpt>
      <trkpt lat="47.543142" lon="7.947250">
        <ele>301.404740</ele>
        <time>2021-11-17T02:20:36.128Z</time>
      </trkpt>
      <trkpt lat="47.543086" lon="7.947052">
        <ele>301.736886</ele>
        <time>2021-11-17T02:20:39.557Z</time>
      </trkpt>
      <trkpt lat="47.543056" lon="7.946935">
        <ele>301.930527</ele>
        <time>2021-11-17T02:20:42.399Z</time>
      </trkpt>
      <trkpt lat="47.543045" lon="7.946881">
        <ele>302.017797</ele>
        <time>2021-11-17T02:20:43.555Z</time>
      </trkpt>
      <trkpt lat="47.542982" lon="7.946547">
        <ele>302.554355</ele>
        <time>2021-11-17T02:20:48.955Z</time>
      </trkpt>
      <trkpt lat="47.542974" lon="7.946495">
        <ele>302.636873</ele>
        <time>2021-11-17T02:20:50.596Z</time>
      </trkpt>
      <trkpt lat="47.542960" lon="7.946400">
        <ele>302.787318</ele>
        <time>2021-11-17T02:20:52.661Z</time>
      </trkpt>
      <trkpt lat="47.542916" lon="7.945730">
        <ele>303.757334</ele>
        <time>2021-11-17T02:21:05.327Z</time>
      </trkpt>
      <trkpt lat="47.542913" lon="7.945267">
        <ele>304.354203</ele>
        <time>2021-11-17T02:21:13.822Z</time>
      </trkpt>
      <trkpt lat="47.543007" lon="7.943867">
        <ele>306.167812</ele>
        <time>2021-11-17T02:21:34.989Z</time>
      </trkpt>
      <trkpt lat="47.543161" lon="7.942213">
        <ele>306.467344</ele>
        <time>2021-11-17T02:21:53.395Z</time>
      </trkpt>
      <trkpt lat="47.543435" lon="7.940670">
        <ele>305.890089</ele>
        <time>2021-11-17T02:22:06.344Z</time>
      </trkpt>
      <trkpt lat="47.543826" lon="7.939433">
        <ele>304.334470</ele>
        <time>2021-11-17T02:22:16.745Z</time>
      </trkpt>
      <trkpt lat="47.544472" lon="7.937932">
        <ele>302.282208</ele>
        <time>2021-11-17T02:22:30.069Z</time>
      </trkpt>
      <trkpt lat="47.544705" lon="7.937395">
        <ele>301.527029</ele>
        <time>2021-11-17T02:22:34.908Z</time>
      </trkpt>
      <trkpt lat="47.544903" lon="7.936917">
        <ele>300.863587</ele>
        <time>2021-11-17T02:22:39.169Z</time>
      </trkpt>
      <trkpt lat="47.545074" lon="7.936484">
        <ele>300.270136</ele>
        <time>2021-11-17T02:22:43.000Z</time>
      </trkpt>
      <trkpt lat="47.545457" lon="7.935110">
        <ele>299.107078</ele>
        <time>2021-11-17T02:22:54.368Z</time>
      </trkpt>
      <trkpt lat="47.545674" lon="7.933625">
        <ele>298.141782</ele>
        <time>2021-11-17T02:23:07.448Z</time>
      </trkpt>
      <trkpt lat="47.545702" lon="7.933290">
        <ele>298.334718</ele>
        <time>2021-11-17T02:23:11.028Z</time>
      </trkpt>
      <trkpt lat="47.545724" lon="7.932758">
        <ele>298.772550</ele>
        <time>2021-11-17T02:23:17.295Z</time>
      </trkpt>
      <trkpt lat="47.545721" lon="7.931992">
        <ele>299.401794</ele>
        <time>2021-11-17T02:23:27.334Z</time>
      </trkpt>
      <trkpt lat="47.545696" lon="7.931497">
        <ele>299.809549</ele>
        <time>2021-11-17T02:23:34.540Z</time>
      </trkpt>
      <trkpt lat="47.545661" lon="7.930955">
        <ele>300.256810</ele>
        <time>2021-11-17T02:23:43.235Z</time>
      </trkpt>
      <trkpt lat="47.545563" lon="7.929641">
        <ele>301.517311</ele>
        <time>2021-11-17T02:24:05.575Z</time>
      </trkpt>
      <trkpt lat="47.545475" lon="7.928419">
        <ele>302.694815</ele>
        <time>2021-11-17T02:24:21.877Z</time>
      </trkpt>
      <trkpt lat="47.545421" lon="7.927686">
        <ele>301.969477</ele>
        <time>2021-11-17T02:24:27.981Z</time>
      </trkpt>
      <trkpt lat="47.545406" lon="7.927306">
        <ele>301.392084</ele>
        <time>2021-11-17T02:24:30.885Z</time>
      </trkpt>
      <trkpt lat="47.545407" lon="7.927001">
        <ele>300.929435</ele>
        <time>2021-11-17T02:24:33.171Z</time>
      </trkpt>
      <trkpt lat="47.545409" lon="7.926773">
        <ele>300.583560</ele>
        <time>2021-11-17T02:24:34.801Z</time>
      </trkpt>
      <trkpt lat="47.545417" lon="7.925848">
        <ele>299.180346</ele>
        <time>2021-11-17T02:24:41.136Z</time>
      </trkpt>
      <trkpt lat="47.545446" lon="7.925350">
        <ele>298.196208</ele>
        <time>2021-11-17T02:24:44.427Z</time>
      </trkpt>
      <trkpt lat="47.545466" lon="7.924880">
        <ele>297.060446</ele>
        <time>2021-11-17T02:24:47.481Z</time>
      </trkpt>
      <trkpt lat="47.545481" lon="7.924396">
        <ele>295.891941</ele>
        <time>2021-11-17T02:24:50.564Z</time>
      </trkpt>
      <trkpt lat="47.545521" lon="7.923709">
        <ele>294.228933</ele>
        <time>2021-11-17T02:24:55.089Z</time>
      </trkpt>
      <trkpt lat="47.545536" lon="7.923407">
        <ele>293.498623</ele>
        <time>2021-11-17T02:24:57.479Z</time>
      </trkpt>
      <trkpt lat="47.545553" lon="7.923142">
        <ele>292.856637</ele>
        <time>2021-11-17T02:24:59.200Z</time>
      </trkpt>
      <trkpt lat="47.545587" lon="7.922895">
        <ele>292.331248</ele>
        <time>2021-11-17T02:25:01.601Z</time>
      </trkpt>
      <trkpt lat="47.545641" lon="7.922610">
        <ele>292.070560</ele>
        <time>2021-11-17T02:25:03.600Z</time>
      </trkpt>
      <trkpt lat="47.545690" lon="7.922369">
        <ele>291.848902</ele>
        <time>2021-11-17T02:25:06.291Z</time>
      </trkpt>
      <trkpt lat="47.545699" lon="7.922325">
        <ele>291.808413</ele>
        <time>2021-11-17T02:25:06.552Z</time>
      </trkpt>
      <trkpt lat="47.545714" lon="7.922249">
        <ele>291.738681</ele>
        <time>2021-11-17T02:25:07.142Z</time>
      </trkpt>
      <trkpt lat="47.545778" lon="7.921947">
        <ele>291.459923</ele>
        <time>2021-11-17T02:25:10.298Z</time>
      </trkpt>
      <trkpt lat="47.545810" lon="7.921755">
        <ele>291.285759</ele>
        <time>2021-11-17T02:25:11.655Z</time>
      </trkpt>
      <trkpt lat="47.545881" lon="7.921096">
        <ele>290.698061</ele>
        <time>2021-11-17T02:25:17.004Z</time>
      </trkpt>
      <trkpt lat="47.545913" lon="7.920765">
        <ele>290.403590</ele>
        <time>2021-11-17T02:25:19.871Z</time>
      </trkpt>
      <trkpt lat="47.545973" lon="7.920313">
        <ele>290.022062</ele>
        <time>2021-11-17T02:25:25.018Z</time>
      </trkpt>
      <trkpt lat="47.546128" lon="7.919617">
        <ele>289.832605</ele>
        <time>2021-11-17T02:25:31.481Z</time>
      </trkpt>
      <trkpt lat="47.546262" lon="7.919081">
        <ele>289.684849</ele>
        <time>2021-11-17T02:25:37.480Z</time>
      </trkpt>
      <trkpt lat="47.546821" lon="7.916867">
        <ele>289.032131</ele>
        <time>2021-11-17T02:25:58.233Z</time>
      </trkpt>
      <trkpt lat="47.547032" lon="7.916218">
        <ele>288.817125</ele>
        <time>2021-11-17T02:26:04.723Z</time>
      </trkpt>
      <trkpt lat="47.547091" lon="7.916039">
        <ele>288.757669</ele>
        <time>2021-11-17T02:26:06.541Z</time>
      </trkpt>
      <trkpt lat="47.547113" lon="7.915971">
        <ele>288.735162</ele>
        <time>2021-11-17T02:26:07.140Z</time>
      </trkpt>
      <trkpt lat="47.547423" lon="7.915080">
        <ele>288.625770</ele>
        <time>2021-11-17T02:26:16.784Z</time>
      </trkpt>
      <trkpt lat="47.547994" lon="7.913433">
        <ele>289.009971</ele>
        <time>2021-11-17T02:26:36.503Z</time>
      </trkpt>
      <trkpt lat="47.548027" lon="7.913334">
        <ele>289.032882</ele>
        <time>2021-11-17T02:26:37.862Z</time>
      </trkpt>
      <trkpt lat="47.548412" lon="7.912168">
        <ele>289.807855</ele>
        <time>2021-11-17T02:26:54.265Z</time>
      </trkpt>
      <trkpt lat="47.549012" lon="7.910340">
        <ele>291.358489</ele>
        <time>2021-11-17T02:27:21.223Z</time>
      </trkpt>
      <trkpt lat="47.549102" lon="7.910058">
        <ele>291.650023</ele>
        <time>2021-11-17T02:27:25.349Z</time>
      </trkpt>
      <trkpt lat="47.549195" lon="7.909756">
        <ele>291.960260</ele>
        <time>2021-11-17T02:27:29.643Z</time>
      </trkpt>
      <trkpt lat="47.549283" lon="7.909463">
        <ele>292.259983</ele>
        <time>2021-11-17T02:27:33.807Z</time>
      </trkpt>
      <trkpt lat="47.549331" lon="7.909305">
        <ele>292.421917</ele>
        <time>2021-11-17T02:27:36.024Z</time>
      </trkpt>
      <trkpt lat="47.549520" lon="7.908678">
        <ele>293.063688</ele>
        <time>2021-11-17T02:27:44.938Z</time>
      </trkpt>
      <trkpt lat="47.549539" lon="7.908625">
        <ele>293.119775</ele>
        <time>2021-11-17T02:27:45.680Z</time>
      </trkpt>
      <trkpt lat="47.550497" lon="7.905558">
        <ele>298.439729</ele>
        <time>2021-11-17T02:28:40.563Z</time>
      </trkpt>
      <trkpt lat="47.550283" lon="7.905413">
        <ele>299.301136</ele>
        <time>2021-11-17T02:28:48.729Z</time>
      </trkpt>
      <trkpt lat="47.550067" lon="7.905245">
        <ele>300.194162</ele>
        <time>2021-11-17T02:28:57.415Z</time>
      </trkpt>
      <trkpt lat="47.549867" lon="7.905155">
        <ele>300.959313</ele>
        <time>2021-11-17T02:29:05.044Z</time>
      </trkpt>
      <trkpt lat="47.549868" lon="7.905010">
        <ele>301.317589</ele>
        <time>2021-11-17T02:29:08.449Z</time>
      </trkpt>
      <trkpt lat="47.550025" lon="7.904774">
        <ele>302.136308</ele>
        <time>2021-11-17T02:29:16.600Z</time>
      </trkpt>
      <trkpt lat="47.550302" lon="7.904164">
        <ele>303.952806</ele>
        <time>2021-11-17T02:29:34.899Z</time>
      </trkpt>
      <trkpt lat="47.550498" lon="7.903445">
        <ele>305.867714</ele>
        <time>2021-11-17T02:29:54.471Z</time>
      </trkpt>
      <trkpt lat="47.550688" lon="7.902451">
        <ele>308.418577</ele>
        <time>2021-11-17T02:30:17.019Z</time>
      </trkpt>
      <trkpt lat="47.550757" lon="7.901591">
        <ele>310.556991</ele>
        <time>2021-11-17T02:30:36.815Z</time>
      </trkpt>
      <trkpt lat="47.550769" lon="7.901362">
        <ele>311.155940</ele>
        <time>2021-11-17T02:30:42.723Z</time>
      </trkpt>
      <trkpt lat="47.550801" lon="7.900244">
        <ele>314.372629</ele>
        <time>2021-11-17T02:31:07.121Z</time>
      </trkpt>
      <trkpt lat="47.550819" lon="7.898109">
        <ele>319.835274</ele>
        <time>2021-11-17T02:31:54.161Z</time>
      </trkpt>
      <trkpt lat="47.550648" lon="7.896481">
        <ele>322.905672</ele>
        <time>2021-11-17T02:32:21.816Z</time>
      </trkpt>
      <trkpt lat="47.550639" lon="7.896345">
        <ele>323.160332</ele>
        <time>2021-11-17T02:32:24.191Z</time>
      </trkpt>
      <trkpt lat="47.550660" lon="7.896255">
        <ele>323.337793</ele>
        <time>2021-11-17T02:32:24.992Z</time>
      </trkpt>
      <trkpt lat="47.550838" lon="7.895509">
        <ele>324.126163</ele>
        <time>2021-11-17T02:32:35.160Z</time>
      </trkpt>
      <trkpt lat="47.550878" lon="7.895158">
        <ele>324.426892</ele>
        <time>2021-11-17T02:32:39.222Z</time>
      </trkpt>
      <trkpt lat="47.550908" lon="7.894308">
        <ele>325.145970</ele>
        <time>2021-11-17T02:32:49.694Z</time>
      </trkpt>
      <trkpt lat="47.550892" lon="7.893176">
        <ele>326.754215</ele>
        <time>2021-11-17T02:33:04.412Z</time>
      </trkpt>
      <trkpt lat="47.550904" lon="7.891725">
        <ele>330.697566</ele>
        <time>2021-11-17T02:33:34.174Z</time>
      </trkpt>
      <trkpt lat="47.550915" lon="7.890600">
        <ele>334.144371</ele>
        <time>2021-11-17T02:34:03.014Z</time>
      </trkpt>
      <trkpt lat="47.550833" lon="7.889069">
        <ele>340.623653</ele>
        <time>2021-11-17T02:34:45.648Z</time>
      </trkpt>
      <trkpt lat="47.550831" lon="7.888611">
        <ele>342.555903</ele>
        <time>2021-11-17T02:34:58.218Z</time>
      </trkpt>
      <trkpt lat="47.550789" lon="7.887816">
        <ele>345.777755</ele>
        <time>2021-11-17T02:35:18.830Z</time>
      </trkpt>
      <trkpt lat="47.550758" lon="7.887295">
        <ele>347.791222</ele>
        <time>2021-11-17T02:35:32.651Z</time>
      </trkpt>
      <trkpt lat="47.550677" lon="7.886476">
        <ele>350.977792</ele>
        <time>2021-11-17T02:35:54.140Z</time>
      </trkpt>
      <trkpt lat="47.550548" lon="7.885799">
        <ele>353.685912</ele>
        <time>2021-11-17T02:36:11.343Z</time>
      </trkpt>
      <trkpt lat="47.550391" lon="7.885109">
        <ele>356.030307</ele>
        <time>2021-11-17T02:36:28.980Z</time>
      </trkpt>
      <trkpt lat="47.550332" lon="7.884727">
        <ele>357.181584</ele>
        <time>2021-11-17T02:36:37.671Z</time>
      </trkpt>
      <trkpt lat="47.550234" lon="7.883221">
        <ele>361.626545</ele>
        <time>2021-11-17T02:37:10.502Z</time>
      </trkpt>
      <trkpt lat="47.549927" lon="7.881490">
        <ele>366.079248</ele>
        <time>2021-11-17T02:37:42.766Z</time>
      </trkpt>
      <trkpt lat="47.549726" lon="7.880786">
        <ele>367.923331</ele>
        <time>2021-11-17T02:37:58.743Z</time>
      </trkpt>
      <trkpt lat="47.549327" lon="7.879547">
        <ele>371.660933</ele>
        <time>2021-11-17T02:38:28.527Z</time>
      </trkpt>
      <trkpt lat="47.549318" lon="7.879398">
        <ele>372.085190</ele>
        <time>2021-11-17T02:38:31.715Z</time>
      </trkpt>
      <trkpt lat="47.549140" lon="7.879391">
        <ele>372.833374</ele>
        <time>2021-11-17T02:38:38.585Z</time>
      </trkpt>
      <trkpt lat="47.548718" lon="7.879258">
        <ele>374.646210</ele>
        <time>2021-11-17T02:38:52.256Z</time>
      </trkpt>
      <trkpt lat="47.548422" lon="7.878959">
        <ele>376.151518</ele>
        <time>2021-11-17T02:39:02.903Z</time>
      </trkpt>
      <trkpt lat="47.548234" lon="7.878638">
        <ele>376.605761</ele>
        <time>2021-11-17T02:39:11.335Z</time>
      </trkpt>
      <trkpt lat="47.547992" lon="7.877974">
        <ele>377.120895</ele>
        <time>2021-11-17T02:39:24.432Z</time>
      </trkpt>
      <trkpt lat="47.547574" lon="7.876801">
        <ele>378.026390</ele>
        <time>2021-11-17T02:39:38.195Z</time>
      </trkpt>
      <trkpt lat="47.547126" lon="7.875801">
        <ele>375.809747</ele>
        <time>2021-11-17T02:39:46.978Z</time>
      </trkpt>
      <trkpt lat="47.546309" lon="7.874154">
        <ele>370.142242</ele>
        <time>2021-11-17T02:40:00.166Z</time>
      </trkpt>
      <trkpt lat="47.546135" lon="7.873859">
        <ele>368.456225</ele>
        <time>2021-11-17T02:40:02.549Z</time>
      </trkpt>
      <trkpt lat="47.546077" lon="7.873763">
        <ele>367.901742</ele>
        <time>2021-11-17T02:40:03.359Z</time>
      </trkpt>
      <trkpt lat="47.545934" lon="7.873549">
        <ele>366.605774</ele>
        <time>2021-11-17T02:40:05.164Z</time>
      </trkpt>
      <trkpt lat="47.545746" lon="7.873302">
        <ele>365.003642</ele>
        <time>2021-11-17T02:40:07.452Z</time>
      </trkpt>
      <trkpt lat="47.545515" lon="7.873015">
        <ele>363.081429</ele>
        <time>2021-11-17T02:40:10.130Z</time>
      </trkpt>
      <trkpt lat="47.545478" lon="7.872968">
        <ele>362.770674</ele>
        <time>2021-11-17T02:40:10.576Z</time>
      </trkpt>
      <trkpt lat="47.545375" lon="7.872836">
        <ele>361.902335</ele>
        <time>2021-11-17T02:40:11.772Z</time>
      </trkpt>
      <trkpt lat="47.545131" lon="7.872664">
        <ele>360.179477</ele>
        <time>2021-11-17T02:40:14.244Z</time>
      </trkpt>
      <trkpt lat="47.544883" lon="7.872555">
        <ele>360.156924</ele>
        <time>2021-11-17T02:40:16.583Z</time>
      </trkpt>
      <trkpt lat="47.544390" lon="7.872423">
        <ele>360.156924</ele>
        <time>2021-11-17T02:40:21.224Z</time>
      </trkpt>
      <trkpt lat="47.544203" lon="7.872390">
        <ele>360.156924</ele>
        <time>2021-11-17T02:40:22.984Z</time>
      </trkpt>
    </trkseg>
  </trk>
</gpx>